GEFSSGP_prec_meanprecacc_198.txt.gz
Total_Precipitation_Accumulation
1.83 1.72 2.51 3.74 3.86 3.25 2.84 2.33 1.69 1.37 0.96 0.81 0.76 0.90 1.15 1.47 1.72 1.98 2.19 2.11 1.43 1.15 1.11 1.63 2.31 2.22 2.07 2.04 1.92 1.82 1.77 1.65 1.48 1.41 1.26 1.15 1.04 0.95 0.87 0.87 0.90 0.88 0.78 0.78 0.87 0.94 0.99 0.99 1.04
1.44 2.08 3.03 4.12 3.59 2.93 2.75 2.27 1.72 1.19 0.73 0.57 0.51 0.61 0.72 0.68 0.73 1.23 2.11 2.15 1.21 0.93 0.97 1.25 1.88 1.91 1.87 1.87 1.76 1.70 1.55 1.40 1.43 1.42 1.23 1.09 1.01 0.96 0.95 0.94 0.88 0.84 0.77 0.79 0.84 0.93 1.01 1.04 1.05
1.63 2.73 3.61 3.71 2.93 2.77 2.72 2.09 1.43 0.82 0.53 0.47 0.46 0.47 0.54 0.77 0.90 1.38 1.96 1.54 0.96 0.77 0.92 1.36 1.78 1.75 1.75 1.71 1.55 1.54 1.39 1.23 1.23 1.28 1.22 1.16 1.05 0.97 0.94 0.94 0.94 0.89 0.85 0.84 0.84 0.90 0.97 1.04 1.07
1.81 2.91 3.20 2.90 2.65 2.26 1.87 1.52 1.13 0.95 0.63 0.38 0.34 0.43 0.48 0.83 1.09 1.29 1.35 1.07 0.89 0.88 0.90 1.14 1.50 1.55 1.58 1.48 1.40 1.38 1.27 1.22 1.14 1.09 1.13 1.14 1.07 1.01 0.94 0.99 0.96 0.91 0.90 0.92 0.94 0.99 1.02 1.01 1.03
2.34 2.95 2.76 2.40 2.25 1.84 1.37 1.06 0.91 0.93 0.76 0.43 0.32 0.49 0.71 1.04 1.15 1.06 0.97 0.79 0.75 0.79 0.76 0.88 1.31 1.35 1.38 1.30 1.28 1.34 1.27 1.19 1.06 1.02 1.12 1.22 1.13 1.05 1.00 1.02 0.98 0.94 0.91 0.92 0.96 1.01 1.03 0.94 0.97
2.60 2.60 2.56 2.28 2.20 1.79 1.38 0.99 0.79 0.75 0.61 0.42 0.34 0.53 0.83 1.11 1.25 1.12 0.99 0.97 0.93 0.92 0.81 0.82 1.22 1.29 1.24 1.22 1.19 1.24 1.30 1.20 1.07 1.03 1.05 1.09 1.07 0.99 0.98 0.96 0.98 0.96 0.93 0.94 0.95 0.99 0.98 0.87 0.89
2.48 2.42 2.21 1.87 2.01 2.18 1.62 1.00 0.85 0.83 0.67 0.46 0.34 0.58 0.86 1.09 1.09 1.06 1.13 1.19 1.19 1.25 1.14 1.05 1.10 1.12 1.18 1.22 1.17 1.32 1.44 1.31 1.14 1.04 1.02 0.96 0.94 0.89 0.89 0.89 0.98 0.97 0.96 0.93 0.92 0.99 1.00 0.92 0.87
1.98 2.00 1.82 1.82 2.04 2.28 1.53 1.01 0.83 0.77 0.68 0.35 0.30 0.56 0.83 0.82 0.84 0.99 1.13 1.15 1.14 1.22 1.17 1.19 1.25 1.24 1.24 1.26 1.36 1.51 1.82 1.70 1.32 1.09 0.96 0.90 0.82 0.81 0.87 0.83 0.89 1.00 1.05 1.08 1.07 1.11 1.08 1.05 0.98
1.83 2.12 2.22 2.30 2.29 2.02 1.37 1.18 0.93 0.62 0.54 0.40 0.36 0.47 0.55 0.54 0.69 0.82 0.94 0.95 0.94 0.93 0.97 1.06 1.13 1.13 1.17 1.14 1.32 1.60 1.90 1.96 1.60 1.30 1.14 0.93 0.65 0.66 0.79 0.83 0.97 1.09 1.15 1.23 1.31 1.32 1.23 1.15 1.05
1.80 2.10 2.06 1.82 1.50 1.25 1.11 1.03 0.88 0.76 0.76 0.60 0.50 0.48 0.50 0.53 0.73 0.81 0.80 0.85 0.80 0.73 0.68 0.72 0.75 0.81 0.85 0.89 1.14 1.36 1.43 1.64 1.42 1.37 1.23 1.05 0.97 0.91 0.74 0.79 1.06 1.25 1.24 1.25 1.35 1.44 1.22 0.97 0.78
1.59 1.64 1.47 1.35 1.02 0.81 0.81 0.75 0.65 0.67 0.75 0.65 0.61 0.48 0.52 0.58 0.67 0.71 0.67 0.66 0.66 0.65 0.62 0.57 0.56 0.60 0.67 0.79 0.98 1.18 1.32 1.48 1.47 1.44 1.37 1.36 1.30 0.97 0.82 0.90 1.00 1.11 1.12 1.02 1.10 1.16 0.96 0.78 0.70
1.54 1.28 1.16 1.09 0.76 0.74 0.75 0.63 0.55 0.53 0.51 0.38 0.47 0.43 0.47 0.54 0.56 0.55 0.55 0.56 0.54 0.56 0.65 0.61 0.46 0.45 0.48 0.57 0.76 0.94 1.15 1.33 1.36 1.18 1.10 1.22 1.24 1.05 0.92 1.06 1.15 1.19 1.18 1.20 1.20 1.16 1.01 0.80 0.75
1.47 1.40 1.15 1.00 0.77 0.75 0.69 0.63 0.52 0.44 0.40 0.32 0.38 0.48 0.54 0.59 0.57 0.51 0.48 0.52 0.51 0.56 0.64 0.66 0.56 0.47 0.46 0.51 0.59 0.64 0.93 1.11 1.25 1.28 1.06 1.18 1.22 1.15 1.03 0.96 1.15 1.15 1.19 1.23 1.25 1.27 1.15 1.04 0.95
1.35 1.26 1.03 0.94 0.83 0.74 0.68 0.60 0.54 0.45 0.39 0.36 0.42 0.54 0.58 0.61 0.62 0.56 0.50 0.47 0.44 0.51 0.58 0.61 0.63 0.59 0.55 0.54 0.56 0.54 0.59 0.71 0.82 0.78 0.75 0.94 1.06 1.05 1.05 0.92 0.99 1.09 1.23 1.43 1.49 1.32 1.23 1.17 1.10
1.08 1.18 1.24 1.04 0.86 0.69 0.69 0.80 0.60 0.51 0.48 0.46 0.47 0.51 0.57 0.54 0.55 0.52 0.47 0.43 0.42 0.47 0.52 0.55 0.61 0.66 0.66 0.66 0.74 0.67 0.62 0.67 0.66 0.62 0.63 0.74 0.85 0.89 1.02 1.02 0.98 1.02 1.24 1.49 1.63 1.50 1.39 1.22 1.22
1.13 1.32 1.60 1.28 1.08 0.84 0.92 1.06 0.56 0.50 0.55 0.51 0.47 0.45 0.45 0.43 0.45 0.46 0.45 0.43 0.43 0.42 0.41 0.44 0.48 0.52 0.57 0.62 0.69 0.76 0.76 0.77 0.74 0.77 0.73 0.68 0.81 0.94 1.06 1.12 1.06 1.06 1.27 1.49 1.68 1.72 1.68 1.55 1.49
1.28 1.26 1.27 1.23 1.08 0.90 0.87 0.82 0.49 0.47 0.56 0.57 0.48 0.44 0.41 0.33 0.32 0.35 0.34 0.36 0.39 0.39 0.34 0.32 0.34 0.35 0.38 0.43 0.54 0.66 0.74 0.82 0.89 0.90 0.89 0.87 0.91 0.94 1.09 1.26 1.29 1.29 1.40 1.49 1.53 1.63 1.61 1.64 1.65
0.95 0.87 0.89 1.02 0.88 0.86 0.80 0.58 0.43 0.45 0.50 0.53 0.54 0.48 0.41 0.30 0.25 0.23 0.25 0.29 0.32 0.33 0.32 0.31 0.32 0.31 0.28 0.32 0.45 0.56 0.63 0.72 0.89 0.97 1.03 1.30 1.40 1.18 1.14 1.27 1.29 1.35 1.53 1.58 1.69 1.87 1.79 1.68 1.78
0.65 0.60 0.70 0.74 0.63 0.76 0.71 0.53 0.43 0.40 0.37 0.39 0.45 0.45 0.40 0.30 0.19 0.11 0.10 0.14 0.19 0.18 0.17 0.19 0.25 0.32 0.30 0.27 0.33 0.45 0.54 0.68 0.82 0.99 1.05 1.30 1.41 1.31 1.33 1.34 1.34 1.38 1.45 1.50 1.67 2.01 2.03 1.86 1.75
0.60 0.63 0.66 0.64 0.57 0.66 0.72 0.58 0.45 0.36 0.32 0.33 0.35 0.37 0.35 0.26 0.16 0.11 0.08 0.09 0.10 0.11 0.10 0.13 0.16 0.26 0.33 0.36 0.41 0.54 0.71 0.84 0.94 1.08 1.15 1.26 1.29 1.29 1.23 1.38 1.47 1.44 1.54 1.62 1.76 2.04 2.22 2.02 1.84
0.54 0.61 0.58 0.61 0.66 0.60 0.68 0.74 0.56 0.39 0.34 0.34 0.32 0.33 0.31 0.22 0.17 0.14 0.11 0.10 0.07 0.08 0.08 0.13 0.21 0.34 0.51 0.67 0.89 1.14 1.42 1.54 1.44 1.30 1.37 1.49 1.57 1.54 1.48 1.55 1.68 1.60 1.62 1.69 1.73 1.81 2.22 2.36 2.15
0.62 0.42 0.40 0.48 0.70 0.71 0.59 0.77 0.58 0.40 0.39 0.39 0.35 0.30 0.26 0.23 0.20 0.16 0.13 0.12 0.11 0.16 0.22 0.31 0.43 0.58 0.76 0.96 1.18 1.45 1.69 1.85 1.86 1.88 1.92 1.90 1.86 1.76 1.64 1.65 1.69 1.69 1.75 1.70 1.59 1.73 2.12 2.56 2.57
0.50 0.42 0.39 0.45 0.62 0.60 0.54 0.56 0.49 0.42 0.48 0.49 0.46 0.40 0.35 0.33 0.30 0.28 0.25 0.22 0.23 0.34 0.46 0.56 0.78 0.94 1.08 1.15 1.25 1.47 1.58 1.65 1.76 1.90 1.95 1.95 1.88 1.77 1.62 1.55 1.61 1.68 1.77 1.76 1.81 1.99 2.26 2.51 2.72
0.41 0.48 0.51 0.57 0.64 0.59 0.41 0.42 0.51 0.44 0.48 0.57 0.54 0.47 0.42 0.38 0.35 0.36 0.39 0.39 0.42 0.63 0.85 0.99 1.09 1.18 1.17 1.16 1.18 1.31 1.45 1.54 1.63 1.76 1.82 1.76 1.64 1.60 1.55 1.53 1.50 1.47 1.54 1.64 1.81 2.06 2.19 2.38 2.59
0.39 0.57 0.68 0.70 0.63 0.47 0.27 0.32 0.43 0.36 0.34 0.41 0.44 0.41 0.37 0.31 0.29 0.33 0.41 0.54 0.72 0.96 1.17 1.31 1.31 1.20 1.06 1.04 1.11 1.17 1.32 1.49 1.54 1.54 1.53 1.51 1.44 1.38 1.40 1.42 1.38 1.29 1.27 1.39 1.57 1.80 1.86 1.99 2.20
0.33 0.41 0.60 0.65 0.53 0.40 0.31 0.44 0.48 0.36 0.26 0.23 0.24 0.26 0.30 0.34 0.40 0.41 0.46 0.64 0.92 1.17 1.41 1.67 1.65 1.41 1.19 1.12 1.19 1.22 1.32 1.39 1.39 1.30 1.29 1.32 1.27 1.21 1.15 1.17 1.18 1.17 1.17 1.20 1.31 1.44 1.50 1.60 1.81
0.31 0.31 0.32 0.47 0.41 0.36 0.33 0.39 0.37 0.25 0.20 0.19 0.22 0.27 0.36 0.40 0.50 0.59 0.69 0.78 0.98 1.20 1.52 1.80 1.86 1.65 1.48 1.40 1.34 1.34 1.26 1.19 1.12 1.03 1.02 1.05 1.07 1.00 0.95 1.01 1.10 1.17 1.11 1.06 1.13 1.24 1.27 1.41 1.56
0.25 0.27 0.29 0.49 0.54 0.49 0.37 0.39 0.32 0.21 0.16 0.18 0.29 0.35 0.42 0.49 0.51 0.66 0.91 1.11 1.35 1.30 1.42 1.66 1.59 1.52 1.49 1.51 1.49 1.39 1.24 1.12 1.08 1.00 1.00 0.95 0.99 0.90 0.90 0.93 0.93 0.96 0.96 1.00 1.10 1.21 1.29 1.32 1.39
0.22 0.25 0.27 0.36 0.39 0.52 0.59 0.51 0.30 0.25 0.26 0.31 0.40 0.44 0.49 0.56 0.59 0.73 0.89 1.04 1.23 1.33 1.34 1.39 1.37 1.37 1.33 1.26 1.22 1.10 0.90 0.79 0.80 0.82 0.80 0.75 0.77 0.71 0.72 0.69 0.74 0.86 0.88 0.87 1.00 1.06 1.07 1.18 1.27
0.25 0.27 0.29 0.46 0.48 0.47 0.68 0.71 0.40 0.39 0.44 0.52 0.59 0.64 0.68 0.68 0.72 0.81 0.89 1.01 1.09 1.10 1.13 1.22 1.15 1.13 1.09 0.98 0.87 0.76 0.62 0.57 0.61 0.63 0.59 0.52 0.53 0.49 0.54 0.57 0.57 0.76 0.92 0.95 0.98 0.99 0.96 1.04 1.10

GEFSSGP_prec_meanprecacc_204.txt.gz
Total_Precipitation_Accumulation
1.84 1.74 2.52 3.76 3.88 3.26 2.85 2.35 1.71 1.40 0.99 0.83 0.78 0.91 1.17 1.50 1.76 2.02 2.24 2.16 1.47 1.19 1.16 1.71 2.42 2.36 2.17 2.14 2.06 1.96 1.90 1.79 1.64 1.54 1.36 1.25 1.12 1.06 1.02 1.00 1.00 0.97 0.87 0.88 0.98 1.06 1.09 1.07 1.13
1.44 2.08 3.04 4.13 3.61 2.95 2.76 2.28 1.74 1.22 0.76 0.60 0.54 0.63 0.75 0.71 0.75 1.26 2.17 2.21 1.25 0.97 1.00 1.31 1.99 2.03 1.96 1.97 1.89 1.82 1.66 1.49 1.53 1.55 1.35 1.22 1.12 1.06 1.08 1.10 0.99 0.94 0.88 0.91 0.99 1.08 1.10 1.11 1.12
1.63 2.73 3.61 3.72 2.96 2.78 2.73 2.10 1.45 0.84 0.54 0.49 0.48 0.50 0.58 0.81 0.93 1.42 2.02 1.58 1.00 0.82 0.99 1.44 1.89 1.87 1.86 1.81 1.65 1.64 1.48 1.32 1.32 1.38 1.33 1.30 1.19 1.06 1.02 1.05 1.04 1.00 0.95 0.94 0.96 1.01 1.06 1.11 1.14
1.82 2.91 3.20 2.92 2.66 2.26 1.89 1.53 1.15 0.96 0.63 0.38 0.35 0.46 0.52 0.87 1.13 1.33 1.38 1.10 0.93 0.94 0.97 1.23 1.61 1.67 1.67 1.58 1.51 1.49 1.37 1.32 1.23 1.18 1.23 1.27 1.21 1.12 1.04 1.08 1.04 0.98 0.99 1.03 1.04 1.07 1.11 1.10 1.11
2.34 2.96 2.77 2.41 2.26 1.85 1.38 1.08 0.92 0.95 0.76 0.44 0.32 0.51 0.75 1.10 1.20 1.09 0.98 0.81 0.78 0.83 0.82 0.96 1.43 1.48 1.47 1.40 1.39 1.45 1.38 1.30 1.18 1.13 1.23 1.35 1.26 1.18 1.10 1.12 1.07 1.02 0.99 1.04 1.06 1.11 1.13 1.04 1.05
2.61 2.61 2.57 2.29 2.21 1.81 1.40 1.00 0.80 0.75 0.61 0.42 0.34 0.54 0.85 1.14 1.29 1.15 1.00 0.99 0.94 0.95 0.84 0.89 1.41 1.52 1.37 1.31 1.28 1.35 1.40 1.31 1.18 1.14 1.15 1.20 1.18 1.10 1.10 1.06 1.08 1.06 1.03 1.05 1.05 1.09 1.11 0.98 0.97
2.49 2.43 2.21 1.88 2.02 2.20 1.63 1.01 0.86 0.83 0.67 0.46 0.34 0.58 0.87 1.11 1.11 1.07 1.15 1.20 1.21 1.27 1.17 1.10 1.27 1.34 1.35 1.31 1.26 1.43 1.53 1.40 1.22 1.11 1.09 1.05 1.04 1.00 0.99 0.98 1.05 1.05 1.04 1.04 1.04 1.10 1.14 1.04 0.95
1.98 2.01 1.83 1.83 2.06 2.30 1.54 1.02 0.83 0.77 0.68 0.35 0.30 0.56 0.84 0.83 0.85 1.00 1.14 1.16 1.14 1.23 1.19 1.21 1.29 1.30 1.31 1.34 1.44 1.59 1.91 1.78 1.39 1.15 1.02 0.97 0.89 0.89 0.97 0.93 0.96 1.05 1.12 1.16 1.17 1.22 1.18 1.14 1.05
1.83 2.13 2.23 2.32 2.32 2.04 1.38 1.19 0.93 0.62 0.55 0.40 0.36 0.47 0.55 0.54 0.70 0.83 0.95 0.96 0.95 0.94 0.98 1.07 1.14 1.18 1.24 1.22 1.38 1.67 1.99 2.03 1.67 1.35 1.19 0.97 0.69 0.70 0.86 0.95 1.06 1.17 1.24 1.34 1.41 1.42 1.32 1.23 1.11
1.80 2.10 2.06 1.83 1.51 1.26 1.12 1.04 0.89 0.76 0.76 0.60 0.50 0.48 0.50 0.54 0.75 0.82 0.82 0.86 0.82 0.73 0.69 0.72 0.76 0.86 0.93 0.95 1.20 1.43 1.50 1.70 1.46 1.40 1.26 1.08 1.01 0.94 0.76 0.84 1.12 1.33 1.33 1.35 1.43 1.51 1.29 1.02 0.82
1.59 1.64 1.47 1.35 1.02 0.82 0.82 0.75 0.65 0.67 0.75 0.65 0.62 0.48 0.52 0.58 0.68 0.71 0.68 0.66 0.67 0.65 0.64 0.59 0.57 0.64 0.75 0.86 1.04 1.22 1.37 1.53 1.51 1.47 1.40 1.39 1.34 1.00 0.84 0.94 1.04 1.17 1.19 1.10 1.18 1.20 1.00 0.82 0.74
1.54 1.28 1.16 1.09 0.76 0.74 0.76 0.63 0.55 0.54 0.51 0.39 0.47 0.43 0.47 0.54 0.56 0.55 0.55 0.57 0.55 0.57 0.68 0.63 0.47 0.48 0.55 0.63 0.80 0.98 1.19 1.37 1.39 1.21 1.12 1.24 1.27 1.07 0.94 1.09 1.17 1.22 1.22 1.26 1.27 1.20 1.06 0.84 0.78
1.47 1.40 1.15 1.01 0.77 0.75 0.69 0.63 0.52 0.44 0.40 0.32 0.38 0.49 0.54 0.59 0.57 0.51 0.49 0.53 0.52 0.57 0.65 0.66 0.57 0.49 0.50 0.56 0.63 0.67 0.96 1.13 1.27 1.30 1.08 1.20 1.24 1.18 1.05 0.98 1.16 1.16 1.21 1.25 1.32 1.33 1.20 1.09 0.99
1.35 1.26 1.03 0.94 0.83 0.74 0.68 0.60 0.55 0.45 0.39 0.36 0.42 0.54 0.58 0.61 0.62 0.57 0.51 0.47 0.44 0.52 0.59 0.62 0.64 0.60 0.57 0.56 0.57 0.56 0.62 0.73 0.84 0.79 0.76 0.96 1.08 1.08 1.08 0.93 1.00 1.10 1.25 1.45 1.52 1.37 1.28 1.22 1.16
1.08 1.18 1.25 1.04 0.86 0.69 0.69 0.80 0.60 0.51 0.48 0.46 0.48 0.51 0.57 0.54 0.55 0.53 0.47 0.43 0.42 0.47 0.53 0.57 0.62 0.66 0.67 0.67 0.74 0.69 0.64 0.68 0.68 0.64 0.64 0.75 0.87 0.94 1.05 1.04 1.00 1.04 1.25 1.50 1.65 1.53 1.42 1.27 1.26
1.13 1.32 1.61 1.29 1.08 0.84 0.92 1.07 0.56 0.50 0.55 0.52 0.47 0.46 0.45 0.43 0.45 0.46 0.45 0.43 0.43 0.43 0.41 0.45 0.48 0.53 0.57 0.62 0.70 0.78 0.78 0.79 0.76 0.79 0.75 0.71 0.84 0.96 1.08 1.13 1.07 1.07 1.27 1.51 1.70 1.76 1.72 1.60 1.53
1.28 1.27 1.27 1.24 1.08 0.90 0.88 0.82 0.49 0.47 0.56 0.57 0.49 0.45 0.42 0.33 0.32 0.35 0.34 0.36 0.39 0.39 0.34 0.33 0.34 0.35 0.39 0.43 0.54 0.67 0.75 0.84 0.90 0.91 0.92 0.93 0.98 0.99 1.11 1.28 1.30 1.30 1.41 1.51 1.56 1.67 1.67 1.69 1.70
0.95 0.88 0.90 1.03 0.88 0.86 0.80 0.58 0.43 0.45 0.50 0.53 0.55 0.49 0.42 0.30 0.25 0.23 0.25 0.29 0.32 0.33 0.32 0.31 0.32 0.31 0.29 0.32 0.46 0.57 0.64 0.72 0.91 0.98 1.04 1.31 1.42 1.21 1.16 1.29 1.30 1.37 1.55 1.60 1.71 1.91 1.84 1.73 1.82
0.65 0.61 0.70 0.74 0.63 0.77 0.71 0.53 0.43 0.40 0.38 0.39 0.45 0.46 0.41 0.31 0.19 0.12 0.11 0.15 0.19 0.18 0.17 0.19 0.25 0.32 0.31 0.27 0.34 0.46 0.55 0.69 0.84 1.01 1.07 1.31 1.42 1.32 1.34 1.35 1.35 1.40 1.48 1.53 1.69 2.04 2.06 1.88 1.78
0.61 0.63 0.67 0.64 0.57 0.66 0.72 0.58 0.45 0.36 0.32 0.33 0.35 0.38 0.37 0.27 0.17 0.12 0.08 0.09 0.10 0.12 0.10 0.13 0.17 0.26 0.33 0.36 0.42 0.54 0.72 0.85 0.95 1.09 1.15 1.27 1.29 1.30 1.23 1.39 1.48 1.45 1.57 1.64 1.79 2.06 2.25 2.05 1.86
0.55 0.62 0.58 0.61 0.66 0.60 0.69 0.74 0.56 0.39 0.34 0.34 0.32 0.33 0.31 0.22 0.18 0.15 0.11 0.10 0.08 0.08 0.09 0.13 0.21 0.34 0.51 0.67 0.89 1.15 1.43 1.56 1.46 1.32 1.38 1.49 1.57 1.55 1.49 1.57 1.69 1.61 1.65 1.73 1.76 1.84 2.26 2.40 2.17
0.63 0.43 0.40 0.48 0.70 0.71 0.59 0.77 0.58 0.40 0.39 0.39 0.35 0.30 0.26 0.23 0.20 0.16 0.13 0.12 0.12 0.16 0.23 0.32 0.43 0.58 0.76 0.96 1.19 1.45 1.70 1.86 1.87 1.89 1.93 1.90 1.86 1.77 1.66 1.66 1.70 1.71 1.77 1.73 1.61 1.76 2.16 2.60 2.61
0.50 0.42 0.39 0.45 0.62 0.60 0.54 0.56 0.50 0.42 0.48 0.49 0.46 0.40 0.35 0.33 0.30 0.28 0.25 0.23 0.23 0.34 0.47 0.57 0.78 0.94 1.08 1.15 1.25 1.47 1.58 1.65 1.76 1.90 1.96 1.95 1.89 1.78 1.63 1.57 1.63 1.70 1.78 1.77 1.82 2.00 2.29 2.55 2.76
0.41 0.48 0.51 0.57 0.65 0.60 0.41 0.42 0.51 0.44 0.48 0.57 0.54 0.47 0.42 0.38 0.35 0.36 0.40 0.39 0.42 0.63 0.85 0.99 1.09 1.18 1.17 1.16 1.18 1.31 1.45 1.55 1.63 1.77 1.83 1.77 1.65 1.61 1.56 1.54 1.52 1.48 1.55 1.65 1.82 2.07 2.21 2.40 2.62
0.39 0.57 0.69 0.71 0.65 0.47 0.27 0.32 0.43 0.36 0.34 0.41 0.44 0.41 0.37 0.31 0.29 0.34 0.42 0.54 0.72 0.96 1.17 1.31 1.31 1.20 1.06 1.04 1.11 1.17 1.32 1.49 1.54 1.54 1.54 1.53 1.46 1.39 1.40 1.42 1.39 1.30 1.28 1.40 1.59 1.81 1.88 2.00 2.21
0.33 0.42 0.61 0.65 0.54 0.41 0.31 0.44 0.48 0.36 0.26 0.23 0.24 0.26 0.30 0.34 0.40 0.41 0.46 0.64 0.93 1.17 1.41 1.67 1.65 1.41 1.19 1.13 1.19 1.22 1.32 1.39 1.39 1.30 1.30 1.33 1.29 1.23 1.15 1.18 1.19 1.18 1.18 1.21 1.33 1.47 1.51 1.61 1.82
0.31 0.31 0.32 0.48 0.41 0.37 0.33 0.39 0.37 0.26 0.20 0.19 0.22 0.27 0.36 0.41 0.50 0.59 0.69 0.78 0.98 1.20 1.53 1.81 1.86 1.65 1.48 1.40 1.34 1.34 1.27 1.20 1.12 1.03 1.02 1.06 1.08 1.01 0.96 1.02 1.11 1.18 1.12 1.08 1.15 1.26 1.30 1.43 1.58
0.25 0.27 0.29 0.49 0.54 0.50 0.37 0.39 0.32 0.21 0.16 0.18 0.29 0.35 0.42 0.49 0.51 0.66 0.91 1.12 1.35 1.30 1.42 1.66 1.60 1.52 1.49 1.51 1.49 1.39 1.24 1.13 1.08 1.01 1.00 0.96 1.00 0.92 0.91 0.93 0.94 0.97 0.97 1.01 1.13 1.25 1.33 1.35 1.41
0.22 0.25 0.27 0.36 0.40 0.52 0.59 0.51 0.30 0.25 0.26 0.31 0.40 0.44 0.49 0.56 0.59 0.73 0.90 1.05 1.23 1.33 1.34 1.39 1.37 1.38 1.34 1.27 1.22 1.10 0.90 0.79 0.80 0.83 0.81 0.75 0.77 0.72 0.73 0.70 0.74 0.87 0.88 0.88 1.02 1.10 1.11 1.23 1.32
0.25 0.27 0.29 0.46 0.48 0.48 0.68 0.71 0.40 0.39 0.44 0.52 0.59 0.64 0.68 0.68 0.72 0.81 0.89 1.02 1.09 1.10 1.14 1.22 1.15 1.13 1.09 0.98 0.88 0.76 0.62 0.57 0.61 0.63 0.60 0.52 0.53 0.49 0.54 0.58 0.58 0.77 0.93 0.96 0.99 1.00 0.98 1.08 1.15

GEFSSGP_prec_meanprecacc_210.txt.gz
Total_Precipitation_Accumulation
1.85 1.74 2.54 3.82 4.02 3.39 2.92 2.41 1.77 1.44 1.02 0.84 0.79 0.92 1.20 1.54 1.82 2.11 2.35 2.27 1.53 1.24 1.20 1.75 2.46 2.40 2.21 2.20 2.18 2.08 2.01 1.98 1.80 1.66 1.48 1.34 1.19 1.13 1.11 1.13 1.13 1.08 0.97 0.97 1.08 1.18 1.25 1.24 1.26
1.45 2.09 3.06 4.23 3.78 3.06 2.83 2.35 1.79 1.24 0.78 0.61 0.54 0.65 0.77 0.73 0.78 1.32 2.26 2.30 1.30 1.01 1.03 1.34 2.02 2.06 2.01 2.01 1.94 1.89 1.74 1.61 1.65 1.66 1.47 1.31 1.19 1.12 1.14 1.18 1.11 1.05 0.97 1.01 1.09 1.19 1.24 1.23 1.23
1.63 2.73 3.66 3.84 3.08 2.86 2.79 2.16 1.48 0.85 0.55 0.49 0.49 0.51 0.60 0.83 0.96 1.46 2.09 1.65 1.02 0.84 1.01 1.48 1.93 1.91 1.91 1.87 1.70 1.69 1.56 1.42 1.41 1.45 1.40 1.38 1.26 1.13 1.10 1.13 1.13 1.11 1.06 1.05 1.06 1.10 1.16 1.22 1.22
1.82 2.94 3.26 3.01 2.72 2.31 1.93 1.58 1.18 0.98 0.64 0.38 0.36 0.47 0.54 0.90 1.18 1.37 1.42 1.13 0.96 0.96 1.00 1.26 1.65 1.70 1.71 1.64 1.57 1.56 1.45 1.42 1.32 1.25 1.28 1.33 1.28 1.19 1.12 1.17 1.13 1.05 1.07 1.12 1.15 1.18 1.22 1.22 1.20
2.35 3.00 2.85 2.48 2.29 1.87 1.40 1.10 0.95 0.96 0.77 0.44 0.32 0.52 0.77 1.15 1.25 1.13 1.01 0.82 0.81 0.87 0.84 1.00 1.48 1.54 1.54 1.50 1.50 1.53 1.45 1.39 1.26 1.19 1.27 1.40 1.33 1.25 1.18 1.20 1.15 1.07 1.04 1.12 1.15 1.20 1.23 1.16 1.17
2.63 2.66 2.65 2.35 2.25 1.84 1.42 1.01 0.81 0.76 0.61 0.42 0.34 0.55 0.87 1.17 1.34 1.18 1.03 1.01 0.96 0.97 0.88 0.95 1.47 1.59 1.47 1.43 1.38 1.45 1.49 1.41 1.28 1.21 1.21 1.25 1.23 1.16 1.15 1.12 1.13 1.09 1.07 1.13 1.13 1.16 1.20 1.09 1.06
2.51 2.47 2.28 1.93 2.07 2.23 1.65 1.02 0.86 0.84 0.67 0.46 0.34 0.59 0.88 1.14 1.14 1.10 1.16 1.22 1.22 1.29 1.21 1.22 1.37 1.41 1.47 1.43 1.36 1.52 1.64 1.51 1.31 1.19 1.15 1.09 1.08 1.05 1.04 1.04 1.10 1.09 1.08 1.10 1.12 1.16 1.21 1.11 1.02
1.99 2.04 1.89 1.89 2.11 2.33 1.55 1.02 0.83 0.77 0.68 0.35 0.30 0.56 0.85 0.84 0.86 1.01 1.15 1.17 1.15 1.24 1.20 1.24 1.35 1.35 1.36 1.39 1.52 1.69 2.00 1.88 1.48 1.22 1.06 1.00 0.93 0.94 1.03 1.00 1.02 1.10 1.16 1.20 1.21 1.25 1.22 1.20 1.10
1.84 2.16 2.28 2.37 2.38 2.09 1.39 1.19 0.93 0.62 0.55 0.40 0.36 0.47 0.55 0.54 0.71 0.83 0.96 0.97 0.96 0.94 0.98 1.08 1.16 1.20 1.28 1.25 1.41 1.75 2.08 2.12 1.74 1.39 1.23 1.02 0.74 0.74 0.92 1.03 1.13 1.23 1.30 1.37 1.44 1.45 1.36 1.26 1.14
1.80 2.13 2.09 1.85 1.53 1.28 1.12 1.04 0.89 0.76 0.76 0.60 0.50 0.48 0.50 0.54 0.75 0.83 0.83 0.87 0.83 0.75 0.70 0.73 0.77 0.88 0.95 0.98 1.23 1.48 1.56 1.76 1.50 1.43 1.30 1.13 1.06 0.99 0.83 0.90 1.19 1.37 1.38 1.40 1.48 1.55 1.32 1.05 0.84
1.59 1.64 1.48 1.36 1.03 0.82 0.82 0.75 0.65 0.67 0.75 0.65 0.62 0.48 0.52 0.58 0.68 0.72 0.69 0.68 0.68 0.67 0.65 0.59 0.58 0.65 0.76 0.88 1.06 1.26 1.42 1.58 1.57 1.51 1.44 1.44 1.40 1.06 0.92 0.99 1.09 1.21 1.23 1.17 1.26 1.26 1.04 0.85 0.78
1.54 1.28 1.16 1.09 0.76 0.74 0.76 0.63 0.55 0.54 0.51 0.39 0.47 0.43 0.47 0.54 0.56 0.55 0.56 0.58 0.56 0.58 0.68 0.63 0.48 0.49 0.56 0.65 0.83 1.01 1.22 1.42 1.45 1.25 1.16 1.29 1.33 1.14 1.01 1.15 1.22 1.26 1.26 1.32 1.35 1.27 1.10 0.87 0.81
1.47 1.40 1.15 1.01 0.77 0.75 0.69 0.63 0.52 0.44 0.40 0.32 0.38 0.49 0.54 0.59 0.57 0.52 0.49 0.53 0.52 0.57 0.65 0.67 0.58 0.51 0.54 0.59 0.67 0.71 0.99 1.17 1.30 1.34 1.12 1.24 1.28 1.23 1.11 1.05 1.22 1.20 1.24 1.28 1.35 1.37 1.25 1.14 1.03
1.35 1.26 1.03 0.94 0.83 0.74 0.68 0.60 0.55 0.45 0.39 0.36 0.42 0.54 0.58 0.61 0.62 0.57 0.51 0.47 0.45 0.53 0.60 0.62 0.64 0.61 0.60 0.59 0.61 0.59 0.66 0.76 0.86 0.82 0.78 0.98 1.11 1.12 1.12 0.99 1.04 1.13 1.27 1.47 1.54 1.40 1.33 1.27 1.21
1.08 1.18 1.25 1.05 0.86 0.69 0.69 0.80 0.60 0.51 0.48 0.46 0.48 0.51 0.57 0.54 0.55 0.53 0.47 0.44 0.43 0.48 0.54 0.57 0.62 0.67 0.69 0.71 0.78 0.71 0.66 0.70 0.70 0.66 0.65 0.77 0.89 0.97 1.07 1.08 1.04 1.07 1.28 1.52 1.68 1.57 1.46 1.32 1.31
1.14 1.33 1.62 1.30 1.08 0.85 0.93 1.08 0.56 0.50 0.55 0.52 0.47 0.46 0.45 0.43 0.45 0.46 0.45 0.43 0.43 0.43 0.42 0.45 0.48 0.54 0.59 0.66 0.73 0.81 0.80 0.81 0.78 0.81 0.77 0.72 0.85 0.98 1.10 1.15 1.09 1.09 1.29 1.53 1.75 1.80 1.76 1.66 1.58
1.29 1.28 1.29 1.25 1.09 0.90 0.88 0.83 0.49 0.47 0.56 0.57 0.49 0.45 0.42 0.33 0.33 0.36 0.36 0.37 0.40 0.40 0.35 0.33 0.34 0.36 0.40 0.46 0.56 0.70 0.78 0.85 0.91 0.93 0.94 0.94 1.00 1.02 1.14 1.30 1.32 1.32 1.43 1.53 1.58 1.70 1.71 1.74 1.74
0.97 0.89 0.92 1.04 0.89 0.86 0.81 0.59 0.43 0.46 0.51 0.53 0.55 0.49 0.43 0.30 0.25 0.24 0.27 0.31 0.33 0.34 0.34 0.34 0.32 0.32 0.30 0.34 0.47 0.60 0.68 0.75 0.92 0.99 1.05 1.32 1.44 1.24 1.20 1.31 1.33 1.39 1.57 1.63 1.74 1.95 1.88 1.77 1.86
0.66 0.62 0.72 0.75 0.64 0.77 0.72 0.53 0.43 0.40 0.38 0.40 0.46 0.46 0.42 0.32 0.21 0.14 0.12 0.17 0.22 0.21 0.20 0.24 0.26 0.32 0.31 0.28 0.35 0.49 0.61 0.73 0.87 1.03 1.08 1.31 1.43 1.34 1.35 1.37 1.37 1.42 1.51 1.55 1.72 2.09 2.11 1.92 1.82
0.62 0.63 0.67 0.65 0.58 0.66 0.72 0.58 0.45 0.36 0.32 0.33 0.35 0.38 0.37 0.28 0.17 0.13 0.10 0.11 0.15 0.19 0.14 0.16 0.18 0.26 0.33 0.36 0.42 0.56 0.75 0.87 0.97 1.12 1.17 1.27 1.30 1.31 1.24 1.40 1.49 1.47 1.60 1.67 1.82 2.11 2.32 2.09 1.90
0.56 0.63 0.59 0.61 0.67 0.61 0.69 0.75 0.57 0.39 0.34 0.34 0.33 0.33 0.31 0.23 0.18 0.15 0.12 0.11 0.10 0.14 0.11 0.14 0.22 0.34 0.51 0.67 0.89 1.15 1.45 1.58 1.49 1.35 1.41 1.50 1.58 1.55 1.49 1.58 1.70 1.62 1.68 1.77 1.81 1.89 2.33 2.46 2.22
0.63 0.43 0.40 0.49 0.71 0.72 0.60 0.79 0.58 0.40 0.39 0.39 0.35 0.30 0.26 0.23 0.20 0.17 0.15 0.13 0.13 0.18 0.24 0.32 0.43 0.58 0.76 0.96 1.19 1.45 1.71 1.89 1.90 1.91 1.94 1.91 1.87 1.77 1.66 1.67 1.72 1.72 1.79 1.77 1.64 1.79 2.21 2.66 2.68
0.51 0.42 0.40 0.46 0.63 0.61 0.55 0.58 0.51 0.42 0.48 0.49 0.46 0.40 0.35 0.33 0.31 0.29 0.27 0.25 0.24 0.35 0.47 0.57 0.78 0.94 1.08 1.15 1.25 1.47 1.58 1.66 1.77 1.92 1.97 1.96 1.90 1.78 1.64 1.58 1.65 1.72 1.80 1.79 1.84 2.03 2.32 2.60 2.84
0.42 0.49 0.52 0.57 0.65 0.61 0.42 0.43 0.52 0.44 0.48 0.57 0.54 0.47 0.42 0.38 0.35 0.37 0.40 0.40 0.42 0.64 0.86 0.99 1.09 1.18 1.17 1.16 1.18 1.31 1.45 1.55 1.65 1.81 1.86 1.80 1.68 1.63 1.57 1.54 1.53 1.50 1.57 1.67 1.85 2.10 2.23 2.42 2.65
0.40 0.59 0.71 0.73 0.67 0.48 0.28 0.34 0.44 0.36 0.34 0.41 0.44 0.41 0.37 0.31 0.29 0.34 0.42 0.54 0.73 0.97 1.18 1.31 1.31 1.21 1.07 1.04 1.11 1.17 1.32 1.49 1.55 1.56 1.57 1.56 1.48 1.42 1.42 1.43 1.39 1.31 1.29 1.42 1.62 1.86 1.91 2.02 2.25
0.34 0.43 0.63 0.69 0.57 0.42 0.31 0.45 0.48 0.36 0.26 0.23 0.24 0.26 0.31 0.34 0.40 0.41 0.46 0.64 0.93 1.18 1.42 1.67 1.65 1.41 1.19 1.13 1.19 1.22 1.32 1.40 1.40 1.31 1.32 1.34 1.30 1.24 1.16 1.18 1.20 1.19 1.18 1.22 1.35 1.50 1.54 1.63 1.85
0.31 0.32 0.33 0.50 0.43 0.39 0.34 0.40 0.37 0.26 0.20 0.19 0.22 0.27 0.36 0.41 0.50 0.59 0.69 0.78 0.99 1.21 1.54 1.81 1.86 1.65 1.49 1.40 1.34 1.35 1.27 1.20 1.13 1.04 1.04 1.06 1.09 1.02 0.97 1.02 1.12 1.19 1.13 1.09 1.18 1.30 1.33 1.44 1.60
0.25 0.27 0.30 0.51 0.57 0.52 0.38 0.40 0.33 0.22 0.16 0.18 0.29 0.35 0.42 0.49 0.51 0.66 0.91 1.12 1.36 1.30 1.44 1.68 1.61 1.53 1.49 1.51 1.49 1.39 1.25 1.13 1.08 1.01 1.01 0.97 1.01 0.93 0.92 0.94 0.95 0.97 0.98 1.02 1.16 1.29 1.35 1.37 1.44
0.23 0.25 0.27 0.37 0.40 0.54 0.62 0.53 0.30 0.26 0.26 0.32 0.41 0.44 0.49 0.56 0.59 0.73 0.90 1.05 1.23 1.34 1.35 1.39 1.38 1.38 1.34 1.27 1.22 1.10 0.90 0.79 0.80 0.83 0.81 0.75 0.77 0.73 0.74 0.71 0.74 0.87 0.89 0.89 1.03 1.11 1.12 1.24 1.33
0.26 0.28 0.29 0.46 0.48 0.48 0.69 0.72 0.40 0.39 0.44 0.52 0.59 0.64 0.68 0.68 0.72 0.81 0.89 1.02 1.09 1.10 1.14 1.22 1.15 1.14 1.09 0.99 0.88 0.76 0.62 0.57 0.61 0.64 0.60 0.52 0.53 0.49 0.55 0.58 0.58 0.77 0.94 0.96 1.00 1.01 0.99 1.09 1.18

GEFSSGP_prec_meanprecacc_216.txt.gz
Total_Precipitation_Accumulation
1.86 1.77 2.60 3.93 4.15 3.47 2.96 2.46 1.84 1.48 1.03 0.85 0.79 0.92 1.20 1.56 1.85 2.15 2.42 2.33 1.55 1.25 1.22 1.79 2.51 2.45 2.26 2.25 2.21 2.14 2.10 2.06 1.84 1.69 1.52 1.37 1.23 1.19 1.18 1.21 1.20 1.15 1.03 1.02 1.15 1.27 1.38 1.42 1.45
1.47 2.13 3.14 4.35 3.88 3.11 2.86 2.41 1.83 1.25 0.78 0.61 0.55 0.65 0.77 0.75 0.80 1.35 2.34 2.38 1.33 1.03 1.06 1.38 2.06 2.09 2.03 2.04 1.97 1.92 1.79 1.66 1.68 1.68 1.50 1.35 1.21 1.18 1.23 1.26 1.19 1.15 1.05 1.07 1.15 1.24 1.31 1.35 1.38
1.65 2.78 3.74 3.92 3.14 2.91 2.83 2.20 1.50 0.86 0.55 0.49 0.49 0.52 0.60 0.85 0.99 1.49 2.13 1.70 1.06 0.87 1.02 1.52 1.99 1.94 1.93 1.89 1.73 1.72 1.59 1.46 1.45 1.48 1.42 1.41 1.29 1.18 1.16 1.21 1.21 1.20 1.14 1.11 1.13 1.17 1.23 1.29 1.31
1.86 2.99 3.31 3.05 2.75 2.33 1.96 1.60 1.19 0.99 0.64 0.38 0.36 0.48 0.54 0.92 1.21 1.40 1.44 1.15 0.97 0.98 1.01 1.30 1.71 1.74 1.74 1.67 1.61 1.59 1.49 1.47 1.36 1.28 1.30 1.34 1.30 1.23 1.15 1.22 1.19 1.13 1.16 1.20 1.22 1.24 1.30 1.29 1.27
2.38 3.05 2.91 2.52 2.31 1.90 1.43 1.12 0.95 0.96 0.77 0.44 0.32 0.52 0.78 1.17 1.29 1.15 1.02 0.84 0.82 0.89 0.86 1.04 1.53 1.58 1.57 1.54 1.54 1.56 1.49 1.44 1.31 1.23 1.30 1.43 1.36 1.28 1.20 1.24 1.20 1.14 1.13 1.18 1.21 1.25 1.29 1.22 1.23
2.65 2.71 2.69 2.38 2.27 1.86 1.43 1.02 0.81 0.76 0.61 0.42 0.34 0.55 0.88 1.19 1.36 1.20 1.04 1.03 0.98 0.99 0.89 0.97 1.50 1.63 1.52 1.51 1.46 1.49 1.54 1.47 1.33 1.25 1.23 1.29 1.29 1.21 1.19 1.16 1.18 1.16 1.13 1.18 1.19 1.21 1.24 1.14 1.10
2.54 2.50 2.31 1.96 2.10 2.27 1.66 1.02 0.86 0.84 0.67 0.46 0.34 0.59 0.89 1.15 1.16 1.12 1.18 1.24 1.25 1.30 1.23 1.24 1.40 1.46 1.53 1.48 1.40 1.55 1.68 1.56 1.36 1.22 1.18 1.13 1.15 1.12 1.10 1.09 1.17 1.16 1.14 1.16 1.18 1.21 1.25 1.15 1.06
2.01 2.06 1.91 1.91 2.14 2.35 1.55 1.02 0.83 0.77 0.68 0.35 0.30 0.57 0.85 0.85 0.87 1.02 1.17 1.19 1.17 1.25 1.21 1.25 1.36 1.37 1.37 1.41 1.54 1.71 2.03 1.92 1.52 1.27 1.10 1.05 1.00 1.01 1.10 1.07 1.11 1.18 1.22 1.26 1.27 1.30 1.27 1.24 1.14
1.86 2.18 2.30 2.40 2.41 2.11 1.39 1.19 0.93 0.62 0.55 0.40 0.36 0.47 0.56 0.55 0.71 0.84 0.97 0.98 0.96 0.96 1.01 1.10 1.18 1.22 1.29 1.26 1.44 1.79 2.12 2.16 1.77 1.43 1.27 1.05 0.77 0.77 0.96 1.10 1.23 1.34 1.39 1.45 1.50 1.49 1.41 1.31 1.18
1.81 2.14 2.11 1.87 1.56 1.30 1.13 1.04 0.89 0.76 0.77 0.60 0.50 0.48 0.50 0.54 0.75 0.84 0.84 0.88 0.84 0.76 0.72 0.75 0.80 0.90 0.97 0.99 1.25 1.53 1.60 1.79 1.52 1.45 1.32 1.15 1.09 1.01 0.85 0.95 1.26 1.47 1.47 1.49 1.57 1.60 1.37 1.08 0.87
1.59 1.65 1.49 1.36 1.03 0.83 0.83 0.76 0.66 0.67 0.76 0.66 0.62 0.48 0.52 0.59 0.68 0.72 0.69 0.68 0.69 0.68 0.65 0.60 0.61 0.68 0.79 0.91 1.09 1.29 1.45 1.60 1.58 1.52 1.46 1.47 1.43 1.09 0.94 1.01 1.12 1.25 1.29 1.22 1.31 1.31 1.06 0.87 0.80
1.54 1.28 1.16 1.09 0.76 0.74 0.76 0.64 0.56 0.54 0.51 0.39 0.48 0.43 0.47 0.54 0.57 0.55 0.56 0.58 0.56 0.59 0.69 0.64 0.50 0.52 0.59 0.68 0.86 1.04 1.24 1.43 1.45 1.26 1.18 1.32 1.35 1.16 1.03 1.17 1.24 1.28 1.29 1.35 1.36 1.30 1.13 0.89 0.83
1.47 1.40 1.15 1.01 0.77 0.75 0.69 0.63 0.52 0.44 0.40 0.32 0.38 0.49 0.54 0.59 0.58 0.52 0.49 0.53 0.53 0.58 0.66 0.69 0.60 0.54 0.56 0.61 0.70 0.74 1.02 1.19 1.31 1.35 1.14 1.26 1.30 1.24 1.12 1.06 1.25 1.23 1.26 1.30 1.37 1.40 1.29 1.18 1.06
1.35 1.26 1.04 0.94 0.84 0.74 0.68 0.60 0.55 0.45 0.39 0.37 0.43 0.55 0.58 0.61 0.62 0.57 0.52 0.48 0.45 0.54 0.62 0.65 0.68 0.65 0.64 0.64 0.65 0.63 0.68 0.78 0.88 0.84 0.80 0.99 1.12 1.13 1.13 1.00 1.07 1.16 1.30 1.50 1.57 1.43 1.36 1.30 1.25
1.08 1.18 1.26 1.05 0.86 0.69 0.69 0.80 0.60 0.51 0.49 0.47 0.49 0.52 0.57 0.55 0.55 0.53 0.48 0.45 0.45 0.51 0.58 0.64 0.68 0.73 0.74 0.75 0.80 0.73 0.67 0.71 0.71 0.67 0.67 0.78 0.90 0.98 1.09 1.09 1.07 1.10 1.30 1.55 1.72 1.60 1.49 1.34 1.33
1.14 1.33 1.63 1.31 1.09 0.85 0.93 1.08 0.57 0.51 0.56 0.52 0.48 0.47 0.46 0.44 0.45 0.47 0.47 0.46 0.47 0.49 0.48 0.51 0.53 0.62 0.66 0.71 0.77 0.84 0.82 0.82 0.79 0.81 0.78 0.73 0.86 0.99 1.11 1.16 1.12 1.12 1.31 1.56 1.78 1.83 1.80 1.70 1.61
1.29 1.28 1.29 1.26 1.09 0.90 0.88 0.83 0.50 0.47 0.56 0.58 0.50 0.46 0.43 0.33 0.33 0.37 0.37 0.39 0.43 0.43 0.37 0.37 0.41 0.43 0.47 0.52 0.61 0.73 0.80 0.86 0.92 0.93 0.94 0.94 1.00 1.03 1.15 1.32 1.34 1.33 1.45 1.55 1.60 1.72 1.74 1.78 1.76
0.97 0.90 0.92 1.05 0.89 0.86 0.81 0.59 0.43 0.46 0.51 0.53 0.55 0.50 0.44 0.31 0.25 0.25 0.28 0.32 0.34 0.35 0.35 0.36 0.38 0.36 0.35 0.39 0.50 0.63 0.70 0.76 0.93 1.00 1.05 1.32 1.45 1.25 1.21 1.33 1.35 1.40 1.59 1.66 1.77 1.98 1.92 1.81 1.90
0.66 0.62 0.73 0.76 0.64 0.77 0.72 0.53 0.43 0.40 0.38 0.40 0.46 0.48 0.44 0.33 0.22 0.14 0.13 0.18 0.24 0.22 0.21 0.27 0.30 0.36 0.35 0.31 0.37 0.50 0.61 0.74 0.87 1.04 1.09 1.32 1.44 1.35 1.36 1.37 1.39 1.43 1.52 1.58 1.77 2.13 2.15 1.96 1.85
0.62 0.64 0.69 0.65 0.58 0.66 0.72 0.58 0.45 0.36 0.32 0.33 0.36 0.39 0.38 0.29 0.19 0.14 0.11 0.13 0.18 0.21 0.15 0.17 0.21 0.29 0.36 0.38 0.44 0.58 0.76 0.87 0.98 1.13 1.19 1.29 1.32 1.32 1.24 1.40 1.50 1.47 1.61 1.69 1.86 2.14 2.35 2.12 1.93
0.56 0.63 0.59 0.62 0.67 0.61 0.70 0.75 0.57 0.39 0.34 0.34 0.33 0.34 0.32 0.23 0.19 0.16 0.13 0.12 0.11 0.15 0.12 0.15 0.23 0.35 0.52 0.68 0.90 1.16 1.45 1.59 1.50 1.37 1.43 1.53 1.61 1.57 1.50 1.59 1.71 1.63 1.69 1.78 1.82 1.91 2.35 2.48 2.23
0.64 0.43 0.41 0.50 0.72 0.73 0.61 0.80 0.58 0.40 0.39 0.40 0.36 0.30 0.27 0.23 0.21 0.17 0.15 0.14 0.13 0.19 0.24 0.33 0.44 0.60 0.76 0.96 1.19 1.45 1.71 1.89 1.91 1.92 1.97 1.94 1.89 1.78 1.67 1.68 1.73 1.73 1.80 1.78 1.66 1.80 2.22 2.67 2.70
0.51 0.43 0.41 0.46 0.64 0.62 0.56 0.59 0.51 0.42 0.48 0.49 0.46 0.40 0.36 0.33 0.31 0.30 0.27 0.25 0.25 0.35 0.48 0.59 0.80 0.96 1.09 1.16 1.25 1.47 1.58 1.66 1.78 1.92 1.99 2.00 1.92 1.80 1.65 1.59 1.67 1.73 1.81 1.80 1.86 2.05 2.33 2.61 2.86
0.42 0.50 0.53 0.58 0.66 0.62 0.43 0.44 0.53 0.44 0.48 0.57 0.54 0.47 0.42 0.38 0.36 0.37 0.41 0.40 0.43 0.64 0.87 1.00 1.10 1.19 1.18 1.16 1.18 1.31 1.46 1.55 1.65 1.81 1.87 1.81 1.69 1.65 1.58 1.55 1.54 1.51 1.58 1.67 1.86 2.12 2.25 2.44 2.67
0.40 0.60 0.75 0.76 0.68 0.49 0.28 0.34 0.45 0.36 0.34 0.42 0.45 0.42 0.38 0.31 0.30 0.34 0.42 0.55 0.73 0.98 1.19 1.31 1.31 1.21 1.07 1.04 1.11 1.17 1.32 1.49 1.55 1.56 1.57 1.57 1.50 1.43 1.44 1.44 1.41 1.31 1.30 1.42 1.63 1.87 1.92 2.04 2.27
0.35 0.44 0.65 0.71 0.59 0.43 0.32 0.46 0.49 0.36 0.27 0.24 0.24 0.26 0.31 0.34 0.40 0.41 0.46 0.65 0.93 1.18 1.42 1.68 1.65 1.41 1.19 1.13 1.19 1.22 1.32 1.40 1.40 1.31 1.32 1.35 1.31 1.25 1.17 1.19 1.22 1.20 1.19 1.23 1.36 1.51 1.56 1.65 1.87
0.31 0.33 0.34 0.51 0.44 0.39 0.35 0.41 0.37 0.26 0.20 0.19 0.22 0.27 0.36 0.41 0.50 0.59 0.69 0.78 1.00 1.22 1.54 1.82 1.86 1.65 1.49 1.40 1.34 1.35 1.27 1.20 1.13 1.04 1.04 1.06 1.09 1.02 0.98 1.03 1.13 1.19 1.13 1.10 1.20 1.33 1.35 1.47 1.63
0.25 0.27 0.30 0.51 0.58 0.54 0.40 0.41 0.34 0.22 0.17 0.19 0.30 0.35 0.42 0.50 0.52 0.66 0.91 1.12 1.36 1.31 1.44 1.68 1.61 1.53 1.50 1.51 1.49 1.39 1.25 1.13 1.09 1.02 1.01 0.97 1.01 0.94 0.94 0.95 0.95 0.98 0.99 1.03 1.17 1.32 1.39 1.41 1.48
0.23 0.26 0.28 0.38 0.41 0.56 0.64 0.54 0.31 0.27 0.27 0.32 0.41 0.44 0.49 0.56 0.60 0.74 0.90 1.05 1.24 1.34 1.35 1.40 1.38 1.38 1.35 1.27 1.22 1.10 0.90 0.80 0.81 0.83 0.81 0.75 0.78 0.74 0.75 0.71 0.75 0.88 0.89 0.89 1.04 1.12 1.14 1.27 1.35
0.26 0.28 0.30 0.48 0.50 0.50 0.71 0.73 0.41 0.40 0.44 0.53 0.60 0.64 0.68 0.69 0.73 0.82 0.90 1.03 1.10 1.11 1.14 1.22 1.16 1.14 1.09 0.99 0.89 0.76 0.63 0.57 0.62 0.64 0.60 0.52 0.53 0.50 0.55 0.59 0.58 0.77 0.94 0.96 1.00 1.01 0.99 1.10 1.19

GEFSSGP_prec_meanprecacc_222.txt.gz
Total_Precipitation_Accumulation
1.87 1.78 2.62 3.98 4.18 3.48 2.98 2.49 1.86 1.49 1.03 0.85 0.80 0.93 1.21 1.57 1.86 2.17 2.45 2.35 1.56 1.27 1.26 1.92 2.67 2.58 2.35 2.31 2.27 2.21 2.19 2.14 1.92 1.78 1.62 1.48 1.32 1.25 1.26 1.29 1.27 1.20 1.10 1.13 1.30 1.50 1.57 1.55 1.57
1.48 2.14 3.16 4.38 3.89 3.12 2.87 2.42 1.84 1.26 0.79 0.62 0.55 0.65 0.78 0.75 0.81 1.36 2.36 2.40 1.35 1.05 1.09 1.45 2.16 2.19 2.13 2.10 2.03 1.99 1.86 1.74 1.75 1.75 1.56 1.43 1.31 1.28 1.32 1.34 1.26 1.21 1.11 1.14 1.25 1.36 1.43 1.46 1.52
1.67 2.79 3.75 3.92 3.15 2.92 2.84 2.21 1.51 0.86 0.55 0.50 0.49 0.52 0.60 0.86 1.00 1.50 2.14 1.72 1.07 0.88 1.05 1.58 2.08 2.03 2.02 1.97 1.79 1.79 1.66 1.54 1.52 1.55 1.46 1.46 1.35 1.26 1.24 1.29 1.30 1.28 1.21 1.17 1.22 1.27 1.33 1.41 1.45
1.88 3.00 3.32 3.05 2.75 2.33 1.96 1.60 1.19 0.99 0.64 0.38 0.36 0.48 0.55 0.93 1.22 1.41 1.45 1.16 0.98 1.00 1.04 1.37 1.80 1.82 1.82 1.74 1.66 1.65 1.55 1.53 1.44 1.36 1.36 1.40 1.36 1.30 1.23 1.31 1.27 1.22 1.25 1.29 1.31 1.35 1.43 1.42 1.39
2.40 3.05 2.91 2.52 2.31 1.90 1.43 1.12 0.96 0.97 0.77 0.44 0.32 0.53 0.79 1.18 1.31 1.16 1.03 0.85 0.83 0.90 0.88 1.09 1.60 1.65 1.63 1.60 1.60 1.64 1.58 1.52 1.39 1.31 1.35 1.47 1.41 1.34 1.27 1.34 1.30 1.24 1.21 1.27 1.29 1.36 1.41 1.34 1.34
2.66 2.71 2.70 2.38 2.27 1.87 1.44 1.03 0.81 0.76 0.62 0.42 0.34 0.55 0.88 1.19 1.37 1.22 1.06 1.05 0.99 1.00 0.91 1.01 1.56 1.69 1.58 1.57 1.52 1.57 1.62 1.56 1.42 1.32 1.29 1.35 1.34 1.26 1.25 1.23 1.29 1.27 1.23 1.26 1.29 1.31 1.35 1.23 1.20
2.55 2.50 2.31 1.96 2.10 2.27 1.67 1.03 0.87 0.84 0.67 0.46 0.34 0.59 0.90 1.15 1.17 1.12 1.19 1.26 1.26 1.32 1.24 1.27 1.43 1.49 1.58 1.56 1.47 1.64 1.75 1.64 1.44 1.29 1.24 1.19 1.21 1.19 1.17 1.17 1.27 1.27 1.24 1.24 1.27 1.29 1.33 1.24 1.14
2.02 2.07 1.91 1.92 2.15 2.36 1.56 1.03 0.84 0.78 0.68 0.35 0.30 0.57 0.87 0.86 0.88 1.02 1.17 1.20 1.20 1.26 1.23 1.27 1.38 1.38 1.39 1.44 1.60 1.77 2.09 1.98 1.60 1.35 1.18 1.12 1.06 1.08 1.18 1.15 1.21 1.29 1.33 1.35 1.36 1.39 1.36 1.33 1.22
1.86 2.18 2.31 2.40 2.41 2.11 1.39 1.20 0.93 0.62 0.55 0.40 0.37 0.47 0.56 0.56 0.71 0.84 0.97 0.99 0.98 0.97 1.02 1.12 1.20 1.23 1.30 1.27 1.46 1.82 2.17 2.21 1.82 1.48 1.33 1.09 0.79 0.79 1.01 1.17 1.33 1.45 1.51 1.58 1.61 1.61 1.52 1.39 1.25
1.82 2.15 2.12 1.87 1.56 1.30 1.14 1.04 0.89 0.76 0.77 0.60 0.50 0.48 0.50 0.54 0.75 0.84 0.85 0.88 0.84 0.76 0.72 0.76 0.80 0.91 0.98 1.00 1.27 1.55 1.61 1.81 1.54 1.46 1.33 1.16 1.09 1.02 0.88 1.00 1.35 1.59 1.60 1.64 1.69 1.71 1.50 1.17 0.95
1.60 1.65 1.49 1.37 1.04 0.84 0.84 0.76 0.66 0.67 0.76 0.66 0.62 0.48 0.52 0.59 0.68 0.72 0.69 0.68 0.69 0.68 0.66 0.61 0.62 0.68 0.81 0.93 1.12 1.31 1.46 1.61 1.59 1.53 1.47 1.48 1.45 1.10 0.96 1.03 1.15 1.30 1.36 1.29 1.37 1.35 1.13 0.95 0.88
1.54 1.28 1.16 1.09 0.76 0.75 0.77 0.64 0.56 0.54 0.52 0.39 0.48 0.43 0.47 0.54 0.57 0.56 0.57 0.59 0.57 0.59 0.70 0.65 0.51 0.53 0.61 0.70 0.89 1.06 1.26 1.44 1.47 1.27 1.19 1.33 1.37 1.19 1.05 1.19 1.25 1.30 1.32 1.38 1.39 1.31 1.15 0.93 0.87
1.47 1.40 1.15 1.01 0.77 0.75 0.69 0.63 0.53 0.45 0.41 0.33 0.38 0.49 0.54 0.60 0.58 0.52 0.50 0.54 0.54 0.59 0.68 0.71 0.62 0.56 0.59 0.65 0.73 0.77 1.05 1.21 1.33 1.37 1.15 1.27 1.31 1.26 1.13 1.08 1.27 1.25 1.28 1.32 1.40 1.42 1.31 1.20 1.08
1.35 1.26 1.04 0.94 0.84 0.74 0.68 0.60 0.55 0.46 0.41 0.37 0.43 0.55 0.58 0.62 0.63 0.58 0.53 0.49 0.46 0.55 0.64 0.67 0.69 0.67 0.67 0.68 0.69 0.67 0.73 0.81 0.90 0.85 0.81 1.00 1.13 1.15 1.14 1.01 1.08 1.18 1.32 1.52 1.60 1.46 1.40 1.33 1.28
1.08 1.19 1.26 1.05 0.86 0.69 0.69 0.80 0.60 0.52 0.50 0.48 0.50 0.53 0.58 0.55 0.56 0.54 0.49 0.46 0.46 0.52 0.59 0.65 0.71 0.76 0.77 0.78 0.83 0.79 0.73 0.75 0.73 0.68 0.68 0.78 0.90 0.99 1.10 1.10 1.09 1.12 1.32 1.57 1.75 1.63 1.52 1.36 1.36
1.14 1.33 1.63 1.31 1.09 0.85 0.93 1.08 0.57 0.51 0.56 0.53 0.49 0.47 0.46 0.44 0.45 0.48 0.48 0.47 0.49 0.50 0.49 0.52 0.55 0.63 0.67 0.73 0.79 0.88 0.88 0.86 0.82 0.83 0.78 0.73 0.86 0.99 1.12 1.18 1.14 1.13 1.32 1.57 1.80 1.87 1.84 1.73 1.63
1.29 1.28 1.29 1.26 1.09 0.90 0.88 0.83 0.50 0.48 0.57 0.58 0.51 0.47 0.43 0.33 0.33 0.38 0.38 0.40 0.44 0.44 0.38 0.39 0.43 0.45 0.48 0.53 0.62 0.75 0.83 0.89 0.95 0.95 0.95 0.95 1.00 1.03 1.15 1.33 1.36 1.35 1.46 1.57 1.62 1.75 1.76 1.80 1.79
0.97 0.90 0.93 1.05 0.89 0.86 0.81 0.59 0.43 0.46 0.51 0.54 0.57 0.52 0.45 0.31 0.26 0.25 0.29 0.33 0.35 0.36 0.36 0.37 0.40 0.38 0.36 0.40 0.51 0.64 0.71 0.77 0.95 1.01 1.05 1.33 1.45 1.25 1.21 1.35 1.36 1.41 1.60 1.67 1.79 2.00 1.93 1.82 1.91
0.67 0.62 0.74 0.76 0.64 0.77 0.72 0.53 0.43 0.40 0.38 0.40 0.46 0.48 0.44 0.33 0.22 0.15 0.13 0.19 0.24 0.23 0.21 0.27 0.31 0.37 0.36 0.32 0.37 0.51 0.63 0.75 0.88 1.05 1.10 1.32 1.44 1.36 1.37 1.38 1.40 1.44 1.53 1.60 1.79 2.15 2.17 1.98 1.87
0.62 0.64 0.69 0.65 0.58 0.66 0.72 0.58 0.45 0.36 0.32 0.33 0.36 0.39 0.38 0.30 0.20 0.14 0.11 0.13 0.18 0.21 0.16 0.18 0.21 0.30 0.37 0.39 0.45 0.58 0.77 0.89 0.99 1.14 1.20 1.29 1.32 1.33 1.25 1.41 1.51 1.48 1.62 1.70 1.88 2.17 2.38 2.14 1.95
0.56 0.63 0.59 0.62 0.67 0.61 0.70 0.75 0.57 0.39 0.34 0.34 0.33 0.34 0.32 0.23 0.19 0.16 0.14 0.12 0.11 0.15 0.12 0.15 0.23 0.36 0.53 0.68 0.92 1.17 1.46 1.60 1.50 1.37 1.44 1.53 1.62 1.58 1.51 1.59 1.72 1.64 1.69 1.80 1.85 1.94 2.37 2.51 2.26
0.64 0.43 0.41 0.50 0.72 0.74 0.61 0.80 0.59 0.40 0.39 0.40 0.36 0.30 0.27 0.23 0.21 0.18 0.15 0.14 0.13 0.19 0.25 0.34 0.45 0.61 0.78 0.98 1.20 1.46 1.71 1.90 1.91 1.93 1.97 1.95 1.90 1.79 1.67 1.68 1.74 1.74 1.81 1.79 1.67 1.83 2.25 2.71 2.73
0.51 0.43 0.41 0.47 0.64 0.62 0.56 0.59 0.51 0.42 0.48 0.49 0.47 0.41 0.36 0.33 0.31 0.30 0.28 0.25 0.25 0.36 0.49 0.59 0.81 0.97 1.11 1.17 1.26 1.48 1.58 1.66 1.78 1.92 1.99 2.00 1.92 1.80 1.65 1.59 1.67 1.73 1.81 1.81 1.87 2.06 2.35 2.63 2.88
0.42 0.50 0.53 0.58 0.66 0.62 0.43 0.44 0.53 0.44 0.48 0.58 0.54 0.47 0.42 0.38 0.36 0.38 0.41 0.41 0.44 0.65 0.88 1.00 1.10 1.20 1.19 1.17 1.19 1.31 1.46 1.55 1.65 1.81 1.87 1.82 1.69 1.65 1.58 1.55 1.54 1.51 1.58 1.68 1.88 2.14 2.28 2.46 2.69
0.40 0.60 0.75 0.76 0.68 0.49 0.28 0.34 0.45 0.36 0.34 0.42 0.45 0.42 0.38 0.31 0.30 0.35 0.43 0.55 0.74 0.98 1.19 1.32 1.31 1.22 1.07 1.05 1.12 1.17 1.32 1.49 1.55 1.56 1.58 1.57 1.50 1.43 1.44 1.45 1.41 1.32 1.31 1.43 1.64 1.90 1.96 2.07 2.30
0.35 0.44 0.65 0.71 0.60 0.43 0.32 0.46 0.49 0.36 0.27 0.24 0.24 0.26 0.31 0.34 0.40 0.42 0.47 0.65 0.94 1.19 1.42 1.68 1.65 1.42 1.20 1.14 1.19 1.22 1.32 1.40 1.40 1.31 1.32 1.35 1.31 1.25 1.17 1.19 1.22 1.20 1.19 1.23 1.37 1.53 1.57 1.66 1.88
0.31 0.33 0.34 0.51 0.44 0.40 0.35 0.41 0.37 0.26 0.20 0.19 0.22 0.27 0.36 0.42 0.51 0.59 0.69 0.78 1.00 1.22 1.54 1.82 1.87 1.66 1.49 1.41 1.34 1.35 1.27 1.20 1.13 1.04 1.04 1.06 1.09 1.02 0.98 1.03 1.14 1.20 1.14 1.10 1.20 1.34 1.36 1.47 1.64
0.25 0.27 0.30 0.52 0.58 0.54 0.40 0.41 0.34 0.22 0.17 0.19 0.30 0.35 0.42 0.50 0.52 0.67 0.91 1.12 1.36 1.31 1.44 1.68 1.62 1.53 1.50 1.51 1.49 1.39 1.25 1.13 1.09 1.02 1.01 0.97 1.01 0.94 0.94 0.96 0.96 0.99 0.99 1.03 1.17 1.32 1.39 1.42 1.49
0.23 0.26 0.28 0.38 0.41 0.56 0.64 0.54 0.31 0.27 0.27 0.32 0.41 0.44 0.49 0.56 0.60 0.74 0.91 1.06 1.24 1.35 1.35 1.40 1.39 1.39 1.35 1.28 1.22 1.10 0.90 0.80 0.81 0.83 0.81 0.75 0.78 0.74 0.75 0.71 0.75 0.88 0.89 0.89 1.04 1.12 1.14 1.27 1.36
0.26 0.29 0.31 0.48 0.50 0.50 0.71 0.73 0.41 0.40 0.44 0.53 0.60 0.64 0.68 0.69 0.73 0.83 0.90 1.04 1.11 1.12 1.15 1.23 1.16 1.14 1.10 1.00 0.90 0.77 0.63 0.58 0.62 0.64 0.60 0.52 0.54 0.50 0.55 0.59 0.58 0.77 0.94 0.97 1.00 1.01 0.99 1.10 1.20

GEFSSGP_prec_meanprecacc_228.txt.gz
Total_Precipitation_Accumulation
1.89 1.80 2.64 3.99 4.19 3.49 2.99 2.50 1.87 1.51 1.03 0.86 0.80 0.94 1.22 1.58 1.88 2.19 2.48 2.37 1.58 1.30 1.33 2.05 2.89 2.76 2.47 2.43 2.40 2.33 2.31 2.26 2.03 1.88 1.73 1.62 1.46 1.39 1.39 1.39 1.37 1.28 1.20 1.33 1.55 1.74 1.79 1.72 1.73
1.49 2.15 3.17 4.38 3.90 3.13 2.88 2.43 1.85 1.26 0.79 0.62 0.55 0.66 0.78 0.75 0.81 1.38 2.39 2.42 1.35 1.07 1.14 1.58 2.35 2.30 2.21 2.20 2.12 2.07 1.95 1.83 1.84 1.81 1.64 1.54 1.45 1.42 1.45 1.42 1.34 1.28 1.21 1.32 1.51 1.69 1.67 1.68 1.75
1.68 2.80 3.75 3.93 3.15 2.92 2.85 2.22 1.52 0.87 0.55 0.50 0.49 0.52 0.61 0.86 1.01 1.51 2.17 1.74 1.08 0.89 1.08 1.64 2.18 2.11 2.09 2.04 1.86 1.88 1.73 1.61 1.60 1.63 1.55 1.55 1.44 1.36 1.33 1.35 1.37 1.35 1.30 1.31 1.44 1.49 1.51 1.61 1.68
1.88 3.00 3.32 3.05 2.75 2.33 1.97 1.62 1.20 0.99 0.64 0.38 0.36 0.48 0.55 0.94 1.24 1.43 1.48 1.19 1.00 1.01 1.06 1.43 1.88 1.89 1.88 1.80 1.73 1.72 1.61 1.60 1.51 1.45 1.45 1.49 1.44 1.37 1.31 1.39 1.35 1.32 1.38 1.42 1.45 1.50 1.59 1.57 1.58
2.40 3.05 2.91 2.52 2.31 1.90 1.43 1.12 0.96 0.97 0.77 0.44 0.32 0.53 0.80 1.19 1.32 1.18 1.06 0.88 0.86 0.93 0.92 1.15 1.68 1.69 1.67 1.67 1.65 1.70 1.65 1.62 1.49 1.39 1.45 1.57 1.49 1.42 1.36 1.41 1.39 1.33 1.32 1.43 1.46 1.51 1.58 1.49 1.50
2.66 2.71 2.70 2.38 2.28 1.87 1.44 1.03 0.81 0.76 0.62 0.42 0.34 0.55 0.89 1.20 1.39 1.23 1.09 1.07 1.02 1.04 0.94 1.06 1.62 1.73 1.62 1.65 1.59 1.63 1.69 1.63 1.49 1.39 1.37 1.43 1.42 1.34 1.34 1.32 1.39 1.37 1.34 1.39 1.44 1.45 1.50 1.37 1.34
2.55 2.51 2.31 1.96 2.11 2.28 1.67 1.04 0.87 0.84 0.67 0.47 0.34 0.60 0.90 1.16 1.18 1.14 1.21 1.28 1.28 1.33 1.27 1.30 1.45 1.52 1.64 1.65 1.56 1.72 1.83 1.70 1.50 1.34 1.31 1.26 1.28 1.27 1.26 1.26 1.38 1.39 1.36 1.38 1.39 1.41 1.47 1.37 1.26
2.02 2.07 1.92 1.92 2.15 2.36 1.56 1.03 0.84 0.78 0.69 0.35 0.30 0.57 0.87 0.87 0.88 1.04 1.18 1.21 1.20 1.27 1.25 1.30 1.39 1.40 1.41 1.49 1.67 1.85 2.16 2.05 1.66 1.40 1.22 1.17 1.12 1.14 1.25 1.23 1.33 1.40 1.44 1.51 1.52 1.52 1.48 1.45 1.32
1.86 2.19 2.32 2.41 2.42 2.11 1.40 1.21 0.94 0.63 0.55 0.40 0.37 0.48 0.57 0.56 0.72 0.85 0.98 1.00 0.98 0.97 1.03 1.15 1.22 1.24 1.31 1.29 1.48 1.86 2.22 2.26 1.86 1.52 1.37 1.12 0.82 0.83 1.06 1.24 1.44 1.54 1.62 1.72 1.77 1.74 1.64 1.50 1.37
1.82 2.15 2.12 1.88 1.57 1.30 1.14 1.05 0.89 0.76 0.77 0.60 0.50 0.48 0.51 0.55 0.76 0.85 0.85 0.90 0.85 0.77 0.73 0.76 0.81 0.91 0.99 1.01 1.29 1.56 1.63 1.82 1.56 1.49 1.35 1.18 1.12 1.06 0.92 1.07 1.45 1.68 1.69 1.76 1.84 1.86 1.64 1.30 1.12
1.60 1.65 1.49 1.37 1.05 0.84 0.84 0.76 0.66 0.68 0.76 0.66 0.62 0.49 0.53 0.59 0.69 0.73 0.70 0.69 0.70 0.69 0.66 0.61 0.62 0.69 0.83 0.95 1.14 1.33 1.48 1.63 1.61 1.55 1.49 1.49 1.47 1.13 0.98 1.07 1.20 1.36 1.43 1.38 1.45 1.46 1.27 1.09 1.03
1.55 1.29 1.16 1.09 0.77 0.75 0.77 0.64 0.56 0.55 0.52 0.39 0.48 0.43 0.48 0.55 0.57 0.56 0.57 0.59 0.58 0.60 0.70 0.66 0.52 0.54 0.62 0.71 0.90 1.07 1.27 1.46 1.49 1.29 1.20 1.35 1.39 1.20 1.07 1.21 1.28 1.34 1.39 1.45 1.44 1.35 1.18 0.97 0.96
1.48 1.40 1.15 1.01 0.77 0.75 0.69 0.63 0.53 0.45 0.41 0.33 0.39 0.49 0.54 0.60 0.59 0.53 0.50 0.55 0.54 0.60 0.68 0.71 0.62 0.56 0.60 0.66 0.74 0.78 1.07 1.23 1.35 1.40 1.17 1.28 1.33 1.27 1.15 1.10 1.29 1.28 1.34 1.37 1.43 1.44 1.33 1.22 1.11
1.35 1.26 1.04 0.94 0.84 0.74 0.68 0.60 0.55 0.47 0.41 0.38 0.44 0.55 0.59 0.62 0.64 0.59 0.53 0.49 0.47 0.57 0.65 0.68 0.70 0.67 0.67 0.68 0.69 0.67 0.74 0.82 0.90 0.86 0.82 1.01 1.15 1.16 1.16 1.04 1.10 1.21 1.38 1.57 1.63 1.47 1.41 1.35 1.29
1.08 1.19 1.26 1.05 0.86 0.69 0.70 0.80 0.60 0.52 0.50 0.48 0.50 0.53 0.58 0.55 0.56 0.55 0.50 0.47 0.47 0.54 0.60 0.66 0.71 0.76 0.77 0.78 0.84 0.80 0.74 0.75 0.73 0.69 0.69 0.79 0.91 1.00 1.11 1.12 1.11 1.14 1.37 1.61 1.78 1.65 1.54 1.38 1.37
1.14 1.33 1.63 1.31 1.09 0.85 0.93 1.09 0.57 0.51 0.57 0.53 0.49 0.47 0.46 0.44 0.46 0.48 0.48 0.48 0.50 0.51 0.50 0.53 0.55 0.63 0.67 0.73 0.79 0.88 0.88 0.87 0.83 0.84 0.80 0.75 0.88 1.01 1.13 1.20 1.15 1.15 1.34 1.59 1.83 1.88 1.86 1.75 1.66
1.29 1.28 1.29 1.26 1.09 0.90 0.88 0.84 0.50 0.48 0.57 0.59 0.51 0.47 0.43 0.34 0.34 0.38 0.38 0.41 0.45 0.45 0.40 0.40 0.44 0.46 0.48 0.53 0.62 0.76 0.83 0.90 0.96 0.97 0.96 0.97 1.02 1.04 1.17 1.35 1.38 1.36 1.47 1.58 1.64 1.76 1.78 1.83 1.82
0.98 0.90 0.93 1.05 0.89 0.86 0.81 0.59 0.44 0.46 0.52 0.54 0.57 0.52 0.45 0.31 0.26 0.25 0.29 0.34 0.35 0.36 0.37 0.38 0.40 0.38 0.37 0.41 0.52 0.64 0.72 0.78 0.97 1.04 1.07 1.35 1.47 1.26 1.23 1.37 1.39 1.43 1.62 1.69 1.81 2.02 1.95 1.84 1.93
0.68 0.63 0.74 0.76 0.64 0.77 0.72 0.53 0.43 0.40 0.39 0.40 0.46 0.48 0.44 0.33 0.22 0.15 0.14 0.19 0.25 0.23 0.22 0.28 0.32 0.37 0.37 0.32 0.38 0.51 0.64 0.77 0.91 1.09 1.12 1.35 1.47 1.38 1.40 1.42 1.43 1.45 1.55 1.62 1.80 2.16 2.19 1.99 1.88
0.63 0.65 0.69 0.65 0.58 0.66 0.72 0.58 0.45 0.36 0.32 0.33 0.36 0.39 0.38 0.30 0.20 0.14 0.11 0.13 0.18 0.22 0.16 0.18 0.22 0.30 0.37 0.40 0.45 0.59 0.79 0.91 1.02 1.19 1.23 1.32 1.35 1.35 1.28 1.44 1.53 1.49 1.63 1.71 1.89 2.18 2.39 2.16 1.97
0.56 0.63 0.59 0.62 0.67 0.61 0.70 0.75 0.57 0.39 0.34 0.34 0.33 0.34 0.32 0.23 0.19 0.16 0.14 0.12 0.12 0.16 0.13 0.16 0.23 0.36 0.53 0.69 0.92 1.18 1.48 1.65 1.55 1.44 1.49 1.56 1.64 1.59 1.53 1.61 1.73 1.65 1.71 1.81 1.86 1.96 2.40 2.53 2.28
0.64 0.43 0.41 0.50 0.72 0.74 0.61 0.80 0.59 0.40 0.39 0.40 0.36 0.31 0.27 0.23 0.21 0.18 0.15 0.14 0.14 0.20 0.25 0.34 0.45 0.62 0.78 0.98 1.20 1.47 1.72 1.92 1.94 1.96 2.02 1.98 1.91 1.79 1.68 1.69 1.74 1.75 1.82 1.80 1.68 1.85 2.29 2.74 2.77
0.51 0.43 0.41 0.47 0.64 0.63 0.56 0.59 0.51 0.42 0.48 0.49 0.47 0.41 0.36 0.33 0.31 0.30 0.28 0.25 0.25 0.36 0.49 0.60 0.81 0.97 1.11 1.17 1.27 1.48 1.59 1.67 1.78 1.93 2.00 2.01 1.93 1.80 1.65 1.59 1.68 1.74 1.82 1.81 1.88 2.07 2.37 2.65 2.91
0.42 0.50 0.53 0.58 0.66 0.62 0.43 0.44 0.53 0.44 0.48 0.58 0.54 0.47 0.42 0.38 0.36 0.38 0.41 0.41 0.44 0.65 0.88 1.00 1.11 1.21 1.20 1.17 1.19 1.32 1.46 1.56 1.65 1.81 1.87 1.82 1.71 1.66 1.59 1.55 1.55 1.52 1.59 1.69 1.89 2.15 2.28 2.47 2.71
0.40 0.60 0.75 0.76 0.68 0.49 0.28 0.34 0.45 0.36 0.34 0.42 0.45 0.42 0.38 0.31 0.30 0.35 0.43 0.56 0.75 0.98 1.19 1.32 1.32 1.22 1.08 1.05 1.12 1.17 1.33 1.50 1.55 1.56 1.58 1.58 1.51 1.44 1.44 1.45 1.41 1.33 1.31 1.43 1.65 1.91 1.96 2.08 2.31
0.35 0.44 0.65 0.71 0.60 0.43 0.32 0.46 0.49 0.36 0.27 0.24 0.24 0.26 0.31 0.34 0.41 0.42 0.47 0.66 0.94 1.19 1.42 1.68 1.66 1.42 1.20 1.14 1.20 1.23 1.33 1.40 1.40 1.32 1.32 1.35 1.31 1.25 1.17 1.19 1.22 1.20 1.20 1.23 1.37 1.53 1.58 1.66 1.88
0.32 0.33 0.34 0.51 0.44 0.40 0.35 0.41 0.37 0.26 0.20 0.19 0.22 0.27 0.36 0.42 0.51 0.59 0.69 0.79 1.00 1.22 1.54 1.82 1.87 1.66 1.50 1.41 1.34 1.35 1.27 1.20 1.13 1.04 1.04 1.06 1.09 1.02 0.98 1.03 1.14 1.20 1.14 1.11 1.21 1.34 1.36 1.48 1.64
0.26 0.28 0.31 0.52 0.59 0.54 0.40 0.41 0.34 0.22 0.17 0.19 0.30 0.36 0.42 0.50 0.52 0.67 0.91 1.12 1.37 1.31 1.44 1.68 1.62 1.54 1.50 1.51 1.49 1.39 1.25 1.13 1.09 1.02 1.02 0.97 1.01 0.94 0.94 0.96 0.96 0.99 0.99 1.03 1.18 1.34 1.40 1.42 1.49
0.23 0.27 0.29 0.38 0.42 0.56 0.64 0.54 0.31 0.27 0.27 0.33 0.42 0.44 0.49 0.56 0.60 0.74 0.91 1.06 1.25 1.35 1.35 1.40 1.39 1.39 1.35 1.28 1.23 1.10 0.91 0.80 0.81 0.83 0.81 0.76 0.78 0.74 0.75 0.71 0.75 0.88 0.89 0.89 1.04 1.13 1.15 1.28 1.37
0.27 0.30 0.32 0.49 0.51 0.50 0.71 0.73 0.41 0.40 0.44 0.53 0.60 0.64 0.68 0.69 0.73 0.83 0.90 1.04 1.12 1.12 1.16 1.23 1.16 1.14 1.10 1.00 0.90 0.77 0.63 0.58 0.62 0.64 0.60 0.52 0.54 0.50 0.55 0.59 0.59 0.77 0.94 0.97 1.00 1.01 1.00 1.10 1.20

GEFSSGP_prec_meanprecacc_234.txt.gz
Total_Precipitation_Accumulation
1.92 1.82 2.68 4.06 4.30 3.59 3.05 2.55 1.93 1.53 1.04 0.86 0.81 0.94 1.23 1.60 1.92 2.25 2.54 2.42 1.61 1.33 1.39 2.11 2.99 2.88 2.59 2.51 2.49 2.43 2.40 2.34 2.12 1.95 1.80 1.71 1.53 1.48 1.51 1.50 1.48 1.40 1.31 1.42 1.64 1.83 1.90 1.84 1.84
1.53 2.18 3.21 4.46 4.02 3.22 2.92 2.48 1.89 1.27 0.79 0.63 0.55 0.66 0.78 0.76 0.82 1.40 2.42 2.45 1.37 1.09 1.18 1.64 2.43 2.38 2.29 2.26 2.16 2.12 2.02 1.88 1.91 1.88 1.70 1.62 1.52 1.54 1.60 1.55 1.45 1.37 1.30 1.39 1.59 1.78 1.77 1.80 1.86
1.72 2.82 3.79 4.01 3.23 2.97 2.89 2.26 1.54 0.87 0.55 0.50 0.50 0.52 0.61 0.88 1.03 1.54 2.20 1.76 1.10 0.92 1.12 1.68 2.22 2.17 2.16 2.10 1.90 1.91 1.77 1.64 1.64 1.68 1.60 1.61 1.51 1.47 1.50 1.50 1.46 1.44 1.43 1.44 1.57 1.62 1.64 1.74 1.80
1.91 3.02 3.35 3.11 2.79 2.35 2.00 1.64 1.20 1.00 0.64 0.38 0.36 0.49 0.56 0.95 1.26 1.46 1.52 1.24 1.03 1.04 1.09 1.46 1.91 1.94 1.93 1.84 1.77 1.76 1.65 1.64 1.56 1.50 1.50 1.55 1.50 1.43 1.38 1.46 1.43 1.40 1.55 1.68 1.69 1.69 1.78 1.77 1.80
2.41 3.08 2.96 2.57 2.32 1.91 1.44 1.13 0.96 0.98 0.77 0.44 0.33 0.54 0.81 1.20 1.33 1.19 1.08 0.91 0.89 0.97 0.96 1.19 1.71 1.73 1.70 1.70 1.72 1.76 1.70 1.67 1.56 1.46 1.51 1.63 1.56 1.49 1.42 1.49 1.48 1.42 1.46 1.66 1.69 1.68 1.74 1.70 1.74
2.69 2.73 2.75 2.42 2.28 1.87 1.44 1.03 0.82 0.77 0.62 0.42 0.34 0.56 0.91 1.22 1.40 1.24 1.10 1.09 1.05 1.08 0.98 1.09 1.65 1.76 1.66 1.69 1.65 1.68 1.74 1.69 1.57 1.46 1.43 1.50 1.49 1.42 1.41 1.41 1.50 1.48 1.45 1.53 1.58 1.57 1.62 1.47 1.47
2.58 2.53 2.35 1.98 2.12 2.28 1.68 1.04 0.87 0.85 0.68 0.47 0.34 0.60 0.93 1.18 1.19 1.15 1.22 1.29 1.28 1.35 1.29 1.33 1.47 1.55 1.67 1.70 1.62 1.76 1.87 1.77 1.57 1.40 1.36 1.32 1.36 1.35 1.34 1.35 1.48 1.48 1.47 1.49 1.50 1.52 1.57 1.46 1.35
2.03 2.08 1.93 1.94 2.17 2.38 1.56 1.03 0.84 0.79 0.69 0.35 0.30 0.58 0.89 0.88 0.89 1.04 1.18 1.22 1.21 1.28 1.27 1.32 1.41 1.41 1.43 1.52 1.71 1.90 2.21 2.08 1.70 1.44 1.27 1.24 1.20 1.21 1.32 1.31 1.42 1.48 1.52 1.59 1.60 1.62 1.58 1.54 1.39
1.87 2.21 2.34 2.43 2.43 2.12 1.40 1.21 0.94 0.63 0.55 0.41 0.37 0.48 0.57 0.56 0.72 0.85 1.00 1.01 0.98 0.97 1.04 1.15 1.22 1.25 1.32 1.31 1.51 1.91 2.27 2.30 1.90 1.56 1.42 1.20 0.91 0.90 1.12 1.29 1.51 1.62 1.67 1.78 1.86 1.83 1.72 1.58 1.44
1.82 2.17 2.13 1.88 1.58 1.31 1.14 1.05 0.89 0.77 0.77 0.61 0.51 0.48 0.51 0.55 0.76 0.85 0.87 0.93 0.87 0.78 0.74 0.77 0.81 0.92 1.01 1.02 1.32 1.61 1.66 1.85 1.59 1.51 1.39 1.25 1.18 1.12 0.97 1.10 1.51 1.74 1.74 1.82 1.93 1.94 1.70 1.38 1.21
1.60 1.67 1.50 1.37 1.05 0.84 0.84 0.76 0.66 0.68 0.77 0.66 0.63 0.49 0.53 0.59 0.69 0.73 0.70 0.70 0.72 0.71 0.67 0.62 0.62 0.70 0.85 0.98 1.16 1.36 1.51 1.66 1.64 1.57 1.51 1.53 1.52 1.18 1.04 1.10 1.23 1.40 1.48 1.43 1.51 1.54 1.36 1.18 1.13
1.55 1.29 1.16 1.09 0.77 0.75 0.77 0.64 0.57 0.55 0.52 0.39 0.48 0.43 0.48 0.55 0.58 0.56 0.57 0.60 0.59 0.62 0.71 0.66 0.52 0.54 0.63 0.72 0.91 1.09 1.29 1.48 1.51 1.32 1.24 1.38 1.43 1.24 1.12 1.25 1.32 1.38 1.44 1.49 1.48 1.39 1.23 1.03 1.03
1.48 1.40 1.15 1.01 0.77 0.75 0.69 0.63 0.54 0.46 0.41 0.33 0.39 0.49 0.54 0.60 0.59 0.53 0.51 0.55 0.56 0.62 0.69 0.72 0.63 0.57 0.60 0.66 0.75 0.79 1.08 1.24 1.37 1.43 1.20 1.30 1.36 1.30 1.19 1.15 1.33 1.32 1.38 1.40 1.46 1.47 1.34 1.24 1.15
1.35 1.26 1.04 0.94 0.84 0.75 0.68 0.60 0.55 0.47 0.41 0.38 0.44 0.55 0.59 0.63 0.64 0.59 0.54 0.50 0.48 0.58 0.66 0.68 0.70 0.68 0.68 0.69 0.70 0.68 0.74 0.83 0.91 0.87 0.84 1.02 1.17 1.19 1.20 1.08 1.15 1.25 1.42 1.62 1.67 1.50 1.42 1.35 1.31
1.08 1.19 1.26 1.05 0.86 0.69 0.70 0.81 0.60 0.52 0.50 0.48 0.50 0.53 0.58 0.56 0.57 0.55 0.51 0.48 0.48 0.54 0.61 0.66 0.71 0.77 0.77 0.79 0.85 0.80 0.74 0.76 0.74 0.70 0.70 0.80 0.92 1.01 1.13 1.16 1.14 1.18 1.41 1.66 1.82 1.67 1.55 1.40 1.39
1.14 1.33 1.63 1.31 1.09 0.85 0.93 1.10 0.58 0.52 0.57 0.53 0.49 0.47 0.46 0.44 0.46 0.48 0.49 0.50 0.52 0.53 0.51 0.54 0.56 0.64 0.68 0.74 0.80 0.89 0.88 0.87 0.83 0.85 0.81 0.77 0.90 1.03 1.14 1.23 1.18 1.19 1.38 1.63 1.85 1.90 1.88 1.78 1.68
1.30 1.28 1.29 1.26 1.09 0.90 0.88 0.84 0.50 0.48 0.57 0.59 0.51 0.47 0.44 0.34 0.34 0.38 0.39 0.43 0.47 0.47 0.41 0.40 0.44 0.47 0.49 0.54 0.63 0.76 0.83 0.90 0.97 0.97 0.97 0.98 1.05 1.07 1.19 1.39 1.40 1.38 1.50 1.61 1.66 1.78 1.80 1.85 1.84
0.99 0.91 0.93 1.05 0.89 0.86 0.81 0.60 0.44 0.46 0.52 0.54 0.57 0.52 0.45 0.31 0.26 0.25 0.29 0.34 0.36 0.37 0.37 0.39 0.40 0.39 0.38 0.41 0.52 0.65 0.72 0.78 0.98 1.05 1.08 1.36 1.49 1.29 1.26 1.41 1.42 1.46 1.65 1.72 1.83 2.03 1.95 1.85 1.94
0.70 0.65 0.74 0.76 0.64 0.77 0.72 0.54 0.44 0.40 0.39 0.40 0.47 0.48 0.44 0.33 0.22 0.15 0.14 0.19 0.25 0.24 0.23 0.28 0.32 0.37 0.37 0.32 0.38 0.52 0.65 0.77 0.92 1.10 1.14 1.35 1.48 1.41 1.43 1.45 1.46 1.50 1.58 1.65 1.83 2.18 2.20 2.00 1.89
0.65 0.68 0.71 0.66 0.58 0.66 0.72 0.58 0.46 0.36 0.32 0.34 0.36 0.40 0.38 0.30 0.20 0.14 0.11 0.13 0.18 0.22 0.17 0.18 0.22 0.30 0.37 0.40 0.45 0.60 0.79 0.91 1.03 1.21 1.26 1.34 1.37 1.37 1.31 1.47 1.56 1.53 1.67 1.76 1.93 2.22 2.42 2.18 1.98
0.58 0.65 0.61 0.63 0.67 0.62 0.70 0.76 0.57 0.39 0.34 0.34 0.33 0.34 0.32 0.23 0.19 0.16 0.14 0.12 0.12 0.16 0.13 0.16 0.23 0.37 0.53 0.69 0.92 1.18 1.48 1.65 1.57 1.46 1.52 1.62 1.68 1.62 1.56 1.65 1.76 1.68 1.73 1.84 1.90 2.01 2.46 2.58 2.31
0.65 0.44 0.41 0.50 0.73 0.74 0.62 0.82 0.59 0.40 0.39 0.40 0.36 0.31 0.27 0.23 0.21 0.18 0.15 0.14 0.14 0.20 0.25 0.34 0.46 0.62 0.78 0.98 1.21 1.47 1.73 1.93 1.97 2.02 2.06 2.02 1.96 1.84 1.72 1.73 1.78 1.78 1.84 1.82 1.69 1.87 2.33 2.80 2.82
0.52 0.43 0.41 0.47 0.64 0.63 0.56 0.60 0.52 0.42 0.48 0.49 0.47 0.41 0.36 0.33 0.31 0.30 0.28 0.25 0.25 0.36 0.49 0.60 0.81 0.98 1.12 1.18 1.27 1.49 1.59 1.68 1.80 1.97 2.03 2.04 1.97 1.85 1.69 1.63 1.72 1.77 1.84 1.83 1.90 2.09 2.39 2.68 2.95
0.42 0.50 0.53 0.58 0.66 0.63 0.44 0.45 0.54 0.44 0.49 0.58 0.54 0.47 0.42 0.39 0.36 0.38 0.41 0.41 0.44 0.65 0.88 1.00 1.11 1.21 1.20 1.18 1.19 1.32 1.46 1.56 1.66 1.83 1.89 1.84 1.73 1.69 1.62 1.58 1.58 1.55 1.61 1.71 1.91 2.16 2.30 2.49 2.74
0.40 0.61 0.77 0.78 0.71 0.50 0.28 0.34 0.45 0.36 0.34 0.42 0.45 0.42 0.38 0.31 0.30 0.35 0.43 0.56 0.75 0.98 1.19 1.32 1.32 1.22 1.08 1.06 1.12 1.17 1.33 1.50 1.56 1.57 1.59 1.59 1.53 1.46 1.45 1.46 1.43 1.34 1.32 1.44 1.66 1.92 1.98 2.09 2.33
0.35 0.44 0.66 0.73 0.61 0.44 0.32 0.46 0.49 0.36 0.27 0.24 0.24 0.26 0.31 0.34 0.41 0.42 0.47 0.66 0.94 1.19 1.42 1.68 1.66 1.42 1.20 1.15 1.20 1.23 1.33 1.41 1.40 1.32 1.34 1.36 1.32 1.25 1.17 1.20 1.23 1.21 1.21 1.24 1.38 1.55 1.60 1.68 1.90
0.32 0.33 0.34 0.51 0.45 0.40 0.35 0.41 0.37 0.26 0.20 0.19 0.22 0.27 0.36 0.42 0.51 0.60 0.70 0.79 1.00 1.22 1.54 1.82 1.87 1.67 1.51 1.42 1.34 1.35 1.28 1.21 1.14 1.05 1.05 1.07 1.10 1.02 0.98 1.04 1.14 1.20 1.15 1.12 1.21 1.35 1.38 1.50 1.66
0.26 0.28 0.31 0.52 0.60 0.56 0.41 0.41 0.34 0.22 0.17 0.19 0.30 0.36 0.42 0.50 0.52 0.68 0.93 1.13 1.37 1.31 1.44 1.69 1.62 1.54 1.52 1.52 1.50 1.39 1.25 1.14 1.10 1.02 1.02 0.98 1.02 0.95 0.95 0.96 0.96 0.99 0.99 1.04 1.20 1.36 1.43 1.44 1.51
0.24 0.27 0.29 0.39 0.42 0.57 0.65 0.54 0.31 0.27 0.27 0.33 0.42 0.44 0.49 0.56 0.60 0.75 0.93 1.08 1.25 1.35 1.36 1.40 1.39 1.39 1.36 1.29 1.23 1.10 0.91 0.81 0.82 0.84 0.82 0.76 0.78 0.74 0.75 0.71 0.75 0.88 0.90 0.90 1.05 1.15 1.17 1.29 1.39
0.27 0.30 0.32 0.50 0.52 0.50 0.73 0.75 0.41 0.40 0.44 0.53 0.60 0.64 0.68 0.69 0.73 0.83 0.91 1.05 1.12 1.12 1.16 1.23 1.16 1.14 1.11 1.00 0.90 0.77 0.64 0.58 0.63 0.64 0.60 0.53 0.54 0.50 0.55 0.59 0.59 0.78 0.94 0.97 1.00 1.01 1.00 1.11 1.21

GEFSSGP_prec_meanprecacc_240.txt.gz
Total_Precipitation_Accumulation
1.94 1.84 2.73 4.14 4.38 3.65 3.09 2.59 1.96 1.55 1.05 0.87 0.81 0.94 1.24 1.63 1.96 2.29 2.59 2.46 1.63 1.35 1.40 2.14 3.04 2.95 2.65 2.63 2.62 2.49 2.44 2.37 2.15 2.00 1.85 1.73 1.57 1.51 1.54 1.54 1.55 1.48 1.38 1.49 1.71 1.89 1.96 1.90 1.92
1.56 2.22 3.28 4.56 4.09 3.25 2.95 2.51 1.91 1.29 0.80 0.63 0.56 0.66 0.79 0.77 0.83 1.43 2.48 2.49 1.39 1.10 1.20 1.69 2.47 2.42 2.34 2.34 2.24 2.17 2.05 1.92 1.95 1.92 1.74 1.65 1.57 1.59 1.63 1.59 1.51 1.43 1.36 1.44 1.64 1.83 1.82 1.85 1.93
1.74 2.89 3.87 4.08 3.27 2.99 2.91 2.28 1.54 0.87 0.56 0.50 0.50 0.52 0.62 0.89 1.05 1.57 2.24 1.80 1.12 0.94 1.14 1.72 2.26 2.20 2.20 2.14 1.95 1.94 1.79 1.67 1.68 1.73 1.65 1.65 1.55 1.52 1.54 1.53 1.51 1.50 1.48 1.50 1.62 1.66 1.68 1.80 1.87
1.94 3.08 3.41 3.15 2.80 2.36 2.01 1.65 1.21 1.00 0.64 0.39 0.37 0.49 0.57 0.96 1.27 1.49 1.56 1.27 1.05 1.05 1.12 1.49 1.96 1.96 1.95 1.87 1.81 1.79 1.68 1.68 1.60 1.54 1.54 1.59 1.54 1.48 1.43 1.50 1.47 1.44 1.63 1.76 1.74 1.74 1.84 1.83 1.88
2.47 3.15 3.01 2.60 2.33 1.92 1.45 1.13 0.96 0.98 0.78 0.44 0.33 0.54 0.82 1.22 1.35 1.21 1.12 0.94 0.91 0.98 0.98 1.22 1.75 1.75 1.71 1.71 1.74 1.79 1.73 1.71 1.60 1.50 1.55 1.67 1.61 1.52 1.47 1.53 1.53 1.47 1.60 1.82 1.80 1.75 1.78 1.75 1.82
2.74 2.79 2.78 2.45 2.29 1.88 1.45 1.04 0.82 0.78 0.63 0.43 0.35 0.57 0.93 1.25 1.42 1.26 1.11 1.11 1.07 1.09 1.00 1.11 1.67 1.78 1.66 1.70 1.67 1.70 1.77 1.72 1.60 1.51 1.48 1.55 1.54 1.46 1.46 1.46 1.56 1.56 1.61 1.75 1.76 1.67 1.66 1.53 1.55
2.66 2.58 2.37 1.99 2.13 2.30 1.68 1.04 0.88 0.86 0.69 0.48 0.35 0.61 0.95 1.20 1.20 1.15 1.22 1.29 1.29 1.36 1.30 1.34 1.49 1.56 1.68 1.71 1.63 1.78 1.90 1.80 1.60 1.45 1.41 1.36 1.41 1.40 1.38 1.40 1.53 1.55 1.58 1.67 1.68 1.63 1.65 1.53 1.45
2.09 2.14 1.95 1.94 2.18 2.39 1.58 1.04 0.85 0.79 0.70 0.36 0.31 0.59 0.90 0.89 0.89 1.04 1.19 1.23 1.23 1.31 1.27 1.32 1.42 1.42 1.44 1.54 1.74 1.93 2.25 2.14 1.75 1.49 1.32 1.31 1.26 1.26 1.37 1.34 1.45 1.52 1.58 1.70 1.74 1.75 1.67 1.63 1.54
1.91 2.24 2.36 2.43 2.44 2.13 1.42 1.22 0.94 0.63 0.55 0.41 0.37 0.49 0.58 0.57 0.72 0.86 1.01 1.03 1.00 0.99 1.05 1.16 1.23 1.25 1.33 1.31 1.52 1.94 2.33 2.35 1.94 1.59 1.45 1.24 0.94 0.93 1.15 1.32 1.54 1.65 1.71 1.85 1.95 1.92 1.80 1.65 1.57
1.84 2.20 2.15 1.89 1.58 1.31 1.15 1.06 0.90 0.77 0.78 0.61 0.51 0.49 0.51 0.55 0.76 0.85 0.87 0.95 0.90 0.79 0.75 0.78 0.82 0.93 1.02 1.02 1.32 1.62 1.67 1.86 1.60 1.52 1.40 1.26 1.20 1.14 0.99 1.13 1.55 1.79 1.78 1.87 1.97 1.99 1.74 1.40 1.25
1.61 1.68 1.50 1.37 1.05 0.85 0.85 0.76 0.66 0.69 0.78 0.67 0.63 0.50 0.54 0.60 0.70 0.74 0.71 0.70 0.74 0.74 0.70 0.64 0.65 0.72 0.86 0.98 1.16 1.37 1.52 1.67 1.65 1.58 1.52 1.54 1.52 1.19 1.05 1.12 1.26 1.43 1.50 1.45 1.53 1.57 1.38 1.19 1.14
1.57 1.30 1.16 1.10 0.77 0.76 0.77 0.64 0.57 0.56 0.53 0.39 0.48 0.44 0.48 0.55 0.59 0.57 0.58 0.61 0.60 0.63 0.72 0.67 0.53 0.55 0.63 0.73 0.92 1.09 1.30 1.49 1.52 1.33 1.25 1.39 1.43 1.25 1.14 1.28 1.33 1.39 1.46 1.50 1.49 1.41 1.25 1.04 1.04
1.49 1.41 1.15 1.01 0.77 0.76 0.70 0.63 0.54 0.46 0.41 0.33 0.39 0.49 0.55 0.61 0.61 0.55 0.52 0.56 0.56 0.62 0.70 0.73 0.64 0.58 0.61 0.67 0.75 0.79 1.09 1.25 1.38 1.43 1.21 1.31 1.37 1.31 1.21 1.19 1.35 1.33 1.39 1.42 1.47 1.49 1.35 1.24 1.16
1.36 1.27 1.04 0.94 0.84 0.75 0.69 0.61 0.56 0.47 0.41 0.38 0.44 0.55 0.59 0.64 0.65 0.61 0.56 0.51 0.48 0.59 0.67 0.70 0.71 0.69 0.69 0.70 0.70 0.69 0.76 0.84 0.92 0.88 0.85 1.03 1.18 1.20 1.21 1.12 1.19 1.27 1.43 1.63 1.68 1.51 1.42 1.36 1.32
1.08 1.19 1.26 1.05 0.87 0.69 0.70 0.82 0.61 0.53 0.51 0.48 0.50 0.53 0.58 0.57 0.58 0.58 0.54 0.51 0.50 0.55 0.62 0.67 0.72 0.78 0.79 0.80 0.85 0.81 0.75 0.77 0.75 0.70 0.71 0.81 0.93 1.02 1.14 1.19 1.17 1.20 1.43 1.67 1.83 1.68 1.55 1.40 1.40
1.14 1.33 1.63 1.31 1.09 0.85 0.93 1.11 0.58 0.52 0.57 0.54 0.49 0.47 0.46 0.44 0.47 0.51 0.52 0.53 0.55 0.55 0.53 0.55 0.57 0.65 0.70 0.75 0.81 0.89 0.89 0.87 0.84 0.85 0.81 0.77 0.90 1.04 1.16 1.24 1.20 1.21 1.40 1.65 1.87 1.91 1.88 1.78 1.69
1.30 1.28 1.29 1.26 1.09 0.90 0.89 0.84 0.50 0.48 0.58 0.59 0.51 0.47 0.44 0.34 0.35 0.40 0.41 0.46 0.49 0.48 0.42 0.41 0.45 0.47 0.50 0.55 0.63 0.76 0.84 0.90 0.97 0.98 0.97 0.98 1.05 1.08 1.20 1.40 1.43 1.41 1.53 1.64 1.68 1.80 1.81 1.86 1.85
1.00 0.91 0.93 1.05 0.89 0.86 0.81 0.60 0.44 0.46 0.52 0.54 0.57 0.52 0.45 0.32 0.26 0.26 0.30 0.35 0.38 0.39 0.39 0.39 0.41 0.39 0.38 0.42 0.52 0.65 0.72 0.79 0.98 1.05 1.09 1.36 1.50 1.31 1.27 1.42 1.45 1.48 1.68 1.75 1.85 2.05 1.98 1.87 1.95
0.70 0.65 0.74 0.76 0.64 0.77 0.72 0.54 0.44 0.40 0.39 0.41 0.47 0.48 0.44 0.33 0.22 0.15 0.14 0.20 0.26 0.25 0.24 0.29 0.32 0.38 0.37 0.32 0.38 0.52 0.65 0.77 0.92 1.10 1.14 1.36 1.49 1.42 1.44 1.46 1.48 1.51 1.61 1.69 1.87 2.22 2.23 2.02 1.90
0.65 0.68 0.72 0.66 0.58 0.66 0.72 0.59 0.46 0.36 0.32 0.34 0.37 0.40 0.38 0.30 0.20 0.14 0.11 0.14 0.19 0.23 0.18 0.19 0.22 0.30 0.37 0.40 0.45 0.60 0.79 0.91 1.03 1.21 1.26 1.35 1.38 1.38 1.32 1.48 1.58 1.55 1.69 1.77 1.96 2.26 2.48 2.23 2.02
0.58 0.66 0.63 0.64 0.67 0.62 0.70 0.76 0.57 0.40 0.35 0.34 0.33 0.34 0.32 0.23 0.19 0.17 0.14 0.12 0.12 0.16 0.13 0.17 0.24 0.38 0.53 0.69 0.92 1.18 1.48 1.65 1.57 1.46 1.52 1.62 1.68 1.63 1.58 1.66 1.78 1.70 1.75 1.86 1.92 2.03 2.51 2.65 2.39
0.66 0.44 0.43 0.52 0.73 0.75 0.62 0.82 0.59 0.41 0.40 0.40 0.36 0.31 0.27 0.23 0.21 0.18 0.16 0.14 0.15 0.20 0.26 0.35 0.47 0.63 0.78 0.98 1.21 1.47 1.73 1.93 1.97 2.02 2.06 2.02 1.96 1.84 1.72 1.75 1.79 1.80 1.87 1.84 1.71 1.88 2.34 2.82 2.87
0.52 0.44 0.41 0.48 0.66 0.64 0.57 0.60 0.52 0.42 0.48 0.49 0.47 0.41 0.36 0.34 0.32 0.30 0.28 0.26 0.26 0.37 0.50 0.61 0.83 0.99 1.12 1.18 1.27 1.49 1.59 1.68 1.80 1.97 2.03 2.04 1.98 1.86 1.70 1.65 1.74 1.79 1.87 1.86 1.92 2.10 2.40 2.69 2.97
0.43 0.50 0.53 0.59 0.68 0.64 0.44 0.45 0.54 0.44 0.49 0.58 0.55 0.47 0.42 0.39 0.36 0.38 0.42 0.42 0.45 0.66 0.89 1.01 1.12 1.22 1.20 1.18 1.19 1.32 1.46 1.56 1.66 1.83 1.90 1.85 1.74 1.71 1.63 1.60 1.60 1.57 1.65 1.74 1.93 2.17 2.31 2.50 2.75
0.41 0.62 0.78 0.79 0.72 0.51 0.29 0.35 0.45 0.36 0.34 0.42 0.45 0.42 0.38 0.32 0.31 0.36 0.44 0.57 0.76 0.99 1.20 1.33 1.33 1.23 1.09 1.06 1.12 1.17 1.33 1.50 1.56 1.58 1.60 1.60 1.54 1.49 1.47 1.47 1.45 1.36 1.35 1.47 1.67 1.94 1.99 2.10 2.33
0.35 0.44 0.67 0.73 0.62 0.44 0.32 0.46 0.49 0.36 0.27 0.24 0.24 0.27 0.31 0.35 0.42 0.44 0.50 0.68 0.96 1.21 1.44 1.70 1.67 1.43 1.21 1.15 1.20 1.23 1.33 1.41 1.41 1.33 1.34 1.37 1.33 1.27 1.19 1.21 1.25 1.23 1.24 1.27 1.40 1.57 1.61 1.68 1.90
0.32 0.33 0.35 0.51 0.45 0.41 0.35 0.42 0.38 0.26 0.21 0.19 0.22 0.27 0.37 0.42 0.52 0.61 0.73 0.81 1.02 1.23 1.56 1.84 1.89 1.68 1.52 1.43 1.35 1.35 1.28 1.21 1.14 1.05 1.05 1.07 1.10 1.03 0.99 1.05 1.17 1.22 1.18 1.15 1.23 1.36 1.38 1.50 1.67
0.26 0.28 0.31 0.53 0.61 0.56 0.41 0.42 0.34 0.23 0.18 0.19 0.30 0.36 0.43 0.51 0.53 0.68 0.95 1.16 1.38 1.32 1.45 1.70 1.64 1.56 1.54 1.54 1.50 1.40 1.25 1.14 1.10 1.02 1.02 0.98 1.02 0.95 0.95 0.97 0.98 1.01 1.02 1.06 1.21 1.37 1.44 1.45 1.52
0.24 0.27 0.29 0.40 0.43 0.59 0.66 0.55 0.32 0.27 0.28 0.33 0.42 0.44 0.49 0.57 0.60 0.75 0.93 1.10 1.27 1.36 1.36 1.41 1.41 1.41 1.39 1.30 1.24 1.11 0.91 0.81 0.82 0.84 0.82 0.77 0.78 0.75 0.75 0.72 0.77 0.90 0.91 0.91 1.06 1.16 1.18 1.31 1.40
0.27 0.30 0.33 0.51 0.52 0.51 0.74 0.76 0.43 0.41 0.45 0.54 0.60 0.64 0.68 0.69 0.73 0.83 0.91 1.06 1.14 1.14 1.18 1.26 1.19 1.17 1.13 1.02 0.91 0.78 0.64 0.59 0.63 0.64 0.61 0.53 0.55 0.51 0.56 0.60 0.60 0.78 0.95 0.98 1.02 1.02 1.02 1.13 1.23

GEFSSGP_prec_meanprecacc_246.txt.gz
Total_Precipitation_Accumulation
1.99 1.88 2.76 4.17 4.40 3.66 3.09 2.60 1.97 1.56 1.06 0.87 0.81 0.95 1.25 1.65 2.00 2.40 2.68 2.50 1.66 1.37 1.44 2.20 3.10 3.03 2.73 2.70 2.68 2.55 2.51 2.44 2.23 2.07 1.90 1.82 1.65 1.62 1.70 1.70 1.69 1.59 1.46 1.56 1.77 1.95 2.01 1.98 2.00
1.59 2.25 3.31 4.59 4.10 3.25 2.95 2.52 1.91 1.29 0.81 0.63 0.56 0.66 0.79 0.78 0.85 1.50 2.58 2.57 1.46 1.14 1.23 1.74 2.57 2.52 2.44 2.44 2.32 2.24 2.11 2.00 2.03 1.99 1.80 1.72 1.65 1.69 1.73 1.68 1.61 1.53 1.43 1.49 1.69 1.88 1.87 1.91 2.00
1.76 2.92 3.89 4.09 3.27 2.99 2.91 2.29 1.55 0.88 0.56 0.51 0.50 0.52 0.62 0.89 1.06 1.60 2.30 1.87 1.20 0.99 1.18 1.79 2.37 2.30 2.29 2.24 2.03 2.01 1.86 1.74 1.74 1.81 1.72 1.74 1.63 1.59 1.61 1.61 1.59 1.58 1.55 1.56 1.67 1.72 1.73 1.87 1.95
1.98 3.11 3.44 3.15 2.80 2.37 2.02 1.65 1.21 1.01 0.65 0.39 0.37 0.49 0.57 0.97 1.28 1.51 1.58 1.31 1.09 1.08 1.15 1.55 2.03 2.02 2.00 1.93 1.90 1.86 1.74 1.73 1.65 1.61 1.61 1.66 1.62 1.55 1.50 1.57 1.54 1.53 1.73 1.84 1.82 1.80 1.89 1.89 1.95
2.51 3.18 3.03 2.60 2.34 1.93 1.45 1.14 0.97 0.99 0.78 0.45 0.33 0.54 0.82 1.23 1.38 1.23 1.14 0.96 0.93 1.00 1.00 1.27 1.80 1.78 1.74 1.75 1.81 1.85 1.79 1.76 1.66 1.58 1.64 1.75 1.68 1.60 1.55 1.61 1.61 1.57 1.67 1.90 1.86 1.81 1.84 1.80 1.88
2.77 2.80 2.79 2.45 2.30 1.89 1.45 1.04 0.82 0.78 0.63 0.44 0.35 0.57 0.93 1.26 1.46 1.28 1.12 1.11 1.07 1.10 1.01 1.13 1.70 1.81 1.69 1.73 1.72 1.76 1.83 1.76 1.65 1.58 1.57 1.63 1.61 1.54 1.53 1.53 1.63 1.63 1.70 1.85 1.83 1.73 1.71 1.58 1.61
2.68 2.59 2.37 1.99 2.13 2.30 1.69 1.04 0.88 0.86 0.69 0.48 0.35 0.62 0.95 1.21 1.21 1.16 1.23 1.30 1.30 1.36 1.30 1.34 1.49 1.57 1.70 1.74 1.69 1.84 1.98 1.87 1.65 1.50 1.46 1.43 1.48 1.46 1.43 1.45 1.59 1.63 1.70 1.78 1.76 1.71 1.73 1.61 1.56
2.10 2.14 1.95 1.94 2.18 2.39 1.58 1.04 0.85 0.79 0.70 0.36 0.31 0.59 0.91 0.90 0.90 1.05 1.19 1.24 1.24 1.31 1.27 1.32 1.42 1.43 1.45 1.57 1.80 2.00 2.33 2.20 1.79 1.53 1.37 1.38 1.32 1.32 1.41 1.38 1.50 1.60 1.73 1.91 1.89 1.87 1.77 1.78 1.68
1.92 2.25 2.36 2.43 2.44 2.14 1.42 1.22 0.95 0.63 0.55 0.41 0.37 0.49 0.58 0.57 0.73 0.86 1.02 1.05 1.02 1.00 1.05 1.16 1.23 1.25 1.33 1.32 1.55 1.98 2.37 2.39 1.97 1.61 1.48 1.27 0.95 0.94 1.17 1.36 1.60 1.72 1.85 2.12 2.18 2.10 1.92 1.77 1.69
1.85 2.21 2.15 1.89 1.58 1.31 1.15 1.06 0.90 0.77 0.78 0.61 0.51 0.49 0.52 0.56 0.77 0.86 0.88 0.96 0.90 0.80 0.76 0.79 0.83 0.94 1.02 1.03 1.33 1.62 1.67 1.87 1.61 1.53 1.41 1.27 1.20 1.14 1.00 1.15 1.59 1.84 1.88 2.05 2.22 2.19 1.84 1.45 1.30
1.62 1.68 1.51 1.37 1.05 0.85 0.85 0.76 0.66 0.69 0.78 0.67 0.63 0.51 0.55 0.60 0.71 0.76 0.72 0.72 0.75 0.75 0.72 0.66 0.66 0.73 0.86 0.99 1.17 1.37 1.52 1.68 1.65 1.58 1.53 1.55 1.53 1.20 1.06 1.13 1.27 1.46 1.54 1.50 1.61 1.66 1.44 1.22 1.17
1.58 1.30 1.16 1.10 0.77 0.76 0.77 0.64 0.57 0.56 0.53 0.39 0.48 0.44 0.48 0.56 0.59 0.58 0.59 0.62 0.60 0.63 0.72 0.68 0.54 0.56 0.65 0.75 0.93 1.10 1.30 1.50 1.53 1.33 1.25 1.39 1.44 1.26 1.15 1.29 1.33 1.41 1.50 1.54 1.53 1.44 1.27 1.07 1.06
1.51 1.41 1.15 1.01 0.77 0.76 0.70 0.63 0.54 0.46 0.41 0.33 0.39 0.50 0.55 0.61 0.61 0.56 0.52 0.56 0.56 0.63 0.70 0.73 0.64 0.59 0.63 0.69 0.76 0.80 1.09 1.25 1.38 1.44 1.21 1.32 1.38 1.32 1.22 1.20 1.37 1.34 1.43 1.46 1.50 1.51 1.37 1.26 1.17
1.39 1.28 1.04 0.94 0.84 0.75 0.69 0.61 0.56 0.47 0.41 0.38 0.44 0.56 0.59 0.64 0.66 0.62 0.56 0.51 0.49 0.59 0.67 0.70 0.72 0.70 0.70 0.71 0.71 0.70 0.76 0.84 0.92 0.88 0.85 1.03 1.18 1.21 1.23 1.14 1.21 1.30 1.47 1.68 1.72 1.54 1.45 1.37 1.33
1.10 1.20 1.27 1.05 0.87 0.69 0.70 0.82 0.61 0.53 0.51 0.48 0.50 0.53 0.58 0.57 0.58 0.59 0.55 0.52 0.51 0.56 0.62 0.68 0.73 0.79 0.80 0.81 0.86 0.82 0.76 0.77 0.75 0.70 0.71 0.81 0.93 1.03 1.15 1.21 1.19 1.23 1.47 1.73 1.87 1.71 1.57 1.42 1.42
1.16 1.34 1.65 1.32 1.09 0.85 0.94 1.11 0.58 0.52 0.57 0.54 0.49 0.47 0.46 0.45 0.47 0.51 0.53 0.54 0.55 0.56 0.53 0.56 0.58 0.66 0.72 0.77 0.82 0.90 0.89 0.88 0.84 0.85 0.81 0.77 0.91 1.04 1.16 1.25 1.21 1.22 1.42 1.68 1.90 1.94 1.91 1.82 1.73
1.32 1.30 1.30 1.27 1.09 0.90 0.89 0.84 0.50 0.48 0.58 0.59 0.51 0.47 0.44 0.34 0.35 0.41 0.42 0.46 0.50 0.49 0.42 0.42 0.46 0.48 0.51 0.56 0.64 0.76 0.84 0.90 0.97 0.98 0.98 0.99 1.05 1.08 1.20 1.41 1.44 1.42 1.54 1.66 1.71 1.85 1.87 1.92 1.90
1.01 0.92 0.94 1.05 0.89 0.86 0.81 0.60 0.44 0.46 0.52 0.54 0.57 0.52 0.45 0.32 0.26 0.26 0.31 0.37 0.39 0.40 0.39 0.39 0.41 0.40 0.39 0.42 0.52 0.65 0.73 0.79 0.99 1.06 1.09 1.37 1.50 1.31 1.28 1.43 1.46 1.49 1.68 1.76 1.86 2.08 2.03 1.93 2.02
0.70 0.65 0.75 0.76 0.64 0.77 0.72 0.55 0.45 0.40 0.39 0.41 0.47 0.48 0.44 0.34 0.22 0.15 0.15 0.21 0.27 0.26 0.24 0.29 0.33 0.39 0.38 0.33 0.39 0.53 0.66 0.78 0.92 1.11 1.14 1.37 1.50 1.43 1.45 1.47 1.49 1.52 1.61 1.69 1.88 2.22 2.24 2.06 1.95
0.65 0.69 0.72 0.67 0.58 0.67 0.72 0.59 0.46 0.36 0.32 0.34 0.37 0.40 0.38 0.30 0.20 0.15 0.12 0.14 0.20 0.23 0.18 0.19 0.23 0.32 0.38 0.41 0.46 0.60 0.80 0.92 1.03 1.21 1.26 1.35 1.39 1.39 1.34 1.50 1.59 1.56 1.69 1.78 1.96 2.27 2.49 2.25 2.06
0.59 0.66 0.63 0.65 0.68 0.62 0.70 0.76 0.57 0.40 0.35 0.34 0.33 0.34 0.32 0.23 0.19 0.17 0.14 0.12 0.13 0.17 0.14 0.17 0.25 0.38 0.53 0.69 0.93 1.18 1.48 1.65 1.57 1.46 1.52 1.62 1.68 1.63 1.59 1.68 1.79 1.71 1.76 1.87 1.93 2.03 2.51 2.66 2.40
0.66 0.45 0.44 0.52 0.74 0.75 0.62 0.82 0.59 0.41 0.40 0.40 0.36 0.31 0.27 0.24 0.21 0.18 0.16 0.15 0.15 0.21 0.26 0.36 0.48 0.63 0.78 0.98 1.21 1.47 1.73 1.93 1.97 2.02 2.06 2.03 1.96 1.84 1.73 1.76 1.81 1.81 1.87 1.85 1.72 1.89 2.35 2.83 2.88
0.52 0.44 0.42 0.49 0.66 0.64 0.57 0.60 0.52 0.42 0.48 0.49 0.47 0.41 0.36 0.34 0.32 0.31 0.30 0.27 0.27 0.37 0.51 0.61 0.84 0.99 1.12 1.18 1.27 1.49 1.59 1.68 1.80 1.97 2.03 2.04 1.98 1.86 1.70 1.65 1.76 1.81 1.88 1.88 1.94 2.11 2.41 2.70 2.97
0.43 0.51 0.55 0.61 0.69 0.65 0.45 0.45 0.54 0.44 0.49 0.58 0.55 0.47 0.42 0.39 0.37 0.40 0.44 0.44 0.46 0.67 0.90 1.02 1.13 1.23 1.21 1.18 1.20 1.32 1.46 1.56 1.66 1.83 1.90 1.85 1.75 1.71 1.63 1.60 1.61 1.59 1.66 1.76 1.95 2.19 2.33 2.52 2.75
0.42 0.62 0.79 0.81 0.73 0.52 0.29 0.35 0.46 0.36 0.34 0.42 0.45 0.42 0.38 0.32 0.32 0.38 0.46 0.59 0.77 1.00 1.21 1.34 1.34 1.25 1.10 1.06 1.13 1.18 1.33 1.50 1.56 1.58 1.60 1.60 1.55 1.49 1.48 1.48 1.46 1.38 1.37 1.50 1.71 1.96 2.02 2.12 2.34
0.36 0.45 0.68 0.75 0.63 0.44 0.32 0.47 0.49 0.36 0.27 0.24 0.24 0.27 0.32 0.36 0.42 0.45 0.51 0.68 0.96 1.21 1.45 1.71 1.68 1.46 1.24 1.16 1.21 1.24 1.34 1.41 1.41 1.33 1.34 1.37 1.34 1.29 1.20 1.22 1.26 1.25 1.25 1.30 1.44 1.61 1.64 1.70 1.91
0.34 0.34 0.35 0.52 0.45 0.41 0.36 0.42 0.38 0.26 0.21 0.20 0.22 0.27 0.37 0.43 0.52 0.62 0.74 0.82 1.02 1.24 1.57 1.85 1.90 1.70 1.54 1.45 1.36 1.36 1.28 1.21 1.14 1.05 1.05 1.07 1.10 1.05 1.02 1.07 1.18 1.24 1.20 1.17 1.27 1.41 1.42 1.51 1.67
0.27 0.29 0.32 0.53 0.61 0.57 0.41 0.42 0.35 0.23 0.18 0.20 0.30 0.36 0.43 0.51 0.53 0.69 0.95 1.16 1.38 1.32 1.46 1.71 1.66 1.58 1.56 1.57 1.53 1.41 1.26 1.14 1.10 1.03 1.02 0.98 1.03 0.96 0.98 1.00 1.00 1.03 1.04 1.09 1.25 1.42 1.47 1.46 1.52
0.25 0.28 0.30 0.41 0.44 0.59 0.66 0.55 0.32 0.27 0.28 0.33 0.42 0.44 0.49 0.57 0.61 0.76 0.94 1.10 1.27 1.36 1.36 1.42 1.42 1.43 1.41 1.34 1.29 1.15 0.94 0.82 0.83 0.84 0.83 0.77 0.79 0.75 0.77 0.76 0.80 0.92 0.94 0.94 1.10 1.19 1.20 1.32 1.41
0.29 0.31 0.33 0.52 0.53 0.52 0.74 0.76 0.43 0.41 0.45 0.54 0.61 0.65 0.69 0.70 0.73 0.84 0.92 1.06 1.15 1.14 1.18 1.26 1.20 1.19 1.15 1.05 0.95 0.82 0.69 0.63 0.65 0.65 0.62 0.54 0.56 0.53 0.59 0.65 0.63 0.83 0.99 1.02 1.05 1.05 1.03 1.14 1.24

GEFSSGP_prec_meanprecacc_252.txt.gz
Total_Precipitation_Accumulation
2.00 1.89 2.77 4.19 4.42 3.67 3.10 2.60 1.98 1.57 1.07 0.89 0.83 0.96 1.27 1.69 2.05 2.46 2.77 2.61 1.74 1.44 1.54 2.27 3.16 3.08 2.80 2.76 2.72 2.60 2.58 2.55 2.36 2.18 2.01 1.92 1.73 1.80 2.04 1.89 1.84 1.73 1.59 1.69 1.88 2.05 2.09 2.05 2.08
1.60 2.26 3.32 4.62 4.12 3.26 2.96 2.53 1.92 1.30 0.82 0.64 0.57 0.68 0.80 0.79 0.88 1.54 2.64 2.64 1.52 1.20 1.30 1.82 2.66 2.60 2.51 2.50 2.37 2.29 2.20 2.11 2.14 2.10 1.90 1.82 1.75 1.87 2.03 1.91 1.78 1.67 1.57 1.62 1.80 1.98 1.96 2.00 2.09
1.78 2.93 3.90 4.10 3.29 3.00 2.92 2.30 1.55 0.88 0.56 0.51 0.50 0.53 0.63 0.91 1.08 1.65 2.33 1.91 1.22 1.01 1.22 1.86 2.48 2.42 2.40 2.33 2.09 2.07 1.95 1.84 1.85 1.92 1.82 1.84 1.73 1.73 1.81 1.81 1.77 1.72 1.67 1.67 1.77 1.82 1.81 1.96 2.04
1.99 3.12 3.45 3.16 2.81 2.38 2.03 1.67 1.21 1.01 0.65 0.39 0.37 0.50 0.58 0.98 1.30 1.53 1.60 1.33 1.09 1.09 1.17 1.59 2.10 2.11 2.09 2.01 1.98 1.92 1.82 1.80 1.73 1.70 1.71 1.76 1.73 1.67 1.64 1.72 1.71 1.69 1.88 1.97 1.94 1.90 1.99 2.01 2.08
2.51 3.19 3.04 2.61 2.35 1.94 1.46 1.14 0.97 0.99 0.78 0.45 0.34 0.55 0.83 1.24 1.40 1.25 1.14 0.96 0.93 1.00 1.01 1.29 1.85 1.83 1.78 1.80 1.88 1.92 1.84 1.81 1.72 1.66 1.75 1.85 1.77 1.70 1.64 1.71 1.73 1.69 1.79 2.01 1.96 1.90 1.94 1.92 2.00
2.78 2.81 2.79 2.46 2.30 1.90 1.47 1.04 0.82 0.78 0.63 0.44 0.35 0.57 0.94 1.27 1.48 1.30 1.12 1.11 1.07 1.10 1.01 1.14 1.71 1.83 1.72 1.76 1.77 1.83 1.90 1.84 1.72 1.66 1.66 1.70 1.70 1.62 1.60 1.60 1.72 1.73 1.79 1.95 1.94 1.83 1.81 1.66 1.69
2.69 2.59 2.37 2.00 2.13 2.30 1.70 1.05 0.88 0.86 0.69 0.48 0.35 0.62 0.96 1.22 1.22 1.16 1.23 1.30 1.30 1.36 1.30 1.34 1.50 1.60 1.73 1.79 1.77 1.92 2.05 1.93 1.71 1.56 1.52 1.48 1.54 1.52 1.47 1.49 1.64 1.69 1.76 1.85 1.85 1.82 1.83 1.71 1.65
2.10 2.14 1.95 1.95 2.18 2.40 1.58 1.04 0.85 0.79 0.70 0.36 0.31 0.59 0.92 0.91 0.90 1.05 1.20 1.24 1.24 1.31 1.27 1.33 1.43 1.45 1.48 1.60 1.86 2.07 2.39 2.25 1.84 1.56 1.40 1.41 1.35 1.36 1.45 1.42 1.56 1.67 1.80 2.00 2.01 1.99 1.88 1.88 1.77
1.92 2.25 2.36 2.43 2.44 2.14 1.42 1.22 0.95 0.63 0.55 0.41 0.37 0.49 0.58 0.57 0.73 0.87 1.03 1.06 1.03 1.01 1.06 1.16 1.23 1.26 1.34 1.34 1.57 2.01 2.40 2.41 1.99 1.63 1.50 1.28 0.98 0.97 1.22 1.42 1.68 1.81 1.95 2.27 2.33 2.23 2.02 1.87 1.78
1.85 2.21 2.16 1.89 1.58 1.32 1.15 1.06 0.90 0.77 0.78 0.61 0.51 0.49 0.52 0.56 0.78 0.87 0.90 0.98 0.91 0.81 0.77 0.79 0.83 0.94 1.03 1.04 1.35 1.63 1.68 1.88 1.62 1.54 1.42 1.27 1.22 1.17 1.02 1.19 1.63 1.90 1.97 2.21 2.36 2.28 1.90 1.50 1.35
1.62 1.69 1.51 1.37 1.05 0.85 0.85 0.76 0.66 0.69 0.78 0.68 0.64 0.51 0.55 0.60 0.72 0.77 0.73 0.72 0.75 0.76 0.73 0.66 0.66 0.73 0.87 1.02 1.19 1.38 1.54 1.69 1.67 1.59 1.53 1.56 1.54 1.21 1.07 1.13 1.28 1.49 1.61 1.62 1.77 1.80 1.53 1.27 1.22
1.59 1.31 1.16 1.10 0.77 0.76 0.77 0.64 0.57 0.56 0.53 0.40 0.48 0.44 0.49 0.56 0.60 0.59 0.60 0.62 0.61 0.63 0.72 0.68 0.54 0.56 0.66 0.76 0.94 1.10 1.31 1.50 1.54 1.34 1.26 1.40 1.45 1.27 1.16 1.30 1.35 1.44 1.57 1.63 1.65 1.60 1.40 1.14 1.11
1.51 1.41 1.15 1.01 0.77 0.76 0.70 0.63 0.54 0.46 0.41 0.33 0.39 0.50 0.55 0.61 0.61 0.57 0.53 0.57 0.57 0.63 0.71 0.74 0.64 0.59 0.64 0.70 0.78 0.80 1.09 1.26 1.39 1.44 1.21 1.32 1.38 1.33 1.23 1.21 1.37 1.37 1.49 1.53 1.60 1.63 1.48 1.33 1.22
1.39 1.28 1.04 0.94 0.84 0.75 0.69 0.61 0.56 0.47 0.41 0.38 0.44 0.56 0.59 0.64 0.66 0.62 0.57 0.52 0.49 0.59 0.68 0.70 0.72 0.70 0.70 0.72 0.73 0.72 0.78 0.85 0.93 0.88 0.85 1.04 1.18 1.21 1.24 1.15 1.22 1.33 1.52 1.74 1.79 1.62 1.52 1.42 1.37
1.11 1.21 1.27 1.05 0.87 0.69 0.70 0.82 0.61 0.53 0.51 0.48 0.50 0.53 0.59 0.57 0.59 0.59 0.55 0.52 0.52 0.57 0.63 0.68 0.73 0.79 0.81 0.82 0.87 0.83 0.77 0.78 0.75 0.70 0.71 0.82 0.94 1.03 1.16 1.22 1.20 1.26 1.51 1.77 1.91 1.74 1.60 1.44 1.44
1.18 1.35 1.65 1.32 1.09 0.85 0.94 1.11 0.58 0.52 0.57 0.54 0.49 0.47 0.46 0.45 0.47 0.51 0.53 0.54 0.56 0.57 0.54 0.56 0.58 0.68 0.73 0.78 0.82 0.91 0.90 0.89 0.85 0.85 0.81 0.77 0.91 1.05 1.17 1.27 1.23 1.26 1.47 1.71 1.92 1.95 1.92 1.83 1.76
1.33 1.31 1.31 1.27 1.09 0.90 0.89 0.84 0.50 0.48 0.58 0.59 0.51 0.47 0.44 0.34 0.35 0.41 0.42 0.47 0.50 0.50 0.44 0.43 0.47 0.50 0.53 0.57 0.65 0.77 0.85 0.91 0.98 0.98 0.98 0.99 1.05 1.09 1.21 1.43 1.47 1.46 1.58 1.68 1.72 1.86 1.88 1.94 1.94
1.02 0.93 0.94 1.06 0.90 0.86 0.81 0.60 0.44 0.46 0.52 0.54 0.57 0.52 0.45 0.32 0.26 0.26 0.32 0.38 0.40 0.41 0.42 0.42 0.43 0.43 0.41 0.43 0.53 0.66 0.74 0.80 1.00 1.06 1.09 1.37 1.50 1.31 1.28 1.46 1.50 1.53 1.72 1.79 1.88 2.09 2.04 1.95 2.04
0.72 0.67 0.76 0.77 0.64 0.78 0.72 0.55 0.45 0.40 0.39 0.41 0.47 0.48 0.44 0.34 0.22 0.15 0.15 0.21 0.27 0.27 0.25 0.31 0.34 0.41 0.40 0.35 0.40 0.54 0.66 0.79 0.94 1.12 1.15 1.37 1.51 1.43 1.46 1.49 1.53 1.56 1.65 1.72 1.89 2.23 2.25 2.07 1.97
0.67 0.71 0.74 0.68 0.59 0.67 0.73 0.59 0.46 0.36 0.32 0.34 0.37 0.40 0.38 0.30 0.20 0.15 0.12 0.14 0.20 0.24 0.18 0.20 0.23 0.33 0.40 0.42 0.48 0.62 0.80 0.92 1.04 1.22 1.27 1.36 1.39 1.40 1.35 1.52 1.62 1.58 1.72 1.79 1.97 2.28 2.50 2.26 2.07
0.61 0.67 0.65 0.66 0.69 0.63 0.71 0.77 0.58 0.40 0.35 0.34 0.34 0.34 0.32 0.23 0.19 0.17 0.14 0.12 0.13 0.17 0.14 0.18 0.26 0.40 0.55 0.70 0.94 1.19 1.49 1.65 1.57 1.47 1.53 1.62 1.69 1.64 1.60 1.68 1.80 1.72 1.77 1.89 1.94 2.05 2.53 2.67 2.42
0.69 0.46 0.45 0.54 0.76 0.77 0.63 0.83 0.60 0.41 0.40 0.40 0.36 0.31 0.27 0.24 0.21 0.18 0.16 0.15 0.15 0.21 0.27 0.36 0.48 0.64 0.79 0.98 1.21 1.47 1.73 1.93 1.97 2.03 2.06 2.03 1.96 1.84 1.73 1.76 1.82 1.82 1.88 1.86 1.73 1.90 2.36 2.85 2.90
0.55 0.45 0.44 0.51 0.68 0.66 0.59 0.61 0.53 0.43 0.49 0.49 0.47 0.41 0.36 0.34 0.32 0.31 0.30 0.27 0.27 0.38 0.51 0.62 0.85 1.01 1.13 1.18 1.27 1.49 1.59 1.68 1.80 1.97 2.04 2.04 1.98 1.86 1.71 1.66 1.77 1.82 1.89 1.89 1.95 2.11 2.42 2.71 2.99
0.45 0.52 0.56 0.63 0.71 0.66 0.46 0.46 0.55 0.45 0.50 0.58 0.55 0.47 0.43 0.39 0.37 0.40 0.45 0.44 0.46 0.67 0.90 1.03 1.14 1.25 1.23 1.19 1.20 1.32 1.47 1.56 1.66 1.83 1.90 1.85 1.75 1.71 1.64 1.61 1.63 1.61 1.68 1.78 1.96 2.19 2.33 2.53 2.76
0.43 0.64 0.81 0.83 0.75 0.54 0.30 0.36 0.46 0.36 0.34 0.42 0.45 0.42 0.38 0.32 0.32 0.38 0.46 0.59 0.77 1.00 1.21 1.34 1.35 1.27 1.12 1.08 1.14 1.19 1.34 1.51 1.56 1.58 1.60 1.60 1.55 1.50 1.48 1.48 1.47 1.39 1.38 1.51 1.71 1.97 2.03 2.14 2.35
0.38 0.47 0.70 0.76 0.63 0.45 0.33 0.47 0.50 0.37 0.27 0.24 0.25 0.27 0.32 0.36 0.42 0.45 0.51 0.69 0.97 1.22 1.45 1.71 1.69 1.46 1.25 1.18 1.22 1.25 1.35 1.42 1.42 1.33 1.35 1.37 1.35 1.29 1.21 1.22 1.27 1.26 1.26 1.31 1.45 1.62 1.66 1.73 1.92
0.35 0.36 0.37 0.53 0.46 0.41 0.36 0.42 0.38 0.27 0.21 0.20 0.23 0.27 0.37 0.43 0.52 0.62 0.74 0.82 1.02 1.24 1.57 1.85 1.91 1.71 1.55 1.47 1.37 1.38 1.30 1.22 1.15 1.06 1.05 1.08 1.11 1.05 1.02 1.07 1.18 1.25 1.21 1.18 1.29 1.44 1.45 1.54 1.69
0.28 0.31 0.33 0.54 0.62 0.57 0.42 0.42 0.36 0.24 0.19 0.20 0.30 0.36 0.43 0.51 0.54 0.69 0.96 1.17 1.39 1.33 1.46 1.71 1.66 1.58 1.57 1.58 1.55 1.43 1.27 1.15 1.11 1.04 1.03 0.99 1.03 0.97 0.99 1.01 1.01 1.04 1.05 1.10 1.26 1.44 1.50 1.48 1.54
0.26 0.29 0.31 0.41 0.44 0.59 0.67 0.55 0.32 0.28 0.28 0.34 0.42 0.45 0.50 0.57 0.61 0.76 0.94 1.10 1.27 1.36 1.37 1.42 1.42 1.44 1.41 1.35 1.31 1.18 0.97 0.85 0.84 0.86 0.84 0.78 0.80 0.76 0.78 0.78 0.82 0.94 0.96 0.96 1.12 1.22 1.24 1.35 1.43
0.30 0.32 0.34 0.53 0.54 0.52 0.75 0.76 0.43 0.41 0.46 0.54 0.61 0.65 0.69 0.70 0.74 0.84 0.92 1.06 1.15 1.14 1.18 1.26 1.20 1.19 1.16 1.06 0.96 0.84 0.71 0.66 0.67 0.67 0.63 0.55 0.57 0.53 0.60 0.66 0.65 0.84 1.01 1.04 1.07 1.07 1.05 1.17 1.26

GEFSSGP_prec_meanprecacc_258.txt.gz
Total_Precipitation_Accumulation
2.01 1.90 2.80 4.23 4.48 3.74 3.15 2.63 1.99 1.58 1.08 0.89 0.83 0.97 1.29 1.71 2.09 2.52 2.82 2.66 1.78 1.47 1.59 2.34 3.21 3.14 2.86 2.82 2.77 2.64 2.64 2.64 2.44 2.25 2.09 2.00 1.81 1.88 2.12 1.97 1.95 1.83 1.67 1.77 1.96 2.13 2.19 2.19 2.19
1.61 2.27 3.35 4.67 4.20 3.33 3.00 2.55 1.94 1.31 0.83 0.65 0.57 0.68 0.80 0.80 0.89 1.57 2.67 2.67 1.54 1.23 1.36 1.89 2.71 2.64 2.56 2.55 2.41 2.33 2.26 2.19 2.22 2.17 1.95 1.87 1.82 1.99 2.18 2.03 1.91 1.78 1.65 1.70 1.88 2.06 2.04 2.10 2.21
1.79 2.94 3.94 4.16 3.35 3.06 2.97 2.32 1.56 0.88 0.57 0.52 0.51 0.53 0.63 0.92 1.10 1.68 2.36 1.93 1.23 1.04 1.28 1.94 2.55 2.47 2.45 2.38 2.13 2.13 2.01 1.92 1.95 2.01 1.89 1.91 1.82 1.85 2.01 2.04 1.92 1.84 1.76 1.74 1.85 1.92 1.91 2.05 2.13
2.00 3.14 3.48 3.22 2.86 2.41 2.06 1.68 1.22 1.01 0.65 0.39 0.37 0.50 0.58 0.99 1.32 1.56 1.61 1.34 1.10 1.11 1.20 1.65 2.17 2.16 2.13 2.07 2.07 2.01 1.89 1.90 1.85 1.81 1.81 1.86 1.83 1.77 1.81 1.96 1.89 1.85 2.00 2.07 2.03 2.01 2.09 2.11 2.16
2.53 3.22 3.09 2.66 2.38 1.96 1.47 1.14 0.97 0.99 0.78 0.45 0.34 0.56 0.84 1.25 1.41 1.27 1.15 0.97 0.94 1.00 1.02 1.32 1.88 1.86 1.81 1.84 1.94 2.00 1.93 1.91 1.81 1.76 1.85 1.93 1.84 1.77 1.77 1.91 1.94 1.90 1.98 2.16 2.09 2.01 2.04 2.03 2.08
2.81 2.85 2.86 2.51 2.33 1.90 1.47 1.04 0.82 0.78 0.63 0.44 0.35 0.58 0.96 1.28 1.49 1.31 1.12 1.12 1.08 1.10 1.02 1.15 1.73 1.85 1.74 1.78 1.81 1.89 1.96 1.91 1.78 1.74 1.73 1.78 1.78 1.70 1.71 1.77 1.90 1.87 1.91 2.06 2.05 1.94 1.92 1.77 1.77
2.72 2.63 2.42 2.04 2.15 2.31 1.70 1.05 0.88 0.86 0.70 0.48 0.35 0.63 0.98 1.23 1.23 1.17 1.23 1.31 1.30 1.37 1.31 1.35 1.52 1.63 1.75 1.81 1.80 1.97 2.10 1.98 1.75 1.61 1.58 1.54 1.60 1.58 1.55 1.60 1.76 1.78 1.84 1.93 1.94 1.93 1.94 1.80 1.73
2.12 2.16 1.97 1.96 2.19 2.40 1.58 1.04 0.85 0.79 0.70 0.36 0.31 0.60 0.93 0.92 0.91 1.05 1.20 1.25 1.25 1.32 1.28 1.33 1.44 1.48 1.52 1.63 1.88 2.10 2.42 2.30 1.87 1.58 1.42 1.44 1.40 1.41 1.51 1.49 1.63 1.74 1.87 2.08 2.09 2.09 1.98 1.97 1.84
1.92 2.27 2.38 2.45 2.45 2.14 1.42 1.22 0.95 0.63 0.55 0.41 0.37 0.49 0.58 0.57 0.73 0.87 1.05 1.07 1.04 1.01 1.06 1.17 1.24 1.27 1.37 1.37 1.59 2.03 2.44 2.45 2.02 1.66 1.54 1.34 1.04 1.04 1.28 1.47 1.73 1.86 2.02 2.36 2.42 2.29 2.10 1.95 1.83
1.86 2.23 2.17 1.89 1.59 1.32 1.15 1.06 0.90 0.77 0.78 0.61 0.51 0.49 0.52 0.56 0.78 0.87 0.92 1.00 0.92 0.82 0.78 0.80 0.83 0.94 1.04 1.06 1.36 1.65 1.69 1.89 1.64 1.56 1.44 1.32 1.27 1.22 1.06 1.22 1.67 1.93 1.99 2.25 2.40 2.32 1.95 1.56 1.40
1.63 1.71 1.51 1.38 1.05 0.85 0.85 0.76 0.66 0.69 0.79 0.68 0.64 0.51 0.55 0.60 0.72 0.77 0.74 0.73 0.76 0.76 0.74 0.67 0.66 0.74 0.89 1.05 1.21 1.40 1.56 1.72 1.69 1.62 1.56 1.59 1.56 1.23 1.09 1.17 1.33 1.53 1.64 1.66 1.80 1.83 1.55 1.30 1.25
1.59 1.31 1.17 1.10 0.77 0.76 0.77 0.64 0.57 0.56 0.53 0.40 0.48 0.44 0.49 0.56 0.60 0.59 0.60 0.62 0.61 0.64 0.73 0.69 0.55 0.57 0.66 0.77 0.94 1.11 1.32 1.52 1.57 1.37 1.28 1.42 1.48 1.30 1.20 1.33 1.39 1.49 1.62 1.67 1.67 1.62 1.42 1.15 1.13
1.52 1.41 1.15 1.01 0.77 0.76 0.70 0.63 0.54 0.46 0.41 0.33 0.39 0.50 0.55 0.61 0.61 0.57 0.53 0.57 0.57 0.64 0.72 0.75 0.65 0.60 0.64 0.71 0.78 0.80 1.09 1.27 1.42 1.46 1.22 1.33 1.40 1.35 1.25 1.23 1.39 1.40 1.51 1.55 1.63 1.67 1.50 1.35 1.24
1.40 1.29 1.04 0.94 0.84 0.75 0.69 0.61 0.56 0.47 0.41 0.38 0.44 0.56 0.59 0.64 0.66 0.62 0.57 0.52 0.49 0.59 0.69 0.71 0.72 0.70 0.71 0.73 0.73 0.72 0.78 0.86 0.95 0.89 0.85 1.04 1.19 1.22 1.25 1.16 1.23 1.34 1.54 1.77 1.85 1.69 1.58 1.47 1.41
1.13 1.22 1.28 1.05 0.87 0.69 0.70 0.82 0.62 0.53 0.51 0.48 0.50 0.54 0.59 0.57 0.59 0.59 0.56 0.53 0.52 0.57 0.63 0.69 0.75 0.80 0.81 0.82 0.87 0.83 0.77 0.78 0.76 0.71 0.71 0.82 0.94 1.03 1.16 1.23 1.21 1.27 1.53 1.83 2.01 1.89 1.75 1.56 1.52
1.20 1.38 1.68 1.33 1.09 0.85 0.94 1.12 0.58 0.52 0.57 0.54 0.49 0.48 0.46 0.45 0.47 0.51 0.53 0.54 0.56 0.57 0.54 0.57 0.59 0.68 0.73 0.79 0.82 0.91 0.90 0.89 0.85 0.85 0.81 0.78 0.92 1.05 1.17 1.27 1.23 1.27 1.51 1.79 2.02 2.10 2.08 1.96 1.85
1.35 1.34 1.33 1.28 1.10 0.90 0.89 0.85 0.50 0.48 0.58 0.59 0.51 0.47 0.44 0.34 0.36 0.41 0.42 0.47 0.50 0.51 0.45 0.44 0.47 0.50 0.54 0.57 0.65 0.78 0.85 0.92 0.99 0.99 0.98 0.99 1.06 1.09 1.21 1.44 1.49 1.49 1.66 1.75 1.79 1.95 2.00 2.06 2.02
1.04 0.95 0.97 1.07 0.90 0.87 0.82 0.60 0.44 0.46 0.52 0.54 0.57 0.52 0.46 0.32 0.26 0.26 0.32 0.38 0.40 0.43 0.43 0.42 0.44 0.43 0.42 0.44 0.54 0.67 0.75 0.81 1.01 1.07 1.10 1.37 1.50 1.32 1.30 1.47 1.53 1.59 1.81 1.85 1.92 2.15 2.13 2.05 2.13
0.74 0.69 0.78 0.79 0.65 0.78 0.73 0.55 0.45 0.40 0.39 0.41 0.47 0.48 0.44 0.34 0.22 0.15 0.15 0.21 0.27 0.27 0.27 0.33 0.36 0.43 0.43 0.37 0.41 0.55 0.67 0.80 0.94 1.13 1.15 1.37 1.51 1.44 1.48 1.54 1.59 1.63 1.71 1.77 1.92 2.27 2.30 2.13 2.01
0.69 0.74 0.77 0.70 0.60 0.68 0.74 0.60 0.46 0.36 0.33 0.34 0.37 0.40 0.38 0.30 0.21 0.15 0.12 0.14 0.20 0.24 0.19 0.21 0.25 0.35 0.43 0.45 0.51 0.63 0.82 0.93 1.05 1.23 1.27 1.36 1.40 1.40 1.36 1.56 1.69 1.66 1.77 1.84 2.01 2.32 2.53 2.28 2.10
0.62 0.70 0.69 0.69 0.72 0.65 0.73 0.79 0.59 0.40 0.35 0.34 0.34 0.34 0.32 0.23 0.19 0.17 0.14 0.12 0.13 0.17 0.14 0.18 0.26 0.40 0.56 0.71 0.94 1.20 1.50 1.66 1.58 1.48 1.54 1.62 1.69 1.64 1.60 1.70 1.86 1.79 1.83 1.93 1.97 2.08 2.57 2.72 2.46
0.73 0.49 0.48 0.58 0.80 0.81 0.66 0.87 0.62 0.42 0.40 0.40 0.36 0.31 0.27 0.24 0.21 0.18 0.16 0.15 0.15 0.21 0.27 0.36 0.48 0.64 0.79 0.99 1.22 1.48 1.74 1.94 1.98 2.03 2.07 2.04 1.97 1.85 1.73 1.78 1.87 1.88 1.94 1.91 1.75 1.91 2.40 2.90 2.94
0.58 0.49 0.46 0.54 0.72 0.70 0.61 0.63 0.54 0.43 0.49 0.50 0.47 0.41 0.36 0.34 0.32 0.31 0.30 0.27 0.27 0.38 0.51 0.62 0.85 1.01 1.14 1.19 1.28 1.50 1.60 1.68 1.80 1.98 2.05 2.06 1.99 1.87 1.71 1.68 1.81 1.88 1.96 1.94 1.97 2.13 2.44 2.73 3.01
0.47 0.55 0.59 0.67 0.74 0.70 0.48 0.47 0.55 0.45 0.51 0.59 0.55 0.47 0.43 0.39 0.37 0.40 0.45 0.44 0.47 0.67 0.90 1.03 1.15 1.26 1.24 1.20 1.21 1.33 1.47 1.57 1.67 1.84 1.91 1.87 1.77 1.73 1.65 1.62 1.66 1.64 1.74 1.83 1.99 2.22 2.35 2.54 2.79
0.45 0.68 0.86 0.89 0.80 0.57 0.32 0.37 0.46 0.36 0.35 0.43 0.47 0.43 0.38 0.32 0.32 0.38 0.46 0.59 0.78 1.01 1.21 1.35 1.36 1.28 1.13 1.09 1.15 1.20 1.35 1.51 1.57 1.59 1.61 1.62 1.57 1.51 1.49 1.49 1.49 1.41 1.42 1.55 1.74 1.99 2.05 2.17 2.40
0.39 0.50 0.75 0.81 0.68 0.47 0.34 0.48 0.50 0.37 0.27 0.24 0.25 0.27 0.32 0.36 0.43 0.45 0.51 0.69 0.97 1.22 1.45 1.72 1.69 1.47 1.25 1.18 1.23 1.26 1.35 1.42 1.42 1.34 1.35 1.38 1.35 1.30 1.21 1.23 1.28 1.27 1.28 1.34 1.49 1.65 1.69 1.76 1.96
0.36 0.37 0.39 0.55 0.47 0.44 0.37 0.43 0.39 0.27 0.22 0.20 0.23 0.28 0.37 0.43 0.53 0.62 0.74 0.82 1.02 1.25 1.57 1.85 1.91 1.71 1.55 1.47 1.38 1.38 1.30 1.23 1.16 1.07 1.06 1.08 1.11 1.06 1.03 1.08 1.19 1.25 1.22 1.20 1.32 1.48 1.47 1.55 1.71
0.29 0.31 0.35 0.56 0.63 0.60 0.43 0.44 0.38 0.25 0.19 0.21 0.31 0.37 0.44 0.52 0.54 0.69 0.96 1.17 1.39 1.33 1.46 1.72 1.66 1.58 1.57 1.58 1.55 1.43 1.28 1.16 1.12 1.04 1.04 1.00 1.04 0.98 1.00 1.02 1.02 1.04 1.06 1.11 1.29 1.47 1.54 1.51 1.56
0.28 0.30 0.32 0.43 0.45 0.61 0.69 0.58 0.33 0.28 0.29 0.35 0.43 0.46 0.50 0.58 0.61 0.76 0.94 1.11 1.28 1.37 1.37 1.43 1.43 1.44 1.41 1.35 1.31 1.18 0.97 0.85 0.85 0.87 0.85 0.79 0.81 0.77 0.79 0.79 0.83 0.95 0.97 0.97 1.14 1.25 1.27 1.37 1.46
0.31 0.33 0.36 0.56 0.57 0.54 0.77 0.77 0.43 0.42 0.46 0.55 0.61 0.66 0.69 0.70 0.74 0.85 0.93 1.07 1.15 1.15 1.19 1.27 1.21 1.19 1.16 1.06 0.96 0.84 0.71 0.66 0.68 0.68 0.64 0.57 0.58 0.54 0.61 0.67 0.66 0.85 1.03 1.06 1.08 1.09 1.07 1.19 1.28

GEFSSGP_prec_meanprecacc_264.txt.gz
Total_Precipitation_Accumulation
2.02 1.92 2.85 4.29 4.54 3.77 3.18 2.67 2.02 1.59 1.08 0.90 0.83 0.98 1.30 1.73 2.11 2.56 2.88 2.73 1.81 1.49 1.62 2.37 3.24 3.17 2.88 2.85 2.80 2.69 2.69 2.68 2.49 2.31 2.12 2.03 1.84 1.91 2.15 2.02 2.01 1.88 1.70 1.80 2.02 2.18 2.23 2.24 2.26
1.62 2.31 3.42 4.77 4.26 3.37 3.04 2.59 1.96 1.31 0.83 0.65 0.57 0.68 0.81 0.82 0.91 1.59 2.72 2.71 1.55 1.23 1.39 1.93 2.73 2.66 2.58 2.57 2.43 2.36 2.31 2.22 2.26 2.22 1.99 1.89 1.84 2.00 2.21 2.09 1.97 1.83 1.69 1.75 1.95 2.12 2.08 2.15 2.27
1.80 2.98 4.00 4.23 3.39 3.09 3.00 2.35 1.57 0.89 0.57 0.52 0.51 0.54 0.64 0.94 1.12 1.70 2.39 1.95 1.24 1.05 1.31 2.01 2.60 2.49 2.47 2.41 2.16 2.17 2.05 1.95 1.99 2.07 1.95 1.95 1.85 1.88 2.06 2.09 2.01 1.90 1.81 1.79 1.92 1.98 1.95 2.08 2.19
2.02 3.17 3.53 3.28 2.90 2.45 2.08 1.69 1.22 1.01 0.66 0.40 0.38 0.52 0.60 1.01 1.34 1.59 1.64 1.35 1.11 1.12 1.23 1.71 2.25 2.22 2.19 2.14 2.15 2.09 1.95 1.94 1.92 1.88 1.90 1.92 1.88 1.85 1.91 2.04 1.98 1.92 2.06 2.13 2.09 2.07 2.15 2.16 2.21
2.57 3.28 3.15 2.71 2.41 1.98 1.48 1.15 0.97 0.99 0.79 0.45 0.34 0.57 0.86 1.27 1.44 1.28 1.16 0.97 0.94 1.01 1.03 1.35 1.92 1.90 1.86 1.91 2.02 2.08 2.00 1.98 1.88 1.84 1.96 2.01 1.89 1.86 1.91 2.06 2.06 1.98 2.05 2.23 2.16 2.08 2.09 2.07 2.13
2.85 2.91 2.91 2.54 2.34 1.91 1.47 1.05 0.83 0.78 0.63 0.45 0.36 0.59 0.98 1.32 1.51 1.31 1.12 1.12 1.08 1.11 1.02 1.16 1.76 1.87 1.75 1.81 1.85 1.95 2.02 1.97 1.86 1.83 1.82 1.87 1.86 1.82 1.91 1.96 2.05 1.96 1.98 2.12 2.11 1.99 1.95 1.79 1.81
2.76 2.67 2.46 2.05 2.16 2.31 1.70 1.05 0.88 0.86 0.70 0.49 0.35 0.63 1.00 1.27 1.24 1.17 1.24 1.31 1.31 1.37 1.31 1.35 1.54 1.65 1.76 1.84 1.82 1.98 2.12 2.02 1.81 1.67 1.64 1.60 1.65 1.67 1.72 1.74 1.85 1.85 1.89 1.98 1.99 1.99 1.99 1.85 1.79
2.15 2.20 2.00 1.97 2.20 2.40 1.58 1.04 0.85 0.80 0.71 0.36 0.31 0.60 0.94 0.94 0.91 1.06 1.21 1.25 1.25 1.32 1.28 1.34 1.45 1.49 1.52 1.64 1.90 2.12 2.45 2.33 1.90 1.61 1.46 1.47 1.43 1.48 1.64 1.59 1.70 1.81 1.94 2.15 2.16 2.14 2.03 2.02 1.91
1.95 2.29 2.41 2.46 2.45 2.14 1.42 1.22 0.95 0.63 0.55 0.41 0.37 0.49 0.59 0.57 0.73 0.88 1.05 1.08 1.05 1.02 1.06 1.17 1.25 1.29 1.37 1.37 1.60 2.05 2.46 2.48 2.04 1.68 1.57 1.36 1.05 1.07 1.35 1.55 1.82 1.95 2.10 2.43 2.48 2.34 2.15 2.00 1.89
1.89 2.25 2.19 1.91 1.59 1.32 1.15 1.06 0.90 0.77 0.78 0.61 0.51 0.50 0.52 0.56 0.78 0.87 0.92 1.01 0.93 0.83 0.79 0.81 0.84 0.95 1.05 1.06 1.37 1.65 1.70 1.90 1.65 1.58 1.46 1.33 1.28 1.23 1.09 1.28 1.75 2.00 2.05 2.30 2.44 2.36 1.98 1.58 1.41
1.66 1.73 1.53 1.39 1.05 0.85 0.85 0.76 0.66 0.69 0.79 0.68 0.64 0.51 0.55 0.61 0.72 0.77 0.75 0.73 0.76 0.77 0.74 0.67 0.68 0.76 0.89 1.05 1.22 1.41 1.57 1.72 1.70 1.62 1.57 1.60 1.57 1.24 1.12 1.20 1.36 1.56 1.66 1.67 1.82 1.84 1.57 1.32 1.27
1.61 1.32 1.18 1.11 0.77 0.76 0.77 0.64 0.57 0.56 0.53 0.40 0.48 0.44 0.49 0.56 0.60 0.60 0.61 0.62 0.61 0.64 0.73 0.69 0.55 0.57 0.67 0.77 0.94 1.11 1.33 1.53 1.57 1.37 1.28 1.43 1.48 1.31 1.21 1.35 1.41 1.52 1.65 1.70 1.69 1.64 1.45 1.17 1.15
1.53 1.42 1.16 1.02 0.78 0.76 0.70 0.63 0.54 0.46 0.41 0.33 0.39 0.50 0.55 0.62 0.62 0.58 0.53 0.57 0.58 0.64 0.72 0.75 0.66 0.60 0.65 0.71 0.78 0.81 1.10 1.28 1.43 1.46 1.22 1.33 1.40 1.36 1.26 1.23 1.40 1.41 1.55 1.58 1.66 1.70 1.54 1.37 1.25
1.41 1.30 1.05 0.95 0.84 0.75 0.69 0.61 0.56 0.47 0.41 0.38 0.44 0.57 0.60 0.65 0.67 0.63 0.58 0.53 0.50 0.60 0.69 0.71 0.73 0.71 0.71 0.73 0.73 0.72 0.78 0.86 0.95 0.89 0.85 1.04 1.20 1.22 1.26 1.17 1.24 1.35 1.55 1.79 1.88 1.72 1.60 1.49 1.43
1.14 1.24 1.29 1.07 0.87 0.70 0.70 0.83 0.62 0.53 0.51 0.49 0.51 0.56 0.60 0.58 0.59 0.60 0.56 0.53 0.52 0.58 0.64 0.69 0.75 0.81 0.82 0.82 0.87 0.83 0.77 0.78 0.76 0.71 0.71 0.82 0.95 1.04 1.17 1.23 1.22 1.28 1.55 1.83 2.03 1.91 1.76 1.57 1.54
1.21 1.39 1.70 1.35 1.10 0.85 0.94 1.12 0.58 0.52 0.57 0.54 0.49 0.48 0.50 0.47 0.50 0.52 0.53 0.54 0.56 0.57 0.55 0.57 0.60 0.69 0.74 0.79 0.83 0.91 0.90 0.89 0.85 0.85 0.81 0.78 0.92 1.05 1.18 1.28 1.25 1.28 1.53 1.80 2.03 2.10 2.08 1.96 1.86
1.37 1.35 1.34 1.30 1.11 0.91 0.89 0.85 0.51 0.49 0.58 0.59 0.51 0.48 0.51 0.37 0.38 0.42 0.43 0.47 0.51 0.52 0.46 0.44 0.48 0.50 0.54 0.58 0.66 0.78 0.86 0.92 0.99 0.99 0.98 0.99 1.06 1.10 1.22 1.45 1.50 1.51 1.69 1.77 1.80 1.96 2.01 2.07 2.04
1.04 0.95 0.98 1.08 0.91 0.88 0.83 0.61 0.44 0.47 0.52 0.55 0.58 0.53 0.48 0.33 0.27 0.27 0.32 0.38 0.40 0.44 0.44 0.43 0.45 0.45 0.44 0.45 0.55 0.68 0.76 0.82 1.01 1.07 1.10 1.37 1.51 1.33 1.30 1.48 1.54 1.61 1.85 1.88 1.94 2.17 2.16 2.08 2.15
0.75 0.70 0.79 0.80 0.66 0.79 0.74 0.56 0.45 0.41 0.39 0.41 0.47 0.49 0.45 0.34 0.23 0.15 0.15 0.21 0.28 0.28 0.28 0.34 0.38 0.45 0.44 0.39 0.42 0.57 0.69 0.81 0.95 1.13 1.15 1.38 1.52 1.45 1.49 1.54 1.60 1.65 1.75 1.81 1.94 2.30 2.34 2.18 2.05
0.70 0.75 0.79 0.72 0.62 0.69 0.75 0.61 0.47 0.37 0.33 0.34 0.37 0.40 0.39 0.30 0.21 0.15 0.12 0.14 0.20 0.25 0.20 0.22 0.26 0.37 0.45 0.48 0.52 0.65 0.83 0.94 1.06 1.24 1.27 1.36 1.40 1.40 1.36 1.57 1.71 1.68 1.82 1.88 2.04 2.34 2.58 2.34 2.15
0.64 0.72 0.71 0.72 0.74 0.67 0.74 0.80 0.60 0.42 0.36 0.35 0.35 0.35 0.32 0.24 0.20 0.17 0.14 0.13 0.13 0.18 0.15 0.19 0.27 0.42 0.57 0.73 0.96 1.22 1.51 1.67 1.59 1.49 1.55 1.63 1.70 1.64 1.61 1.71 1.87 1.82 1.88 1.98 2.02 2.12 2.61 2.78 2.53
0.75 0.51 0.51 0.60 0.82 0.83 0.68 0.89 0.63 0.43 0.42 0.41 0.37 0.32 0.28 0.24 0.22 0.19 0.17 0.15 0.16 0.22 0.28 0.37 0.49 0.65 0.81 1.00 1.23 1.49 1.75 1.96 2.00 2.06 2.10 2.06 1.98 1.86 1.74 1.78 1.89 1.92 1.99 1.97 1.80 1.96 2.44 2.95 3.01
0.59 0.50 0.49 0.56 0.74 0.71 0.62 0.64 0.55 0.45 0.51 0.51 0.48 0.42 0.37 0.34 0.32 0.31 0.31 0.28 0.28 0.38 0.52 0.64 0.87 1.02 1.15 1.20 1.29 1.51 1.62 1.71 1.83 2.01 2.09 2.09 2.02 1.90 1.74 1.70 1.84 1.94 2.01 2.00 2.03 2.19 2.49 2.79 3.06
0.48 0.56 0.61 0.69 0.76 0.71 0.49 0.48 0.56 0.46 0.51 0.60 0.57 0.49 0.43 0.40 0.38 0.40 0.45 0.45 0.48 0.69 0.92 1.06 1.18 1.29 1.28 1.23 1.24 1.36 1.50 1.61 1.72 1.89 1.97 1.91 1.80 1.77 1.69 1.67 1.69 1.70 1.80 1.89 2.05 2.28 2.42 2.61 2.83
0.47 0.70 0.89 0.91 0.83 0.59 0.33 0.38 0.47 0.36 0.35 0.44 0.48 0.46 0.40 0.34 0.34 0.38 0.47 0.60 0.78 1.02 1.23 1.37 1.37 1.29 1.15 1.11 1.17 1.21 1.36 1.54 1.59 1.62 1.66 1.66 1.61 1.55 1.54 1.54 1.53 1.46 1.48 1.61 1.79 2.04 2.10 2.22 2.42
0.40 0.52 0.77 0.83 0.70 0.49 0.35 0.48 0.51 0.37 0.28 0.25 0.26 0.29 0.35 0.38 0.45 0.46 0.52 0.69 0.98 1.23 1.46 1.73 1.71 1.48 1.26 1.19 1.23 1.26 1.36 1.43 1.43 1.35 1.38 1.41 1.38 1.33 1.26 1.27 1.32 1.32 1.34 1.40 1.56 1.71 1.73 1.80 1.99
0.37 0.38 0.42 0.57 0.49 0.45 0.38 0.44 0.40 0.28 0.23 0.21 0.24 0.29 0.39 0.45 0.54 0.64 0.75 0.83 1.04 1.27 1.59 1.87 1.92 1.71 1.56 1.47 1.38 1.38 1.31 1.23 1.17 1.07 1.07 1.11 1.14 1.10 1.06 1.10 1.22 1.29 1.28 1.25 1.39 1.53 1.51 1.59 1.75
0.29 0.32 0.37 0.58 0.64 0.60 0.44 0.46 0.41 0.28 0.21 0.22 0.32 0.38 0.45 0.53 0.55 0.70 0.97 1.19 1.41 1.35 1.48 1.72 1.66 1.59 1.57 1.59 1.55 1.44 1.28 1.16 1.13 1.05 1.05 1.02 1.07 1.01 1.03 1.04 1.04 1.07 1.09 1.15 1.33 1.50 1.57 1.54 1.61
0.28 0.31 0.34 0.46 0.47 0.62 0.70 0.59 0.36 0.31 0.31 0.37 0.45 0.48 0.52 0.59 0.63 0.78 0.96 1.13 1.30 1.39 1.39 1.44 1.44 1.45 1.42 1.36 1.31 1.18 0.97 0.85 0.85 0.87 0.86 0.81 0.83 0.80 0.81 0.81 0.84 0.97 0.99 1.00 1.16 1.27 1.29 1.40 1.49
0.32 0.34 0.37 0.60 0.61 0.57 0.79 0.80 0.45 0.44 0.47 0.56 0.63 0.68 0.71 0.72 0.75 0.86 0.95 1.10 1.18 1.17 1.22 1.29 1.22 1.21 1.18 1.07 0.97 0.85 0.72 0.66 0.68 0.69 0.65 0.58 0.60 0.56 0.63 0.69 0.68 0.87 1.04 1.07 1.10 1.10 1.09 1.22 1.31

GEFSSGP_prec_meanprecacc_270.txt.gz
Total_Precipitation_Accumulation
2.07 1.95 2.87 4.32 4.55 3.78 3.19 2.67 2.02 1.59 1.09 0.91 0.85 1.00 1.31 1.75 2.13 2.59 2.92 2.76 1.83 1.51 1.65 2.41 3.28 3.20 2.91 2.89 2.85 2.74 2.75 2.76 2.56 2.38 2.18 2.09 1.90 1.96 2.22 2.10 2.10 1.95 1.77 1.90 2.11 2.27 2.33 2.32 2.34
1.64 2.33 3.43 4.78 4.27 3.38 3.05 2.60 1.96 1.31 0.83 0.65 0.58 0.70 0.82 0.83 0.92 1.61 2.74 2.73 1.56 1.25 1.43 1.97 2.77 2.70 2.62 2.61 2.47 2.40 2.37 2.29 2.31 2.28 2.05 1.95 1.91 2.06 2.28 2.18 2.06 1.90 1.78 1.85 2.04 2.23 2.18 2.22 2.34
1.83 3.01 4.02 4.24 3.39 3.10 3.01 2.35 1.57 0.89 0.58 0.52 0.51 0.54 0.65 0.95 1.13 1.71 2.40 1.96 1.25 1.06 1.34 2.04 2.64 2.52 2.50 2.45 2.20 2.21 2.11 2.02 2.06 2.14 2.02 2.03 1.92 1.95 2.14 2.17 2.09 2.00 1.93 1.88 2.02 2.10 2.04 2.16 2.27
2.05 3.20 3.55 3.29 2.90 2.45 2.08 1.69 1.22 1.01 0.66 0.40 0.38 0.52 0.61 1.02 1.35 1.60 1.64 1.35 1.11 1.12 1.25 1.75 2.33 2.28 2.23 2.19 2.23 2.17 2.02 2.01 1.98 1.96 1.99 2.00 1.95 1.92 1.98 2.14 2.07 2.01 2.17 2.23 2.20 2.22 2.24 2.24 2.28
2.59 3.29 3.15 2.71 2.41 1.98 1.49 1.15 0.97 0.99 0.79 0.46 0.34 0.58 0.87 1.29 1.45 1.29 1.16 0.97 0.94 1.01 1.04 1.37 2.00 2.01 1.96 2.00 2.11 2.17 2.07 2.05 1.94 1.91 2.06 2.09 2.00 1.96 2.00 2.18 2.18 2.10 2.14 2.31 2.25 2.20 2.19 2.15 2.21
2.86 2.91 2.92 2.54 2.34 1.91 1.47 1.05 0.83 0.79 0.64 0.45 0.36 0.59 0.99 1.34 1.52 1.32 1.14 1.13 1.09 1.11 1.02 1.17 1.80 1.94 1.84 1.91 1.95 2.02 2.10 2.05 1.93 1.91 1.92 1.98 2.05 1.97 2.01 2.06 2.16 2.09 2.09 2.21 2.19 2.07 2.04 1.88 1.90
2.76 2.68 2.46 2.06 2.16 2.31 1.70 1.05 0.89 0.87 0.70 0.49 0.35 0.63 1.01 1.28 1.26 1.18 1.24 1.32 1.32 1.38 1.31 1.36 1.55 1.68 1.80 1.90 1.91 2.05 2.17 2.08 1.88 1.76 1.73 1.76 1.88 1.86 1.83 1.83 1.94 1.93 1.98 2.05 2.05 2.04 2.06 1.90 1.85
2.16 2.21 2.01 1.98 2.20 2.40 1.59 1.05 0.86 0.80 0.71 0.36 0.31 0.60 0.95 0.94 0.92 1.06 1.21 1.25 1.25 1.32 1.29 1.35 1.46 1.50 1.53 1.66 1.95 2.20 2.54 2.40 1.96 1.66 1.52 1.61 1.62 1.67 1.77 1.69 1.78 1.87 2.00 2.21 2.21 2.20 2.10 2.07 1.96
1.96 2.30 2.41 2.47 2.45 2.14 1.42 1.22 0.95 0.63 0.55 0.41 0.37 0.49 0.59 0.57 0.74 0.88 1.05 1.08 1.05 1.02 1.07 1.17 1.26 1.30 1.37 1.38 1.61 2.09 2.52 2.54 2.09 1.72 1.62 1.45 1.17 1.22 1.48 1.65 1.89 2.01 2.15 2.49 2.55 2.41 2.21 2.05 1.93
1.90 2.26 2.20 1.91 1.59 1.32 1.15 1.06 0.90 0.77 0.78 0.61 0.51 0.50 0.52 0.56 0.78 0.87 0.92 1.01 0.93 0.84 0.80 0.81 0.84 0.96 1.06 1.08 1.38 1.67 1.72 1.92 1.66 1.59 1.47 1.35 1.32 1.31 1.19 1.38 1.83 2.06 2.11 2.36 2.51 2.42 2.03 1.60 1.42
1.66 1.74 1.54 1.39 1.05 0.85 0.85 0.76 0.66 0.69 0.79 0.68 0.64 0.51 0.55 0.61 0.72 0.77 0.75 0.73 0.76 0.77 0.75 0.68 0.68 0.76 0.91 1.06 1.22 1.41 1.57 1.72 1.70 1.63 1.57 1.60 1.59 1.29 1.17 1.26 1.42 1.61 1.71 1.72 1.86 1.87 1.59 1.33 1.28
1.61 1.33 1.18 1.12 0.78 0.76 0.77 0.64 0.57 0.56 0.53 0.40 0.48 0.44 0.49 0.56 0.60 0.60 0.61 0.63 0.62 0.64 0.73 0.70 0.56 0.59 0.69 0.78 0.95 1.12 1.33 1.53 1.57 1.37 1.28 1.43 1.50 1.34 1.25 1.40 1.46 1.55 1.68 1.72 1.72 1.66 1.47 1.19 1.16
1.53 1.42 1.16 1.02 0.78 0.76 0.70 0.63 0.54 0.46 0.41 0.33 0.39 0.50 0.56 0.62 0.62 0.58 0.54 0.58 0.58 0.64 0.72 0.75 0.66 0.61 0.66 0.72 0.78 0.81 1.10 1.28 1.43 1.46 1.22 1.34 1.41 1.37 1.29 1.27 1.43 1.43 1.57 1.60 1.67 1.71 1.55 1.38 1.25
1.41 1.30 1.06 0.96 0.84 0.75 0.69 0.61 0.56 0.47 0.41 0.38 0.44 0.57 0.60 0.65 0.67 0.64 0.58 0.53 0.50 0.60 0.69 0.71 0.73 0.71 0.71 0.73 0.73 0.72 0.78 0.86 0.96 0.89 0.85 1.05 1.20 1.24 1.28 1.19 1.26 1.36 1.56 1.80 1.89 1.72 1.61 1.50 1.43
1.14 1.24 1.30 1.07 0.88 0.70 0.71 0.83 0.62 0.53 0.51 0.49 0.51 0.56 0.60 0.58 0.59 0.60 0.56 0.53 0.53 0.58 0.64 0.70 0.75 0.82 0.82 0.82 0.87 0.83 0.77 0.79 0.77 0.71 0.71 0.83 0.95 1.05 1.18 1.24 1.23 1.29 1.55 1.84 2.04 1.92 1.76 1.57 1.54
1.22 1.41 1.71 1.35 1.11 0.86 0.95 1.12 0.59 0.53 0.58 0.54 0.49 0.48 0.50 0.47 0.50 0.53 0.54 0.54 0.56 0.57 0.55 0.57 0.61 0.70 0.74 0.79 0.83 0.92 0.91 0.90 0.87 0.86 0.82 0.78 0.92 1.06 1.18 1.30 1.26 1.29 1.54 1.81 2.04 2.11 2.08 1.97 1.86
1.38 1.37 1.35 1.30 1.11 0.92 0.90 0.85 0.51 0.49 0.58 0.59 0.51 0.48 0.51 0.37 0.38 0.42 0.43 0.47 0.51 0.52 0.46 0.44 0.49 0.51 0.55 0.59 0.66 0.79 0.87 0.93 1.01 1.00 0.99 0.99 1.06 1.10 1.23 1.46 1.51 1.52 1.70 1.78 1.81 1.97 2.02 2.08 2.04
1.05 0.96 0.98 1.09 0.92 0.89 0.84 0.61 0.45 0.48 0.52 0.55 0.58 0.53 0.48 0.33 0.27 0.27 0.32 0.38 0.40 0.44 0.44 0.44 0.46 0.45 0.44 0.45 0.55 0.69 0.77 0.83 1.02 1.08 1.11 1.38 1.52 1.34 1.31 1.49 1.55 1.62 1.86 1.90 1.95 2.18 2.17 2.09 2.16
0.75 0.70 0.80 0.80 0.67 0.81 0.76 0.57 0.46 0.42 0.40 0.41 0.47 0.49 0.45 0.34 0.23 0.15 0.15 0.22 0.28 0.28 0.28 0.34 0.38 0.45 0.44 0.39 0.43 0.57 0.70 0.81 0.96 1.14 1.16 1.38 1.52 1.45 1.49 1.55 1.61 1.65 1.77 1.82 1.95 2.30 2.36 2.19 2.06
0.71 0.76 0.80 0.73 0.63 0.71 0.77 0.63 0.49 0.38 0.34 0.35 0.38 0.41 0.39 0.30 0.21 0.15 0.12 0.14 0.20 0.25 0.20 0.23 0.27 0.37 0.46 0.49 0.53 0.66 0.85 0.96 1.07 1.25 1.29 1.37 1.40 1.41 1.37 1.58 1.72 1.69 1.84 1.90 2.05 2.35 2.60 2.36 2.16
0.64 0.72 0.71 0.73 0.75 0.68 0.75 0.82 0.62 0.44 0.37 0.36 0.35 0.35 0.33 0.24 0.20 0.17 0.14 0.13 0.14 0.18 0.15 0.19 0.28 0.43 0.59 0.75 0.98 1.24 1.54 1.70 1.61 1.50 1.57 1.66 1.71 1.65 1.62 1.72 1.88 1.84 1.90 2.00 2.03 2.13 2.63 2.80 2.55
0.76 0.51 0.52 0.62 0.83 0.84 0.69 0.90 0.64 0.45 0.44 0.43 0.38 0.32 0.28 0.25 0.22 0.19 0.17 0.16 0.17 0.22 0.29 0.38 0.50 0.67 0.83 1.03 1.25 1.52 1.78 1.98 2.01 2.08 2.12 2.08 2.00 1.88 1.77 1.81 1.91 1.95 2.02 1.99 1.82 1.97 2.45 2.96 3.03
0.60 0.51 0.50 0.58 0.76 0.72 0.63 0.65 0.56 0.46 0.53 0.54 0.49 0.42 0.38 0.35 0.33 0.32 0.31 0.28 0.29 0.40 0.54 0.65 0.89 1.05 1.20 1.26 1.34 1.54 1.65 1.73 1.85 2.03 2.10 2.11 2.04 1.92 1.77 1.73 1.87 1.98 2.03 2.03 2.06 2.22 2.51 2.80 3.07
0.49 0.57 0.63 0.71 0.79 0.73 0.49 0.48 0.56 0.46 0.52 0.62 0.58 0.50 0.44 0.41 0.39 0.41 0.45 0.45 0.49 0.71 0.95 1.09 1.22 1.33 1.33 1.29 1.28 1.39 1.52 1.63 1.74 1.90 1.98 1.93 1.82 1.79 1.72 1.70 1.74 1.74 1.83 1.92 2.09 2.32 2.45 2.63 2.85
0.48 0.71 0.90 0.93 0.85 0.61 0.33 0.38 0.48 0.37 0.36 0.45 0.49 0.47 0.41 0.35 0.34 0.39 0.47 0.60 0.79 1.03 1.24 1.38 1.38 1.31 1.18 1.14 1.19 1.24 1.39 1.55 1.61 1.64 1.68 1.68 1.63 1.57 1.56 1.58 1.58 1.50 1.52 1.64 1.82 2.08 2.14 2.25 2.45
0.41 0.53 0.78 0.84 0.72 0.51 0.36 0.49 0.52 0.38 0.28 0.26 0.27 0.31 0.36 0.39 0.45 0.47 0.53 0.70 0.99 1.24 1.48 1.75 1.72 1.50 1.28 1.21 1.25 1.28 1.39 1.45 1.44 1.37 1.41 1.44 1.41 1.36 1.29 1.31 1.36 1.36 1.38 1.43 1.59 1.75 1.77 1.83 2.02
0.37 0.38 0.42 0.58 0.50 0.46 0.39 0.45 0.41 0.28 0.23 0.22 0.24 0.29 0.40 0.46 0.55 0.64 0.76 0.84 1.05 1.28 1.61 1.89 1.94 1.73 1.57 1.49 1.40 1.40 1.32 1.26 1.18 1.10 1.10 1.14 1.18 1.12 1.09 1.13 1.25 1.33 1.31 1.29 1.43 1.58 1.55 1.63 1.77
0.30 0.32 0.38 0.59 0.65 0.61 0.44 0.46 0.41 0.28 0.21 0.23 0.33 0.39 0.45 0.54 0.55 0.71 0.98 1.20 1.43 1.37 1.50 1.74 1.68 1.60 1.58 1.60 1.57 1.45 1.30 1.18 1.14 1.07 1.08 1.05 1.10 1.04 1.05 1.06 1.06 1.09 1.12 1.17 1.35 1.53 1.60 1.57 1.63
0.29 0.31 0.35 0.47 0.48 0.63 0.70 0.60 0.37 0.31 0.31 0.37 0.46 0.49 0.52 0.59 0.63 0.79 0.97 1.14 1.32 1.42 1.42 1.46 1.46 1.46 1.43 1.36 1.32 1.19 0.98 0.87 0.86 0.88 0.88 0.83 0.85 0.82 0.83 0.82 0.86 0.99 1.01 1.02 1.18 1.29 1.31 1.42 1.52
0.33 0.35 0.38 0.61 0.62 0.57 0.79 0.81 0.46 0.45 0.48 0.57 0.64 0.69 0.72 0.72 0.76 0.87 0.96 1.12 1.20 1.20 1.24 1.33 1.26 1.23 1.19 1.08 0.98 0.86 0.73 0.67 0.69 0.70 0.67 0.61 0.62 0.58 0.64 0.70 0.70 0.89 1.07 1.09 1.12 1.12 1.11 1.24 1.33

GEFSSGP_prec_meanprecacc_276.txt.gz
Total_Precipitation_Accumulation
2.14 2.00 2.89 4.32 4.55 3.79 3.20 2.68 2.03 1.60 1.10 0.91 0.85 1.00 1.33 1.76 2.15 2.61 2.93 2.77 1.84 1.52 1.67 2.45 3.34 3.27 2.98 2.95 2.90 2.79 2.79 2.80 2.63 2.47 2.26 2.17 2.03 2.09 2.37 2.25 2.21 2.04 1.86 1.98 2.19 2.34 2.41 2.42 2.46
1.71 2.37 3.45 4.79 4.28 3.39 3.05 2.60 1.96 1.32 0.84 0.66 0.58 0.70 0.83 0.83 0.93 1.62 2.75 2.75 1.57 1.27 1.46 2.03 2.84 2.78 2.69 2.66 2.49 2.43 2.40 2.33 2.37 2.35 2.15 2.06 2.04 2.18 2.42 2.35 2.19 2.02 1.90 1.97 2.14 2.32 2.29 2.33 2.47
1.86 3.03 4.03 4.25 3.40 3.10 3.01 2.35 1.58 0.90 0.58 0.52 0.51 0.54 0.66 0.96 1.14 1.72 2.42 1.97 1.26 1.08 1.38 2.10 2.71 2.58 2.55 2.49 2.23 2.25 2.15 2.07 2.12 2.22 2.12 2.14 2.04 2.10 2.26 2.29 2.24 2.21 2.19 2.10 2.19 2.25 2.18 2.28 2.41
2.06 3.21 3.56 3.29 2.91 2.45 2.08 1.69 1.23 1.02 0.66 0.40 0.38 0.52 0.62 1.03 1.37 1.61 1.65 1.35 1.12 1.14 1.28 1.80 2.37 2.33 2.28 2.24 2.28 2.23 2.08 2.06 2.03 2.03 2.07 2.10 2.07 2.02 2.09 2.25 2.20 2.16 2.35 2.42 2.38 2.38 2.39 2.38 2.41
2.59 3.29 3.16 2.72 2.42 1.98 1.49 1.15 0.98 0.99 0.79 0.46 0.35 0.58 0.88 1.30 1.46 1.30 1.18 0.97 0.95 1.02 1.07 1.42 2.05 2.06 2.01 2.05 2.16 2.22 2.12 2.11 2.02 2.00 2.15 2.17 2.09 2.06 2.11 2.27 2.28 2.20 2.28 2.46 2.39 2.32 2.31 2.25 2.29
2.87 2.91 2.92 2.55 2.34 1.91 1.47 1.05 0.83 0.79 0.64 0.45 0.36 0.59 1.01 1.36 1.54 1.32 1.14 1.13 1.09 1.12 1.04 1.20 1.86 2.00 1.89 1.97 2.02 2.08 2.15 2.13 2.03 2.02 2.05 2.09 2.15 2.07 2.11 2.15 2.23 2.15 2.18 2.31 2.29 2.17 2.15 1.99 1.99
2.77 2.68 2.46 2.06 2.16 2.31 1.70 1.05 0.89 0.87 0.71 0.49 0.36 0.64 1.02 1.29 1.27 1.18 1.25 1.32 1.32 1.38 1.32 1.38 1.59 1.73 1.87 1.98 1.99 2.12 2.24 2.17 1.98 1.86 1.85 1.87 2.00 1.96 1.91 1.89 2.00 2.01 2.09 2.16 2.13 2.13 2.15 2.00 1.95
2.17 2.21 2.01 1.98 2.20 2.41 1.59 1.05 0.86 0.80 0.71 0.36 0.31 0.61 0.95 0.95 0.92 1.07 1.22 1.26 1.26 1.32 1.29 1.36 1.48 1.53 1.56 1.71 2.02 2.28 2.62 2.48 2.03 1.72 1.59 1.73 1.78 1.75 1.82 1.73 1.83 1.95 2.10 2.31 2.28 2.28 2.18 2.17 2.06
1.97 2.31 2.42 2.47 2.46 2.15 1.42 1.23 0.95 0.63 0.56 0.41 0.37 0.49 0.59 0.58 0.74 0.88 1.06 1.09 1.06 1.03 1.08 1.18 1.27 1.31 1.38 1.40 1.65 2.14 2.58 2.59 2.16 1.77 1.70 1.62 1.36 1.35 1.53 1.68 1.94 2.08 2.24 2.57 2.63 2.49 2.30 2.14 2.00
1.91 2.27 2.20 1.91 1.59 1.32 1.16 1.06 0.90 0.77 0.78 0.62 0.51 0.50 0.52 0.56 0.78 0.88 0.92 1.01 0.94 0.84 0.81 0.83 0.86 0.97 1.06 1.08 1.40 1.71 1.75 1.94 1.71 1.64 1.56 1.50 1.48 1.47 1.27 1.43 1.87 2.11 2.17 2.43 2.59 2.49 2.09 1.67 1.47
1.67 1.75 1.55 1.39 1.06 0.85 0.85 0.76 0.66 0.69 0.79 0.68 0.64 0.51 0.55 0.61 0.72 0.77 0.75 0.74 0.76 0.77 0.75 0.69 0.69 0.77 0.92 1.07 1.24 1.44 1.59 1.73 1.71 1.64 1.62 1.70 1.69 1.38 1.26 1.34 1.48 1.66 1.76 1.77 1.91 1.92 1.64 1.37 1.31
1.61 1.33 1.19 1.12 0.78 0.76 0.77 0.64 0.57 0.56 0.53 0.40 0.48 0.44 0.49 0.56 0.60 0.60 0.61 0.63 0.62 0.64 0.74 0.70 0.57 0.59 0.69 0.78 0.95 1.12 1.33 1.53 1.57 1.38 1.33 1.51 1.58 1.42 1.30 1.45 1.50 1.59 1.71 1.75 1.74 1.70 1.52 1.22 1.18
1.53 1.42 1.16 1.02 0.78 0.76 0.70 0.64 0.54 0.46 0.41 0.33 0.39 0.50 0.56 0.62 0.62 0.58 0.54 0.58 0.58 0.64 0.72 0.76 0.66 0.61 0.66 0.72 0.78 0.81 1.10 1.28 1.43 1.48 1.28 1.41 1.49 1.44 1.34 1.31 1.47 1.46 1.59 1.62 1.70 1.75 1.59 1.40 1.26
1.41 1.30 1.06 0.96 0.85 0.75 0.69 0.61 0.56 0.47 0.41 0.38 0.44 0.57 0.61 0.65 0.67 0.64 0.58 0.53 0.50 0.60 0.69 0.72 0.73 0.71 0.72 0.73 0.73 0.72 0.79 0.87 0.97 0.91 0.90 1.10 1.25 1.28 1.32 1.23 1.30 1.39 1.59 1.84 1.93 1.75 1.63 1.51 1.44
1.14 1.25 1.30 1.08 0.88 0.70 0.71 0.83 0.62 0.53 0.51 0.49 0.51 0.56 0.60 0.58 0.59 0.60 0.56 0.53 0.53 0.58 0.64 0.70 0.75 0.82 0.82 0.82 0.87 0.84 0.78 0.80 0.78 0.73 0.74 0.85 0.98 1.08 1.21 1.28 1.27 1.32 1.58 1.88 2.08 1.94 1.78 1.58 1.55
1.24 1.42 1.72 1.36 1.11 0.87 0.95 1.12 0.59 0.53 0.58 0.54 0.49 0.48 0.50 0.47 0.50 0.53 0.54 0.54 0.56 0.57 0.55 0.58 0.61 0.70 0.74 0.80 0.84 0.92 0.92 0.91 0.87 0.87 0.84 0.80 0.95 1.09 1.21 1.33 1.28 1.31 1.56 1.84 2.07 2.13 2.10 1.98 1.87
1.39 1.37 1.36 1.30 1.12 0.93 0.91 0.86 0.51 0.49 0.58 0.59 0.51 0.48 0.51 0.37 0.38 0.42 0.43 0.47 0.51 0.52 0.46 0.44 0.49 0.52 0.55 0.59 0.67 0.80 0.88 0.94 1.01 1.00 1.00 1.01 1.08 1.12 1.26 1.49 1.53 1.54 1.72 1.81 1.83 1.99 2.04 2.09 2.06
1.05 0.96 0.98 1.09 0.92 0.89 0.85 0.63 0.46 0.48 0.53 0.55 0.58 0.53 0.48 0.33 0.27 0.27 0.32 0.38 0.41 0.44 0.44 0.44 0.46 0.46 0.44 0.46 0.56 0.70 0.78 0.84 1.04 1.09 1.12 1.39 1.53 1.36 1.34 1.52 1.58 1.64 1.88 1.92 1.96 2.19 2.19 2.11 2.17
0.75 0.71 0.80 0.80 0.67 0.81 0.77 0.58 0.48 0.44 0.40 0.42 0.48 0.49 0.45 0.34 0.23 0.15 0.15 0.22 0.28 0.29 0.29 0.35 0.38 0.45 0.45 0.39 0.43 0.58 0.71 0.83 0.98 1.16 1.17 1.39 1.53 1.47 1.51 1.58 1.64 1.68 1.80 1.85 1.97 2.32 2.37 2.21 2.07
0.71 0.76 0.80 0.73 0.63 0.72 0.78 0.64 0.50 0.41 0.36 0.36 0.38 0.41 0.39 0.30 0.21 0.15 0.12 0.15 0.21 0.26 0.21 0.23 0.27 0.37 0.46 0.49 0.54 0.67 0.86 0.97 1.09 1.27 1.30 1.38 1.41 1.41 1.37 1.60 1.74 1.72 1.87 1.93 2.08 2.37 2.61 2.37 2.17
0.65 0.73 0.72 0.73 0.75 0.69 0.76 0.82 0.64 0.46 0.40 0.38 0.36 0.36 0.33 0.24 0.20 0.17 0.14 0.13 0.15 0.19 0.16 0.20 0.30 0.44 0.60 0.77 0.99 1.25 1.55 1.71 1.62 1.51 1.58 1.66 1.71 1.66 1.62 1.73 1.90 1.86 1.92 2.03 2.07 2.15 2.64 2.81 2.57
0.77 0.52 0.52 0.62 0.84 0.85 0.70 0.91 0.65 0.47 0.47 0.46 0.40 0.34 0.29 0.25 0.23 0.20 0.17 0.16 0.17 0.23 0.29 0.39 0.52 0.69 0.86 1.06 1.27 1.54 1.81 2.01 2.03 2.08 2.13 2.09 2.01 1.89 1.78 1.82 1.92 1.97 2.04 2.01 1.84 1.99 2.47 2.98 3.05
0.60 0.51 0.51 0.59 0.77 0.73 0.64 0.66 0.56 0.46 0.55 0.56 0.51 0.44 0.39 0.36 0.34 0.33 0.32 0.29 0.29 0.41 0.55 0.66 0.91 1.08 1.22 1.27 1.35 1.57 1.67 1.76 1.88 2.05 2.12 2.12 2.04 1.93 1.78 1.74 1.89 2.00 2.07 2.05 2.10 2.24 2.53 2.82 3.10
0.49 0.58 0.64 0.72 0.80 0.74 0.50 0.49 0.57 0.46 0.52 0.63 0.60 0.51 0.45 0.42 0.39 0.41 0.46 0.46 0.50 0.72 0.96 1.10 1.23 1.35 1.34 1.30 1.29 1.40 1.54 1.65 1.76 1.93 2.00 1.94 1.83 1.79 1.72 1.71 1.75 1.77 1.85 1.94 2.11 2.34 2.48 2.67 2.88
0.48 0.72 0.91 0.94 0.86 0.61 0.34 0.39 0.48 0.37 0.36 0.45 0.51 0.50 0.43 0.36 0.35 0.40 0.48 0.60 0.80 1.04 1.25 1.39 1.39 1.32 1.19 1.15 1.20 1.25 1.40 1.56 1.62 1.66 1.70 1.70 1.65 1.59 1.57 1.59 1.60 1.53 1.54 1.66 1.84 2.10 2.16 2.28 2.48
0.41 0.53 0.79 0.85 0.73 0.52 0.36 0.50 0.52 0.38 0.29 0.26 0.28 0.32 0.40 0.43 0.48 0.49 0.55 0.71 0.99 1.24 1.49 1.75 1.73 1.50 1.28 1.21 1.25 1.29 1.39 1.46 1.45 1.38 1.42 1.46 1.44 1.40 1.33 1.35 1.41 1.41 1.41 1.45 1.61 1.77 1.79 1.86 2.05
0.38 0.39 0.43 0.58 0.50 0.46 0.39 0.46 0.41 0.28 0.23 0.22 0.25 0.30 0.42 0.50 0.59 0.67 0.80 0.88 1.07 1.29 1.62 1.90 1.95 1.74 1.58 1.50 1.41 1.41 1.33 1.26 1.19 1.11 1.12 1.16 1.21 1.15 1.11 1.16 1.28 1.36 1.34 1.32 1.46 1.60 1.58 1.66 1.80
0.31 0.34 0.39 0.60 0.66 0.61 0.45 0.47 0.41 0.28 0.21 0.23 0.33 0.39 0.47 0.56 0.58 0.74 1.01 1.24 1.46 1.39 1.52 1.75 1.69 1.62 1.59 1.61 1.58 1.46 1.30 1.18 1.15 1.08 1.09 1.07 1.13 1.07 1.07 1.09 1.10 1.12 1.14 1.20 1.38 1.56 1.62 1.60 1.66
0.30 0.33 0.37 0.49 0.49 0.63 0.71 0.60 0.37 0.32 0.32 0.37 0.46 0.49 0.53 0.60 0.64 0.80 0.99 1.17 1.35 1.44 1.45 1.48 1.47 1.48 1.45 1.37 1.33 1.20 0.99 0.87 0.87 0.89 0.89 0.86 0.88 0.84 0.85 0.85 0.89 1.02 1.03 1.05 1.21 1.31 1.34 1.45 1.54
0.33 0.35 0.40 0.63 0.63 0.58 0.80 0.81 0.46 0.45 0.49 0.57 0.64 0.69 0.72 0.73 0.77 0.88 0.97 1.13 1.22 1.22 1.27 1.35 1.28 1.26 1.22 1.09 0.99 0.86 0.74 0.68 0.70 0.71 0.68 0.62 0.64 0.61 0.66 0.73 0.72 0.92 1.09 1.11 1.14 1.14 1.13 1.26 1.35

GEFSSGP_prec_meanprecacc_282.txt.gz
Total_Precipitation_Accumulation
2.16 2.02 2.92 4.38 4.64 3.85 3.25 2.72 2.04 1.62 1.11 0.92 0.85 1.01 1.34 1.79 2.20 2.66 2.97 2.80 1.87 1.54 1.70 2.48 3.38 3.33 3.05 3.01 2.95 2.84 2.84 2.83 2.67 2.52 2.31 2.23 2.12 2.18 2.48 2.33 2.29 2.13 1.96 2.09 2.30 2.46 2.54 2.53 2.56
1.74 2.40 3.50 4.89 4.38 3.44 3.09 2.62 1.97 1.33 0.85 0.66 0.58 0.70 0.83 0.84 0.94 1.64 2.79 2.78 1.60 1.29 1.50 2.08 2.91 2.84 2.75 2.74 2.55 2.46 2.43 2.36 2.39 2.38 2.19 2.12 2.12 2.28 2.52 2.43 2.25 2.10 2.00 2.08 2.26 2.45 2.40 2.43 2.58
1.91 3.07 4.11 4.33 3.46 3.15 3.04 2.36 1.58 0.90 0.58 0.52 0.51 0.54 0.67 0.98 1.15 1.75 2.46 2.01 1.28 1.10 1.41 2.14 2.75 2.63 2.61 2.55 2.28 2.30 2.18 2.11 2.16 2.24 2.16 2.19 2.12 2.19 2.38 2.39 2.34 2.31 2.34 2.30 2.41 2.47 2.38 2.42 2.53
2.13 3.29 3.63 3.36 2.94 2.46 2.09 1.69 1.23 1.02 0.66 0.40 0.38 0.53 0.62 1.04 1.38 1.63 1.68 1.39 1.14 1.16 1.30 1.82 2.40 2.36 2.31 2.28 2.32 2.27 2.11 2.09 2.06 2.08 2.12 2.15 2.14 2.11 2.22 2.36 2.30 2.27 2.50 2.61 2.59 2.59 2.58 2.53 2.52
2.64 3.38 3.24 2.78 2.43 1.99 1.49 1.15 0.98 0.99 0.80 0.46 0.35 0.59 0.89 1.31 1.47 1.31 1.18 0.99 0.97 1.05 1.09 1.44 2.08 2.09 2.04 2.08 2.18 2.25 2.17 2.15 2.07 2.07 2.22 2.24 2.18 2.15 2.22 2.37 2.35 2.27 2.38 2.61 2.55 2.48 2.44 2.35 2.36
2.92 2.96 2.98 2.60 2.37 1.91 1.48 1.05 0.83 0.79 0.64 0.45 0.36 0.59 1.02 1.37 1.54 1.33 1.15 1.14 1.11 1.14 1.06 1.22 1.88 2.03 1.91 1.99 2.05 2.13 2.21 2.19 2.09 2.09 2.13 2.18 2.24 2.16 2.20 2.24 2.29 2.21 2.24 2.40 2.40 2.28 2.27 2.11 2.09
2.82 2.73 2.52 2.10 2.19 2.32 1.71 1.05 0.89 0.87 0.71 0.49 0.36 0.64 1.03 1.30 1.27 1.19 1.25 1.32 1.33 1.39 1.34 1.40 1.62 1.77 1.91 2.02 2.04 2.17 2.29 2.23 2.06 1.96 1.96 1.99 2.09 2.02 1.95 1.93 2.05 2.06 2.14 2.21 2.19 2.21 2.24 2.11 2.07
2.21 2.25 2.06 2.01 2.22 2.42 1.59 1.05 0.86 0.80 0.71 0.36 0.31 0.61 0.96 0.95 0.93 1.08 1.22 1.26 1.26 1.33 1.30 1.38 1.52 1.57 1.61 1.76 2.08 2.35 2.70 2.56 2.11 1.80 1.66 1.80 1.82 1.77 1.83 1.75 1.85 1.98 2.14 2.36 2.34 2.36 2.26 2.24 2.13
1.99 2.36 2.47 2.50 2.47 2.15 1.43 1.23 0.95 0.63 0.56 0.41 0.38 0.49 0.59 0.58 0.75 0.89 1.06 1.09 1.07 1.04 1.09 1.20 1.31 1.35 1.42 1.43 1.68 2.19 2.63 2.63 2.18 1.80 1.72 1.65 1.39 1.37 1.55 1.70 1.96 2.10 2.26 2.61 2.67 2.55 2.37 2.20 2.06
1.94 2.32 2.24 1.93 1.60 1.33 1.16 1.06 0.90 0.78 0.79 0.62 0.52 0.51 0.54 0.58 0.79 0.88 0.93 1.02 0.95 0.85 0.81 0.84 0.88 0.99 1.08 1.10 1.42 1.74 1.77 1.97 1.73 1.67 1.59 1.54 1.52 1.51 1.29 1.44 1.89 2.12 2.18 2.45 2.62 2.54 2.15 1.70 1.52
1.68 1.78 1.56 1.39 1.06 0.86 0.85 0.76 0.67 0.70 0.80 0.68 0.64 0.53 0.57 0.62 0.73 0.78 0.75 0.74 0.77 0.77 0.75 0.69 0.70 0.78 0.93 1.08 1.25 1.46 1.60 1.76 1.73 1.67 1.68 1.77 1.75 1.45 1.29 1.38 1.51 1.69 1.78 1.80 1.94 1.96 1.68 1.41 1.34
1.62 1.34 1.19 1.12 0.78 0.76 0.78 0.64 0.57 0.57 0.54 0.40 0.49 0.45 0.49 0.57 0.61 0.60 0.61 0.63 0.62 0.64 0.74 0.70 0.57 0.60 0.69 0.79 0.96 1.13 1.34 1.53 1.58 1.42 1.40 1.57 1.64 1.48 1.35 1.51 1.55 1.64 1.75 1.79 1.79 1.76 1.57 1.25 1.19
1.54 1.43 1.16 1.02 0.78 0.76 0.70 0.64 0.54 0.46 0.41 0.34 0.40 0.50 0.56 0.62 0.62 0.58 0.54 0.58 0.58 0.64 0.72 0.76 0.67 0.61 0.66 0.72 0.79 0.82 1.11 1.29 1.44 1.52 1.33 1.45 1.53 1.49 1.39 1.35 1.50 1.50 1.62 1.67 1.76 1.80 1.64 1.43 1.28
1.41 1.30 1.06 0.96 0.85 0.75 0.69 0.61 0.56 0.47 0.41 0.38 0.44 0.58 0.61 0.66 0.67 0.64 0.58 0.53 0.50 0.60 0.70 0.72 0.74 0.71 0.72 0.74 0.74 0.73 0.80 0.89 0.99 0.96 0.95 1.13 1.28 1.33 1.35 1.25 1.32 1.41 1.61 1.86 1.96 1.79 1.68 1.55 1.46
1.14 1.25 1.31 1.08 0.89 0.70 0.71 0.84 0.62 0.53 0.51 0.49 0.51 0.56 0.60 0.58 0.59 0.60 0.56 0.53 0.53 0.58 0.64 0.70 0.76 0.82 0.82 0.83 0.88 0.85 0.80 0.82 0.82 0.79 0.80 0.89 1.01 1.12 1.23 1.29 1.28 1.33 1.59 1.89 2.10 1.96 1.81 1.62 1.59
1.24 1.42 1.72 1.37 1.12 0.87 0.97 1.15 0.60 0.53 0.58 0.54 0.50 0.48 0.50 0.47 0.50 0.53 0.54 0.54 0.56 0.57 0.55 0.58 0.62 0.71 0.75 0.81 0.85 0.94 0.93 0.93 0.91 0.93 0.88 0.83 0.97 1.11 1.23 1.34 1.29 1.32 1.56 1.85 2.10 2.15 2.12 2.00 1.90
1.39 1.38 1.36 1.31 1.12 0.94 0.93 0.89 0.53 0.50 0.58 0.59 0.52 0.48 0.51 0.37 0.38 0.42 0.43 0.47 0.51 0.52 0.46 0.45 0.49 0.53 0.56 0.60 0.68 0.81 0.89 0.96 1.04 1.04 1.04 1.04 1.11 1.15 1.29 1.51 1.54 1.55 1.73 1.83 1.86 2.02 2.07 2.12 2.08
1.06 0.96 0.99 1.10 0.92 0.90 0.86 0.65 0.48 0.49 0.53 0.56 0.58 0.53 0.48 0.33 0.27 0.27 0.32 0.38 0.41 0.44 0.44 0.44 0.46 0.47 0.46 0.47 0.57 0.72 0.80 0.85 1.06 1.12 1.15 1.42 1.56 1.38 1.36 1.54 1.60 1.66 1.91 1.96 2.00 2.23 2.22 2.14 2.19
0.75 0.71 0.80 0.80 0.67 0.82 0.78 0.61 0.50 0.45 0.41 0.43 0.49 0.50 0.45 0.34 0.23 0.15 0.15 0.22 0.28 0.29 0.29 0.35 0.38 0.46 0.46 0.41 0.45 0.60 0.73 0.85 1.00 1.19 1.20 1.42 1.56 1.49 1.53 1.60 1.66 1.70 1.83 1.89 2.00 2.36 2.41 2.24 2.10
0.71 0.76 0.80 0.73 0.63 0.72 0.79 0.65 0.52 0.42 0.36 0.37 0.40 0.43 0.40 0.31 0.21 0.15 0.12 0.15 0.21 0.26 0.21 0.23 0.27 0.38 0.48 0.51 0.55 0.69 0.88 0.99 1.10 1.28 1.31 1.40 1.43 1.42 1.39 1.61 1.77 1.75 1.91 1.97 2.12 2.42 2.67 2.41 2.21
0.65 0.73 0.72 0.73 0.75 0.70 0.77 0.84 0.65 0.48 0.41 0.39 0.38 0.38 0.35 0.25 0.21 0.18 0.15 0.13 0.15 0.19 0.16 0.20 0.30 0.44 0.60 0.78 1.01 1.28 1.58 1.74 1.64 1.52 1.60 1.69 1.74 1.67 1.63 1.74 1.91 1.88 1.96 2.07 2.11 2.20 2.71 2.88 2.61
0.77 0.52 0.52 0.63 0.85 0.87 0.72 0.94 0.66 0.48 0.47 0.46 0.41 0.35 0.31 0.27 0.24 0.20 0.18 0.17 0.18 0.24 0.30 0.39 0.53 0.69 0.86 1.06 1.28 1.56 1.83 2.04 2.05 2.09 2.14 2.11 2.03 1.91 1.79 1.83 1.93 1.99 2.07 2.04 1.87 2.03 2.53 3.06 3.11
0.61 0.51 0.51 0.59 0.78 0.75 0.65 0.68 0.58 0.48 0.56 0.56 0.51 0.44 0.40 0.38 0.35 0.34 0.33 0.30 0.31 0.41 0.55 0.66 0.91 1.08 1.22 1.27 1.36 1.58 1.70 1.78 1.89 2.05 2.12 2.13 2.06 1.95 1.79 1.75 1.90 2.02 2.09 2.07 2.11 2.26 2.56 2.88 3.18
0.50 0.58 0.64 0.73 0.82 0.77 0.51 0.51 0.59 0.47 0.53 0.64 0.61 0.52 0.46 0.44 0.41 0.43 0.48 0.48 0.52 0.73 0.96 1.11 1.24 1.35 1.34 1.30 1.30 1.41 1.56 1.67 1.77 1.93 2.01 1.95 1.84 1.82 1.75 1.73 1.78 1.80 1.88 1.98 2.14 2.37 2.50 2.69 2.94
0.49 0.74 0.94 0.97 0.90 0.64 0.34 0.40 0.48 0.37 0.36 0.46 0.51 0.50 0.45 0.38 0.38 0.42 0.49 0.62 0.82 1.05 1.25 1.39 1.40 1.32 1.19 1.15 1.21 1.26 1.41 1.57 1.63 1.67 1.70 1.70 1.66 1.61 1.60 1.62 1.64 1.59 1.61 1.74 1.90 2.14 2.18 2.29 2.51
0.42 0.55 0.82 0.88 0.76 0.54 0.37 0.51 0.53 0.38 0.29 0.26 0.28 0.33 0.41 0.44 0.51 0.52 0.56 0.72 1.01 1.26 1.49 1.76 1.73 1.50 1.28 1.21 1.26 1.30 1.40 1.47 1.45 1.38 1.43 1.46 1.45 1.40 1.34 1.37 1.44 1.45 1.46 1.51 1.67 1.82 1.82 1.88 2.08
0.39 0.40 0.44 0.60 0.52 0.48 0.41 0.47 0.42 0.28 0.23 0.22 0.25 0.30 0.42 0.51 0.60 0.70 0.83 0.90 1.11 1.33 1.64 1.90 1.95 1.75 1.58 1.50 1.41 1.42 1.34 1.27 1.20 1.12 1.12 1.17 1.22 1.16 1.12 1.18 1.30 1.38 1.38 1.36 1.51 1.65 1.62 1.69 1.83
0.31 0.34 0.41 0.62 0.68 0.64 0.46 0.48 0.42 0.29 0.22 0.23 0.33 0.39 0.47 0.56 0.59 0.75 1.03 1.27 1.51 1.45 1.57 1.77 1.70 1.62 1.60 1.61 1.58 1.47 1.31 1.19 1.15 1.08 1.09 1.07 1.13 1.08 1.09 1.11 1.12 1.14 1.16 1.22 1.40 1.59 1.66 1.65 1.72
0.31 0.34 0.38 0.51 0.51 0.66 0.73 0.61 0.37 0.32 0.32 0.37 0.46 0.49 0.53 0.60 0.65 0.81 1.01 1.19 1.39 1.50 1.51 1.51 1.49 1.50 1.46 1.38 1.34 1.20 1.00 0.88 0.87 0.89 0.89 0.86 0.89 0.85 0.87 0.86 0.92 1.04 1.05 1.06 1.23 1.34 1.37 1.50 1.59
0.34 0.37 0.41 0.65 0.64 0.60 0.83 0.83 0.47 0.45 0.49 0.57 0.64 0.69 0.72 0.73 0.78 0.89 0.98 1.16 1.26 1.27 1.33 1.39 1.30 1.28 1.23 1.11 1.00 0.87 0.74 0.69 0.70 0.71 0.68 0.63 0.65 0.62 0.67 0.74 0.74 0.93 1.09 1.12 1.15 1.16 1.15 1.30 1.40

GEFSSGP_prec_meanprecacc_288.txt.gz
Total_Precipitation_Accumulation
2.17 2.04 2.96 4.44 4.71 3.91 3.29 2.76 2.08 1.65 1.13 0.93 0.86 1.02 1.35 1.81 2.23 2.70 3.03 2.88 1.91 1.57 1.73 2.50 3.40 3.35 3.07 3.05 2.98 2.86 2.86 2.84 2.69 2.54 2.32 2.25 2.14 2.22 2.52 2.38 2.35 2.24 2.12 2.20 2.40 2.58 2.65 2.65 2.70
1.77 2.44 3.57 4.98 4.44 3.47 3.11 2.64 1.99 1.34 0.85 0.67 0.59 0.71 0.84 0.85 0.95 1.66 2.84 2.86 1.63 1.31 1.52 2.10 2.93 2.86 2.78 2.76 2.57 2.48 2.44 2.37 2.40 2.39 2.20 2.14 2.15 2.32 2.57 2.47 2.30 2.16 2.08 2.15 2.37 2.58 2.52 2.58 2.72
1.98 3.16 4.20 4.41 3.50 3.16 3.06 2.38 1.59 0.90 0.58 0.53 0.52 0.55 0.67 0.99 1.17 1.78 2.52 2.06 1.31 1.11 1.42 2.16 2.77 2.65 2.63 2.57 2.31 2.31 2.20 2.12 2.17 2.26 2.18 2.21 2.16 2.22 2.42 2.43 2.39 2.36 2.39 2.35 2.48 2.56 2.49 2.57 2.71
2.23 3.44 3.74 3.42 2.97 2.47 2.10 1.70 1.23 1.02 0.67 0.40 0.38 0.53 0.63 1.04 1.39 1.65 1.72 1.41 1.16 1.17 1.32 1.84 2.43 2.39 2.33 2.30 2.34 2.28 2.12 2.10 2.07 2.10 2.15 2.17 2.17 2.14 2.26 2.40 2.34 2.31 2.54 2.65 2.62 2.63 2.65 2.64 2.64
2.75 3.54 3.34 2.83 2.46 1.99 1.49 1.16 0.98 0.99 0.80 0.46 0.35 0.59 0.91 1.32 1.49 1.34 1.22 1.01 0.98 1.06 1.10 1.45 2.10 2.11 2.06 2.09 2.20 2.27 2.18 2.17 2.09 2.09 2.24 2.26 2.19 2.18 2.26 2.41 2.38 2.30 2.41 2.66 2.60 2.51 2.49 2.42 2.44
3.05 3.12 3.06 2.63 2.38 1.92 1.48 1.05 0.83 0.79 0.64 0.45 0.36 0.60 1.04 1.38 1.56 1.36 1.17 1.17 1.12 1.15 1.07 1.23 1.89 2.05 1.93 2.01 2.08 2.16 2.23 2.21 2.11 2.11 2.14 2.20 2.27 2.20 2.24 2.28 2.32 2.24 2.28 2.45 2.46 2.33 2.32 2.17 2.15
2.93 2.84 2.58 2.12 2.20 2.34 1.71 1.06 0.89 0.87 0.71 0.49 0.36 0.64 1.04 1.33 1.29 1.20 1.26 1.34 1.34 1.41 1.36 1.41 1.63 1.79 1.93 2.04 2.06 2.20 2.31 2.25 2.08 1.98 1.98 2.01 2.12 2.05 1.98 1.95 2.08 2.10 2.18 2.25 2.24 2.28 2.31 2.20 2.17
2.30 2.34 2.11 2.04 2.24 2.44 1.60 1.05 0.86 0.80 0.71 0.36 0.31 0.61 0.97 0.97 0.95 1.09 1.24 1.28 1.28 1.36 1.36 1.40 1.53 1.58 1.62 1.78 2.12 2.39 2.73 2.59 2.13 1.82 1.68 1.81 1.83 1.79 1.85 1.77 1.88 2.01 2.18 2.41 2.41 2.43 2.31 2.30 2.20
2.04 2.41 2.51 2.55 2.51 2.16 1.43 1.23 0.95 0.64 0.56 0.41 0.38 0.50 0.61 0.59 0.76 0.90 1.07 1.10 1.09 1.05 1.10 1.21 1.33 1.37 1.43 1.45 1.70 2.21 2.66 2.65 2.19 1.81 1.74 1.66 1.39 1.37 1.55 1.72 1.98 2.13 2.28 2.63 2.71 2.60 2.43 2.27 2.12
1.97 2.35 2.28 1.96 1.63 1.34 1.17 1.07 0.91 0.78 0.79 0.62 0.52 0.51 0.54 0.59 0.80 0.90 0.93 1.03 0.95 0.86 0.82 0.85 0.89 1.00 1.09 1.10 1.43 1.74 1.78 1.98 1.74 1.68 1.60 1.54 1.52 1.51 1.30 1.45 1.90 2.14 2.20 2.47 2.65 2.58 2.21 1.76 1.56
1.69 1.80 1.58 1.40 1.07 0.86 0.85 0.77 0.67 0.70 0.80 0.69 0.65 0.54 0.58 0.63 0.74 0.79 0.76 0.74 0.77 0.78 0.76 0.70 0.71 0.79 0.93 1.09 1.25 1.46 1.61 1.76 1.73 1.68 1.69 1.78 1.75 1.45 1.30 1.38 1.51 1.69 1.79 1.80 1.96 1.99 1.71 1.45 1.37
1.63 1.34 1.20 1.12 0.78 0.76 0.78 0.65 0.58 0.57 0.54 0.41 0.49 0.45 0.50 0.58 0.62 0.62 0.62 0.64 0.62 0.65 0.75 0.71 0.58 0.61 0.70 0.79 0.97 1.13 1.34 1.54 1.59 1.43 1.41 1.57 1.65 1.48 1.35 1.51 1.55 1.64 1.75 1.80 1.80 1.77 1.59 1.28 1.22
1.54 1.43 1.16 1.03 0.78 0.76 0.70 0.64 0.55 0.47 0.42 0.34 0.40 0.50 0.57 0.63 0.63 0.59 0.56 0.60 0.59 0.65 0.73 0.77 0.68 0.63 0.67 0.72 0.79 0.82 1.11 1.29 1.45 1.52 1.34 1.45 1.54 1.50 1.39 1.35 1.51 1.50 1.63 1.68 1.77 1.82 1.67 1.47 1.31
1.41 1.30 1.06 0.96 0.85 0.75 0.70 0.63 0.58 0.48 0.42 0.39 0.45 0.58 0.62 0.67 0.68 0.64 0.59 0.56 0.52 0.61 0.70 0.73 0.74 0.72 0.72 0.74 0.74 0.74 0.81 0.90 1.00 0.96 0.96 1.14 1.29 1.33 1.36 1.25 1.32 1.42 1.63 1.88 1.98 1.80 1.70 1.58 1.50
1.14 1.25 1.31 1.08 0.89 0.70 0.72 0.87 0.66 0.55 0.53 0.50 0.52 0.57 0.61 0.58 0.60 0.61 0.57 0.54 0.54 0.59 0.65 0.71 0.76 0.83 0.84 0.84 0.89 0.87 0.81 0.83 0.83 0.80 0.81 0.91 1.04 1.14 1.24 1.30 1.29 1.34 1.61 1.91 2.12 1.99 1.85 1.66 1.62
1.24 1.43 1.73 1.37 1.12 0.87 0.97 1.18 0.63 0.56 0.60 0.56 0.51 0.49 0.50 0.48 0.51 0.54 0.54 0.55 0.57 0.58 0.56 0.59 0.64 0.73 0.78 0.83 0.88 0.97 0.96 0.96 0.94 0.96 0.92 0.89 1.04 1.16 1.25 1.35 1.31 1.33 1.58 1.86 2.11 2.17 2.15 2.04 1.94
1.39 1.39 1.36 1.31 1.13 0.94 0.93 0.90 0.57 0.54 0.62 0.62 0.53 0.49 0.52 0.38 0.38 0.43 0.44 0.48 0.52 0.53 0.47 0.46 0.53 0.57 0.60 0.64 0.71 0.84 0.92 0.99 1.07 1.07 1.08 1.11 1.18 1.20 1.31 1.52 1.55 1.56 1.74 1.84 1.87 2.04 2.09 2.14 2.10
1.06 0.97 0.99 1.10 0.92 0.90 0.87 0.67 0.50 0.53 0.58 0.60 0.61 0.55 0.49 0.34 0.28 0.27 0.33 0.40 0.42 0.45 0.45 0.45 0.49 0.50 0.48 0.50 0.61 0.75 0.83 0.89 1.08 1.14 1.19 1.47 1.61 1.42 1.38 1.55 1.61 1.66 1.92 1.97 2.01 2.24 2.23 2.15 2.21
0.76 0.71 0.81 0.81 0.68 0.82 0.78 0.62 0.52 0.47 0.45 0.48 0.54 0.53 0.48 0.35 0.23 0.16 0.16 0.23 0.29 0.30 0.30 0.36 0.40 0.49 0.50 0.44 0.47 0.63 0.76 0.89 1.04 1.23 1.24 1.46 1.59 1.51 1.54 1.61 1.67 1.71 1.84 1.90 2.01 2.37 2.42 2.26 2.12
0.72 0.77 0.81 0.74 0.63 0.72 0.79 0.66 0.53 0.44 0.38 0.39 0.44 0.46 0.42 0.32 0.22 0.17 0.13 0.16 0.22 0.27 0.22 0.24 0.28 0.39 0.51 0.54 0.58 0.72 0.91 1.02 1.14 1.32 1.36 1.44 1.46 1.44 1.40 1.63 1.78 1.76 1.93 1.98 2.13 2.43 2.69 2.43 2.23
0.66 0.74 0.72 0.74 0.76 0.70 0.78 0.85 0.66 0.50 0.42 0.40 0.39 0.41 0.38 0.28 0.23 0.20 0.16 0.14 0.16 0.20 0.17 0.21 0.31 0.45 0.62 0.80 1.04 1.31 1.61 1.77 1.66 1.55 1.64 1.73 1.77 1.69 1.65 1.76 1.93 1.90 1.98 2.09 2.13 2.22 2.74 2.90 2.64
0.78 0.52 0.53 0.63 0.86 0.88 0.73 0.96 0.67 0.49 0.48 0.48 0.43 0.37 0.34 0.29 0.26 0.22 0.19 0.18 0.19 0.25 0.31 0.41 0.54 0.70 0.87 1.07 1.30 1.59 1.86 2.07 2.08 2.13 2.18 2.15 2.07 1.95 1.82 1.87 1.97 2.02 2.10 2.07 1.89 2.05 2.55 3.08 3.13
0.61 0.52 0.52 0.60 0.79 0.76 0.67 0.70 0.59 0.49 0.57 0.59 0.55 0.46 0.42 0.40 0.37 0.35 0.34 0.31 0.32 0.43 0.56 0.68 0.93 1.09 1.23 1.28 1.37 1.60 1.72 1.81 1.92 2.09 2.16 2.17 2.09 1.99 1.84 1.80 1.96 2.07 2.14 2.12 2.15 2.29 2.59 2.91 3.20
0.50 0.59 0.65 0.75 0.83 0.79 0.52 0.52 0.60 0.48 0.54 0.65 0.63 0.54 0.48 0.45 0.42 0.44 0.50 0.50 0.54 0.74 0.97 1.12 1.26 1.37 1.36 1.31 1.30 1.42 1.57 1.68 1.79 1.95 2.03 1.98 1.87 1.85 1.80 1.79 1.85 1.86 1.94 2.03 2.19 2.42 2.55 2.72 2.95
0.50 0.75 0.96 0.99 0.92 0.66 0.35 0.40 0.49 0.38 0.36 0.46 0.52 0.52 0.47 0.40 0.40 0.44 0.52 0.65 0.86 1.07 1.26 1.39 1.41 1.34 1.21 1.16 1.22 1.27 1.41 1.58 1.63 1.68 1.71 1.71 1.68 1.63 1.63 1.67 1.70 1.65 1.67 1.80 1.96 2.18 2.21 2.32 2.52
0.43 0.55 0.83 0.90 0.77 0.55 0.38 0.52 0.53 0.38 0.29 0.27 0.28 0.34 0.43 0.47 0.52 0.55 0.59 0.76 1.05 1.30 1.51 1.77 1.75 1.53 1.31 1.23 1.27 1.31 1.41 1.47 1.46 1.39 1.43 1.47 1.46 1.42 1.36 1.39 1.46 1.48 1.50 1.57 1.73 1.87 1.86 1.92 2.10
0.39 0.40 0.44 0.61 0.52 0.49 0.42 0.48 0.42 0.28 0.23 0.22 0.25 0.31 0.44 0.53 0.62 0.71 0.85 0.93 1.14 1.36 1.67 1.93 1.98 1.78 1.61 1.51 1.43 1.43 1.35 1.27 1.21 1.13 1.13 1.18 1.23 1.16 1.13 1.18 1.30 1.39 1.40 1.42 1.57 1.69 1.64 1.71 1.84
0.31 0.34 0.41 0.63 0.70 0.65 0.47 0.48 0.42 0.29 0.22 0.23 0.33 0.39 0.48 0.57 0.60 0.77 1.05 1.29 1.54 1.48 1.60 1.80 1.73 1.66 1.64 1.64 1.60 1.48 1.32 1.20 1.16 1.10 1.11 1.08 1.14 1.08 1.09 1.11 1.12 1.16 1.20 1.26 1.45 1.62 1.68 1.67 1.73
0.31 0.34 0.39 0.52 0.53 0.68 0.75 0.63 0.38 0.32 0.32 0.38 0.46 0.49 0.53 0.61 0.67 0.83 1.03 1.21 1.42 1.53 1.54 1.55 1.52 1.54 1.51 1.42 1.37 1.22 1.01 0.89 0.89 0.91 0.91 0.87 0.90 0.85 0.87 0.87 0.93 1.06 1.07 1.09 1.27 1.37 1.39 1.51 1.61
0.34 0.37 0.42 0.66 0.65 0.62 0.86 0.87 0.49 0.46 0.49 0.58 0.65 0.69 0.73 0.74 0.80 0.91 1.00 1.19 1.29 1.30 1.37 1.44 1.36 1.33 1.28 1.16 1.04 0.89 0.75 0.70 0.71 0.73 0.70 0.64 0.66 0.62 0.68 0.75 0.76 0.94 1.10 1.13 1.18 1.19 1.18 1.32 1.41

GEFSSGP_prec_meanprecacc_294.txt.gz
Total_Precipitation_Accumulation
2.18 2.06 2.99 4.46 4.72 3.91 3.30 2.77 2.09 1.67 1.14 0.95 0.88 1.03 1.36 1.82 2.23 2.72 3.05 2.90 1.92 1.57 1.74 2.52 3.45 3.40 3.12 3.12 3.04 2.92 2.90 2.86 2.71 2.57 2.39 2.33 2.23 2.31 2.60 2.45 2.42 2.31 2.21 2.29 2.49 2.69 2.86 2.86 2.91
1.78 2.46 3.61 4.99 4.45 3.47 3.12 2.65 2.00 1.36 0.86 0.69 0.61 0.72 0.85 0.86 0.96 1.68 2.88 2.90 1.65 1.32 1.53 2.11 2.97 2.90 2.81 2.82 2.62 2.52 2.48 2.40 2.43 2.42 2.23 2.19 2.20 2.36 2.64 2.54 2.37 2.25 2.18 2.26 2.49 2.74 2.80 2.83 2.94
2.00 3.19 4.23 4.43 3.50 3.17 3.07 2.39 1.61 0.93 0.59 0.54 0.53 0.55 0.67 0.99 1.18 1.82 2.56 2.10 1.32 1.12 1.44 2.19 2.82 2.67 2.66 2.61 2.35 2.36 2.23 2.16 2.20 2.28 2.20 2.25 2.19 2.26 2.48 2.51 2.48 2.44 2.46 2.43 2.57 2.68 2.67 2.78 2.88
2.27 3.49 3.77 3.45 2.97 2.47 2.11 1.71 1.25 1.04 0.67 0.41 0.39 0.54 0.64 1.05 1.41 1.68 1.75 1.44 1.17 1.18 1.33 1.88 2.46 2.42 2.36 2.33 2.38 2.32 2.16 2.13 2.11 2.13 2.18 2.20 2.21 2.18 2.31 2.47 2.42 2.37 2.60 2.73 2.73 2.73 2.76 2.81 2.82
2.80 3.60 3.38 2.84 2.46 2.00 1.50 1.16 0.99 1.00 0.80 0.46 0.35 0.59 0.92 1.33 1.52 1.38 1.24 1.03 1.00 1.07 1.11 1.47 2.13 2.16 2.09 2.13 2.24 2.30 2.21 2.21 2.11 2.12 2.26 2.29 2.23 2.20 2.31 2.46 2.43 2.36 2.48 2.72 2.69 2.61 2.59 2.55 2.57
3.09 3.17 3.10 2.64 2.39 1.93 1.49 1.06 0.84 0.79 0.64 0.45 0.36 0.60 1.05 1.40 1.60 1.39 1.19 1.18 1.15 1.16 1.08 1.25 1.93 2.09 1.99 2.08 2.13 2.19 2.27 2.24 2.13 2.13 2.16 2.23 2.31 2.25 2.31 2.33 2.37 2.30 2.34 2.53 2.54 2.41 2.43 2.31 2.27
2.95 2.86 2.61 2.14 2.21 2.34 1.72 1.06 0.90 0.87 0.71 0.49 0.36 0.64 1.05 1.35 1.30 1.21 1.28 1.36 1.36 1.42 1.37 1.43 1.65 1.82 1.96 2.08 2.11 2.23 2.34 2.28 2.11 2.01 2.00 2.04 2.16 2.10 2.03 2.00 2.14 2.16 2.25 2.33 2.32 2.36 2.38 2.29 2.28
2.32 2.38 2.14 2.06 2.25 2.44 1.60 1.06 0.86 0.80 0.71 0.36 0.31 0.61 0.97 0.99 0.96 1.10 1.26 1.29 1.30 1.38 1.38 1.42 1.55 1.61 1.64 1.80 2.16 2.43 2.77 2.62 2.16 1.85 1.72 1.86 1.87 1.83 1.89 1.81 1.93 2.08 2.27 2.49 2.50 2.53 2.39 2.38 2.29
2.08 2.46 2.54 2.57 2.52 2.17 1.44 1.23 0.95 0.64 0.56 0.41 0.38 0.50 0.61 0.61 0.77 0.91 1.09 1.11 1.10 1.06 1.11 1.23 1.35 1.39 1.45 1.46 1.72 2.24 2.69 2.68 2.23 1.83 1.76 1.68 1.41 1.39 1.58 1.74 2.02 2.18 2.35 2.68 2.76 2.66 2.51 2.35 2.19
2.02 2.39 2.31 1.97 1.64 1.35 1.17 1.07 0.91 0.78 0.79 0.62 0.52 0.52 0.55 0.59 0.81 0.91 0.94 1.04 0.97 0.88 0.84 0.87 0.91 1.02 1.10 1.11 1.44 1.75 1.80 2.01 1.76 1.69 1.61 1.55 1.53 1.53 1.32 1.46 1.92 2.17 2.24 2.50 2.68 2.61 2.26 1.80 1.59
1.72 1.82 1.60 1.41 1.08 0.87 0.86 0.77 0.68 0.71 0.81 0.69 0.65 0.54 0.59 0.64 0.75 0.80 0.76 0.75 0.78 0.79 0.77 0.71 0.71 0.79 0.94 1.09 1.26 1.47 1.62 1.78 1.74 1.68 1.69 1.78 1.75 1.45 1.30 1.38 1.52 1.69 1.79 1.81 1.97 2.00 1.72 1.46 1.38
1.64 1.36 1.20 1.14 0.79 0.78 0.79 0.65 0.58 0.58 0.55 0.42 0.51 0.47 0.51 0.59 0.63 0.62 0.63 0.65 0.63 0.65 0.75 0.72 0.59 0.61 0.70 0.79 0.97 1.13 1.34 1.54 1.59 1.43 1.41 1.58 1.65 1.48 1.36 1.51 1.55 1.64 1.75 1.80 1.80 1.77 1.59 1.29 1.23
1.56 1.44 1.17 1.03 0.79 0.77 0.71 0.65 0.55 0.47 0.43 0.35 0.41 0.51 0.57 0.63 0.64 0.60 0.56 0.61 0.60 0.66 0.74 0.78 0.69 0.64 0.68 0.73 0.80 0.83 1.12 1.30 1.46 1.53 1.34 1.46 1.54 1.50 1.39 1.35 1.51 1.50 1.63 1.68 1.77 1.82 1.67 1.48 1.32
1.42 1.31 1.07 0.97 0.85 0.76 0.70 0.63 0.58 0.49 0.43 0.40 0.45 0.59 0.63 0.68 0.69 0.65 0.60 0.57 0.53 0.62 0.72 0.74 0.76 0.74 0.73 0.75 0.75 0.75 0.82 0.91 1.01 0.97 0.96 1.14 1.29 1.34 1.36 1.25 1.32 1.43 1.63 1.88 1.98 1.81 1.71 1.59 1.51
1.15 1.26 1.32 1.09 0.89 0.71 0.72 0.87 0.66 0.56 0.55 0.52 0.53 0.58 0.62 0.60 0.61 0.62 0.57 0.54 0.54 0.60 0.66 0.72 0.78 0.85 0.85 0.85 0.90 0.88 0.83 0.85 0.84 0.81 0.82 0.91 1.05 1.14 1.24 1.30 1.29 1.35 1.61 1.91 2.12 1.99 1.86 1.67 1.64
1.25 1.43 1.73 1.37 1.12 0.88 0.98 1.19 0.65 0.57 0.63 0.59 0.55 0.51 0.52 0.50 0.52 0.55 0.55 0.56 0.58 0.59 0.56 0.61 0.65 0.75 0.79 0.84 0.89 0.98 0.97 0.97 0.95 0.97 0.92 0.89 1.04 1.16 1.25 1.36 1.31 1.34 1.58 1.87 2.12 2.18 2.17 2.07 1.98
1.40 1.39 1.37 1.31 1.13 0.95 0.94 0.91 0.58 0.55 0.64 0.65 0.57 0.52 0.54 0.39 0.40 0.44 0.45 0.50 0.53 0.53 0.48 0.47 0.54 0.58 0.61 0.65 0.73 0.85 0.93 0.99 1.08 1.07 1.08 1.11 1.18 1.20 1.31 1.52 1.55 1.56 1.74 1.85 1.88 2.04 2.10 2.18 2.13
1.06 0.97 0.99 1.10 0.93 0.91 0.87 0.67 0.51 0.55 0.59 0.61 0.64 0.57 0.50 0.35 0.29 0.28 0.33 0.40 0.43 0.46 0.46 0.46 0.49 0.51 0.49 0.51 0.62 0.76 0.84 0.90 1.09 1.15 1.20 1.47 1.61 1.42 1.38 1.56 1.61 1.67 1.92 1.98 2.01 2.25 2.24 2.18 2.24
0.76 0.71 0.81 0.81 0.68 0.82 0.78 0.62 0.53 0.48 0.45 0.49 0.55 0.55 0.49 0.36 0.24 0.17 0.16 0.23 0.30 0.30 0.30 0.36 0.40 0.50 0.51 0.45 0.48 0.64 0.78 0.90 1.06 1.24 1.25 1.46 1.59 1.51 1.55 1.61 1.67 1.72 1.85 1.91 2.02 2.38 2.43 2.27 2.13
0.73 0.78 0.81 0.74 0.63 0.72 0.79 0.66 0.54 0.44 0.39 0.40 0.44 0.47 0.44 0.34 0.24 0.18 0.15 0.17 0.23 0.27 0.22 0.25 0.29 0.41 0.52 0.55 0.59 0.73 0.93 1.05 1.17 1.34 1.38 1.45 1.46 1.45 1.40 1.63 1.79 1.78 1.93 1.99 2.13 2.44 2.70 2.44 2.24
0.67 0.75 0.73 0.74 0.76 0.70 0.78 0.85 0.66 0.50 0.43 0.41 0.40 0.42 0.39 0.29 0.24 0.21 0.17 0.15 0.16 0.21 0.18 0.22 0.32 0.46 0.63 0.81 1.05 1.32 1.63 1.79 1.69 1.57 1.66 1.74 1.78 1.71 1.66 1.77 1.95 1.93 2.00 2.10 2.14 2.23 2.75 2.92 2.65
0.78 0.53 0.53 0.64 0.87 0.88 0.74 0.97 0.68 0.49 0.49 0.48 0.43 0.38 0.34 0.30 0.27 0.23 0.20 0.19 0.20 0.26 0.32 0.42 0.55 0.72 0.88 1.09 1.31 1.60 1.88 2.09 2.10 2.15 2.21 2.16 2.08 1.96 1.83 1.88 1.99 2.04 2.13 2.09 1.92 2.08 2.58 3.10 3.15
0.62 0.53 0.53 0.62 0.81 0.77 0.67 0.70 0.60 0.49 0.58 0.60 0.55 0.46 0.43 0.41 0.38 0.36 0.35 0.32 0.33 0.43 0.57 0.69 0.94 1.11 1.25 1.30 1.38 1.61 1.73 1.83 1.95 2.11 2.18 2.18 2.11 2.00 1.85 1.82 1.98 2.10 2.17 2.15 2.17 2.31 2.61 2.94 3.23
0.51 0.61 0.68 0.77 0.85 0.80 0.53 0.52 0.60 0.48 0.54 0.65 0.63 0.54 0.48 0.46 0.43 0.44 0.50 0.50 0.55 0.75 0.98 1.13 1.27 1.38 1.37 1.32 1.32 1.43 1.59 1.70 1.81 1.97 2.05 1.99 1.88 1.86 1.81 1.81 1.87 1.89 1.97 2.06 2.22 2.45 2.58 2.76 2.99
0.51 0.77 0.98 1.01 0.94 0.67 0.35 0.41 0.49 0.38 0.36 0.46 0.53 0.52 0.47 0.41 0.41 0.45 0.53 0.66 0.86 1.07 1.27 1.41 1.43 1.37 1.23 1.18 1.23 1.28 1.43 1.59 1.64 1.70 1.72 1.72 1.68 1.63 1.64 1.69 1.72 1.68 1.70 1.84 2.01 2.22 2.24 2.35 2.57
0.43 0.56 0.84 0.92 0.78 0.55 0.38 0.52 0.53 0.39 0.29 0.27 0.29 0.35 0.43 0.48 0.54 0.56 0.60 0.76 1.06 1.32 1.53 1.80 1.79 1.56 1.33 1.25 1.29 1.32 1.42 1.48 1.46 1.40 1.44 1.47 1.46 1.42 1.37 1.41 1.48 1.50 1.53 1.60 1.78 1.92 1.90 1.95 2.15
0.40 0.41 0.45 0.62 0.54 0.50 0.42 0.48 0.43 0.29 0.24 0.23 0.25 0.31 0.44 0.54 0.64 0.74 0.88 0.96 1.18 1.40 1.72 1.98 2.03 1.82 1.64 1.54 1.44 1.44 1.36 1.29 1.22 1.14 1.14 1.18 1.23 1.17 1.14 1.20 1.32 1.41 1.42 1.43 1.59 1.72 1.67 1.73 1.87
0.32 0.35 0.41 0.63 0.70 0.67 0.48 0.49 0.43 0.29 0.22 0.23 0.33 0.40 0.48 0.58 0.62 0.80 1.10 1.36 1.62 1.55 1.66 1.86 1.77 1.71 1.69 1.67 1.62 1.51 1.35 1.22 1.17 1.11 1.11 1.09 1.14 1.09 1.09 1.12 1.13 1.17 1.21 1.27 1.45 1.63 1.69 1.68 1.74
0.31 0.34 0.39 0.52 0.54 0.69 0.75 0.64 0.39 0.33 0.32 0.38 0.47 0.49 0.54 0.62 0.68 0.87 1.06 1.25 1.48 1.58 1.58 1.60 1.58 1.61 1.61 1.47 1.39 1.24 1.03 0.91 0.91 0.94 0.93 0.89 0.91 0.87 0.87 0.87 0.93 1.06 1.08 1.10 1.27 1.38 1.40 1.52 1.62
0.35 0.38 0.42 0.66 0.66 0.62 0.86 0.87 0.50 0.47 0.49 0.58 0.65 0.70 0.73 0.74 0.81 0.95 1.06 1.22 1.31 1.32 1.41 1.50 1.43 1.41 1.36 1.21 1.07 0.91 0.77 0.71 0.74 0.76 0.72 0.65 0.67 0.64 0.69 0.76 0.76 0.94 1.11 1.14 1.19 1.20 1.19 1.34 1.43

GEFSSGP_prec_meanprecacc_300.txt.gz
Total_Precipitation_Accumulation
2.19 2.07 3.00 4.47 4.73 3.93 3.31 2.78 2.11 1.68 1.15 0.96 0.88 1.03 1.37 1.82 2.24 2.74 3.08 2.91 1.93 1.58 1.74 2.54 3.48 3.42 3.14 3.17 3.10 2.98 2.96 2.90 2.75 2.62 2.45 2.40 2.29 2.35 2.63 2.51 2.50 2.39 2.28 2.34 2.53 2.74 2.93 2.97 3.02
1.79 2.47 3.61 5.00 4.45 3.48 3.13 2.66 2.00 1.37 0.87 0.70 0.62 0.72 0.85 0.86 0.96 1.71 2.91 2.91 1.65 1.32 1.54 2.12 3.00 2.92 2.84 2.86 2.68 2.57 2.53 2.46 2.49 2.48 2.29 2.28 2.29 2.43 2.72 2.63 2.46 2.34 2.25 2.32 2.55 2.82 2.90 2.95 3.06
2.01 3.20 4.24 4.43 3.51 3.18 3.09 2.40 1.61 0.94 0.60 0.54 0.53 0.56 0.68 1.01 1.19 1.85 2.59 2.11 1.33 1.14 1.46 2.21 2.87 2.70 2.69 2.65 2.40 2.41 2.28 2.20 2.26 2.35 2.28 2.33 2.29 2.37 2.60 2.65 2.60 2.53 2.54 2.53 2.68 2.78 2.82 2.98 3.04
2.28 3.50 3.78 3.45 2.98 2.48 2.12 1.73 1.25 1.05 0.68 0.41 0.39 0.54 0.65 1.07 1.44 1.72 1.77 1.46 1.19 1.20 1.35 1.91 2.52 2.45 2.40 2.36 2.42 2.37 2.21 2.18 2.15 2.19 2.25 2.28 2.29 2.29 2.43 2.59 2.52 2.45 2.68 2.85 2.96 2.94 2.97 3.04 3.06
2.81 3.62 3.39 2.85 2.46 2.00 1.50 1.17 1.00 1.01 0.80 0.46 0.35 0.60 0.93 1.36 1.54 1.39 1.26 1.04 1.01 1.09 1.13 1.50 2.20 2.22 2.16 2.19 2.29 2.35 2.25 2.25 2.15 2.16 2.31 2.34 2.28 2.28 2.40 2.57 2.53 2.44 2.55 2.84 2.94 2.93 2.93 2.86 2.89
3.10 3.19 3.11 2.65 2.39 1.93 1.49 1.07 0.84 0.80 0.64 0.45 0.37 0.61 1.06 1.42 1.62 1.42 1.22 1.21 1.17 1.19 1.11 1.28 1.97 2.14 2.04 2.14 2.18 2.24 2.32 2.29 2.17 2.16 2.19 2.27 2.38 2.32 2.41 2.41 2.46 2.38 2.40 2.62 2.68 2.58 2.63 2.54 2.54
2.95 2.87 2.62 2.14 2.22 2.35 1.72 1.06 0.90 0.88 0.71 0.49 0.36 0.65 1.06 1.36 1.34 1.25 1.32 1.40 1.39 1.45 1.40 1.45 1.67 1.85 2.00 2.12 2.15 2.27 2.38 2.33 2.16 2.04 2.03 2.07 2.20 2.16 2.10 2.05 2.21 2.25 2.34 2.41 2.42 2.46 2.51 2.46 2.46
2.33 2.38 2.14 2.06 2.26 2.45 1.61 1.06 0.87 0.81 0.72 0.37 0.32 0.62 0.98 1.00 0.99 1.14 1.28 1.31 1.32 1.39 1.39 1.43 1.57 1.64 1.67 1.84 2.20 2.47 2.81 2.67 2.20 1.89 1.75 1.89 1.91 1.86 1.92 1.83 1.99 2.16 2.36 2.58 2.59 2.62 2.49 2.54 2.46
2.09 2.47 2.55 2.57 2.53 2.17 1.44 1.24 0.96 0.64 0.57 0.42 0.38 0.50 0.62 0.61 0.78 0.92 1.10 1.13 1.12 1.08 1.14 1.24 1.35 1.40 1.46 1.48 1.75 2.27 2.72 2.72 2.25 1.85 1.77 1.69 1.42 1.40 1.60 1.77 2.07 2.25 2.42 2.76 2.84 2.75 2.58 2.43 2.31
2.03 2.40 2.31 1.97 1.65 1.35 1.18 1.08 0.92 0.79 0.80 0.63 0.54 0.53 0.56 0.59 0.81 0.91 0.95 1.05 0.99 0.92 0.90 0.91 0.92 1.03 1.11 1.12 1.46 1.77 1.82 2.04 1.78 1.70 1.62 1.56 1.55 1.55 1.34 1.48 1.94 2.20 2.29 2.53 2.72 2.64 2.31 1.85 1.67
1.73 1.83 1.60 1.42 1.08 0.88 0.87 0.78 0.69 0.72 0.82 0.70 0.66 0.55 0.60 0.64 0.75 0.80 0.77 0.76 0.80 0.82 0.81 0.74 0.73 0.81 0.95 1.10 1.27 1.48 1.63 1.79 1.75 1.69 1.70 1.79 1.76 1.46 1.30 1.39 1.52 1.70 1.81 1.83 1.99 2.02 1.74 1.49 1.42
1.65 1.36 1.21 1.14 0.80 0.79 0.80 0.66 0.59 0.59 0.56 0.43 0.52 0.47 0.52 0.59 0.63 0.62 0.63 0.65 0.63 0.66 0.76 0.72 0.60 0.62 0.71 0.79 0.97 1.14 1.35 1.55 1.59 1.43 1.41 1.58 1.65 1.49 1.36 1.51 1.56 1.64 1.76 1.81 1.81 1.78 1.61 1.31 1.25
1.58 1.46 1.18 1.04 0.80 0.78 0.72 0.66 0.57 0.49 0.44 0.36 0.42 0.52 0.58 0.64 0.64 0.60 0.57 0.62 0.60 0.66 0.74 0.79 0.69 0.65 0.68 0.73 0.80 0.83 1.13 1.30 1.46 1.53 1.34 1.46 1.54 1.50 1.39 1.35 1.51 1.51 1.63 1.68 1.78 1.83 1.68 1.49 1.33
1.44 1.32 1.08 0.98 0.87 0.78 0.71 0.64 0.59 0.50 0.45 0.41 0.46 0.59 0.63 0.68 0.69 0.65 0.61 0.58 0.53 0.63 0.72 0.75 0.76 0.74 0.73 0.75 0.75 0.75 0.82 0.91 1.01 0.97 0.97 1.14 1.30 1.34 1.36 1.25 1.33 1.43 1.63 1.88 1.98 1.81 1.71 1.59 1.53
1.16 1.26 1.32 1.10 0.90 0.71 0.72 0.88 0.67 0.56 0.56 0.53 0.54 0.59 0.63 0.60 0.61 0.63 0.58 0.55 0.55 0.60 0.66 0.73 0.79 0.85 0.85 0.85 0.91 0.88 0.83 0.85 0.85 0.81 0.82 0.91 1.05 1.15 1.25 1.31 1.30 1.35 1.62 1.92 2.12 2.00 1.87 1.68 1.65
1.25 1.44 1.74 1.37 1.13 0.88 0.98 1.20 0.65 0.58 0.63 0.60 0.56 0.52 0.53 0.50 0.53 0.55 0.55 0.56 0.58 0.59 0.57 0.61 0.65 0.75 0.79 0.84 0.89 0.98 0.97 0.97 0.96 0.97 0.93 0.89 1.04 1.16 1.25 1.36 1.31 1.34 1.59 1.87 2.13 2.19 2.18 2.08 1.98
1.41 1.40 1.38 1.32 1.13 0.95 0.94 0.92 0.59 0.55 0.64 0.65 0.58 0.53 0.55 0.40 0.41 0.45 0.45 0.50 0.54 0.54 0.48 0.48 0.54 0.58 0.61 0.65 0.73 0.86 0.93 0.99 1.08 1.07 1.08 1.11 1.18 1.20 1.31 1.53 1.55 1.56 1.74 1.85 1.89 2.06 2.11 2.19 2.15
1.07 0.98 1.00 1.10 0.93 0.91 0.88 0.67 0.52 0.55 0.60 0.61 0.64 0.58 0.52 0.36 0.30 0.29 0.34 0.40 0.44 0.46 0.46 0.47 0.50 0.52 0.50 0.51 0.62 0.76 0.84 0.90 1.09 1.15 1.20 1.47 1.62 1.42 1.38 1.56 1.61 1.67 1.93 1.98 2.02 2.25 2.26 2.19 2.25
0.77 0.72 0.81 0.81 0.68 0.82 0.78 0.62 0.53 0.48 0.46 0.49 0.55 0.56 0.50 0.36 0.25 0.18 0.17 0.24 0.30 0.30 0.30 0.36 0.41 0.50 0.51 0.45 0.48 0.64 0.78 0.91 1.06 1.24 1.25 1.46 1.60 1.51 1.55 1.61 1.68 1.72 1.85 1.91 2.02 2.38 2.44 2.28 2.14
0.73 0.79 0.82 0.74 0.64 0.73 0.79 0.66 0.54 0.45 0.39 0.40 0.44 0.47 0.44 0.34 0.24 0.19 0.15 0.17 0.23 0.27 0.23 0.25 0.29 0.41 0.52 0.55 0.59 0.73 0.93 1.05 1.17 1.35 1.38 1.45 1.47 1.45 1.40 1.63 1.80 1.78 1.94 1.99 2.14 2.44 2.70 2.45 2.25
0.68 0.76 0.74 0.75 0.77 0.71 0.79 0.85 0.66 0.50 0.43 0.41 0.41 0.42 0.40 0.30 0.25 0.22 0.17 0.15 0.17 0.21 0.18 0.22 0.32 0.47 0.64 0.81 1.05 1.33 1.64 1.80 1.69 1.58 1.66 1.75 1.78 1.71 1.66 1.78 1.95 1.93 2.01 2.11 2.15 2.24 2.76 2.93 2.66
0.79 0.53 0.54 0.65 0.89 0.91 0.75 0.97 0.68 0.49 0.49 0.48 0.44 0.38 0.34 0.30 0.27 0.24 0.21 0.19 0.20 0.26 0.32 0.42 0.55 0.72 0.89 1.10 1.32 1.60 1.88 2.10 2.11 2.16 2.22 2.17 2.08 1.96 1.83 1.89 1.99 2.05 2.13 2.10 1.93 2.08 2.59 3.11 3.16
0.62 0.53 0.54 0.63 0.83 0.80 0.69 0.72 0.60 0.49 0.58 0.60 0.56 0.47 0.43 0.41 0.38 0.37 0.36 0.33 0.34 0.44 0.57 0.70 0.95 1.12 1.26 1.32 1.40 1.63 1.74 1.84 1.96 2.12 2.19 2.19 2.11 2.00 1.85 1.82 1.98 2.10 2.17 2.16 2.18 2.32 2.62 2.95 3.24
0.51 0.61 0.69 0.78 0.87 0.83 0.54 0.54 0.60 0.48 0.54 0.66 0.63 0.55 0.49 0.46 0.43 0.45 0.51 0.51 0.55 0.77 1.00 1.14 1.28 1.40 1.38 1.34 1.33 1.45 1.60 1.70 1.81 1.98 2.06 2.00 1.89 1.86 1.81 1.81 1.87 1.90 1.98 2.08 2.23 2.46 2.60 2.79 3.02
0.52 0.79 0.99 1.02 0.95 0.68 0.36 0.42 0.50 0.38 0.36 0.46 0.53 0.53 0.48 0.41 0.41 0.45 0.53 0.66 0.87 1.09 1.28 1.43 1.45 1.38 1.24 1.19 1.25 1.30 1.44 1.60 1.65 1.71 1.73 1.73 1.69 1.64 1.64 1.69 1.73 1.68 1.71 1.85 2.02 2.23 2.26 2.38 2.60
0.44 0.57 0.85 0.93 0.79 0.55 0.39 0.53 0.54 0.39 0.29 0.27 0.29 0.35 0.44 0.48 0.54 0.56 0.61 0.77 1.08 1.34 1.55 1.82 1.82 1.58 1.36 1.27 1.30 1.34 1.44 1.50 1.47 1.40 1.44 1.48 1.46 1.43 1.37 1.41 1.49 1.51 1.53 1.61 1.78 1.93 1.91 1.97 2.16
0.40 0.42 0.45 0.62 0.54 0.50 0.43 0.48 0.43 0.29 0.24 0.23 0.25 0.31 0.44 0.54 0.64 0.74 0.88 0.96 1.19 1.42 1.74 2.01 2.08 1.87 1.68 1.56 1.46 1.46 1.37 1.30 1.22 1.14 1.14 1.19 1.24 1.17 1.14 1.20 1.32 1.42 1.43 1.44 1.60 1.73 1.68 1.74 1.87
0.32 0.36 0.42 0.64 0.71 0.67 0.49 0.49 0.43 0.29 0.22 0.23 0.33 0.40 0.48 0.58 0.62 0.80 1.10 1.37 1.63 1.58 1.70 1.90 1.83 1.77 1.75 1.72 1.65 1.53 1.37 1.23 1.18 1.11 1.12 1.09 1.15 1.09 1.10 1.12 1.14 1.17 1.21 1.27 1.46 1.64 1.70 1.68 1.74
0.32 0.35 0.39 0.52 0.54 0.70 0.76 0.64 0.39 0.33 0.32 0.38 0.47 0.49 0.54 0.62 0.68 0.87 1.06 1.26 1.49 1.61 1.62 1.65 1.64 1.68 1.68 1.55 1.43 1.27 1.05 0.92 0.91 0.94 0.93 0.89 0.91 0.87 0.88 0.87 0.93 1.07 1.08 1.10 1.28 1.38 1.40 1.53 1.63
0.35 0.38 0.43 0.67 0.66 0.63 0.87 0.88 0.50 0.47 0.50 0.58 0.65 0.70 0.73 0.75 0.81 0.95 1.07 1.23 1.33 1.35 1.44 1.55 1.47 1.45 1.43 1.29 1.12 0.94 0.80 0.73 0.74 0.76 0.73 0.66 0.68 0.64 0.69 0.76 0.76 0.95 1.11 1.14 1.19 1.20 1.20 1.34 1.44